Date StartTime U_cm/s V_cm/s W_cm/s Ustd_cm/s Vstd_cm/s Wstd_cm/s Uvar_(cm/s)^2 Vvar_(cm/s)^2 Wvar_(cm/s)^2 KE_(m/s)^2 TurbulentKE_(m/s)^2 HorizWindSpeed_cm/s FrictionSpeec_cm/s DragCoef SpeedOfSound_m/s SonicTemperature_C Pressure_mb 
04/09/2014  00:00:00       23.198       93.180       -2.172       22.305       36.586       16.353      497.511     1338.564      267.433        0.566        0.105       96.024       18.372        0.037      341.223       15.786      863.832
04/09/2014  00:01:00        4.693       83.960       -4.475       27.833       19.480       16.470      774.696      379.461      271.250        0.426        0.071       84.091       13.748        0.027      341.310       15.935      863.831
04/09/2014  00:02:00        5.245      104.814      -14.148       19.158       16.005        9.314      367.012      256.158       86.745        0.596        0.035      104.945        9.262        0.008      341.483       16.226      863.830
04/09/2014  00:03:00       33.116       86.012      -14.576       15.386       26.358       15.034      236.715      694.724      226.023        0.493        0.058       92.166       13.283        0.021      341.473       16.209      863.801
04/09/2014  00:04:00       26.606       84.681      -15.204       11.236       24.213       14.947      126.257      586.261      223.404        0.452        0.047       88.762       14.648        0.027      341.553       16.345      863.788
04/09/2014  00:05:00       15.528       52.859       -0.782       10.766       13.918       10.982      115.914      193.703      120.603        0.173        0.022       55.092        6.314        0.013      341.492       16.242      863.785
04/09/2014  00:06:00      -37.507        9.074       -4.843       14.530       18.646        8.008      211.115      347.677       64.128        0.107        0.031       38.589        7.317        0.036      341.256       15.842      863.798
04/09/2014  00:07:00      -19.977       70.496       -1.844       21.609       32.485       11.727      466.968     1055.302      137.519        0.352        0.083       73.272        4.427        0.004      341.247       15.827      863.791
04/09/2014  00:08:00      -11.342      117.252      -12.518       12.772       22.527        8.977      163.115      507.455       80.590        0.739        0.038      117.800        7.947        0.005      341.467       16.200      863.773
04/09/2014  00:09:00      -35.106       39.827       -4.424       23.040       22.163       14.784      530.847      491.215      218.566        0.204        0.062       53.091       11.414        0.046      341.485       16.231      863.741
04/09/2014  00:10:00      -10.452       57.006       -8.460       20.250       36.233       13.922      410.072     1312.818      193.830        0.267        0.096       57.957       16.944        0.085      341.665       16.536      863.728
04/09/2014  00:11:00       -7.005       15.032        5.464       12.001       15.950        7.112      144.017      254.409       50.584        0.038        0.022       16.584        3.622        0.048      341.539       16.323      863.724
04/09/2014  00:12:00       40.532        5.268        1.228       22.899       25.549       19.504      524.386      652.732      380.424        0.161        0.078       40.872        8.195        0.040      340.879       15.205      863.734
04/09/2014  00:13:00      -53.572      -29.620       -2.914       50.009       15.167       13.329     2500.917      230.042      177.654        0.333        0.145       61.215       18.346        0.090      341.009       15.424      863.755
04/09/2014  00:14:00      -85.806      -17.289       -4.915       23.510       21.235       13.106      552.708      450.931      171.776        0.443        0.059       87.530       10.009        0.013      341.366       16.029      863.746
04/09/2014  00:15:00      -45.398       20.286        7.915       33.627       29.650       24.464     1130.754      879.109      598.472        0.257        0.130       49.725       19.594        0.155      341.172       15.701      863.714
04/09/2014  00:16:00      -74.534       60.565      -10.211       38.846       30.878       19.609     1509.033      953.469      384.495        0.609        0.142       96.038       17.967        0.035      341.469       16.203      863.680
04/09/2014  00:17:00      -32.048       59.933       -6.862       24.621       31.687       20.766      606.207     1004.083      431.210        0.335        0.102       67.964       17.777        0.068      341.443       16.159      863.661
04/09/2014  00:18:00       13.223       14.388        1.614       34.612       43.755       20.495     1197.970     1914.470      420.062        0.196        0.177       19.541       17.408        0.794      341.300       15.918      863.666
04/09/2014  00:19:00       23.761      -57.562       -9.280       31.298       33.278       20.926      979.579     1107.418      437.889        0.324        0.126       62.273       17.186        0.076      340.805       15.079      863.700
04/09/2014  00:20:00      103.177     -147.740      -38.626       58.886       48.923       25.444     3467.612     2393.484      647.405        2.024        0.325      180.201       23.577        0.017      340.773       15.025      863.753
04/09/2014  00:21:00       79.853     -120.949      -26.344       43.972       50.273       36.260     1933.574     2527.327     1314.813        1.374        0.289      144.932       27.049        0.035      340.740       14.968      863.788
04/09/2014  00:22:00       72.899      -82.795        3.384       33.458       30.016       29.724     1119.414      900.934      883.519        0.754        0.145      110.314       16.992        0.024      340.544       14.637      863.809
04/09/2014  00:23:00       46.660      -48.385        1.357       32.497       38.585       30.195     1056.044     1488.814      911.725        0.399        0.173       67.218       21.398        0.101      340.284       14.199      863.808
04/09/2014  00:24:00       49.174      -73.518       -4.121       35.460       26.294       25.267     1257.399      691.378      638.420        0.521        0.129       88.448       18.243        0.043      340.156       13.980      863.787
04/09/2014  00:25:00        4.032      -25.503       19.111       27.000       38.867       24.934      729.010     1510.627      621.726        0.195        0.143       25.819       11.626        0.203      340.323       14.263      863.765
04/09/2014  00:26:00       18.719       33.448       19.560       31.790       24.636       29.729     1010.623      606.943      883.836        0.218        0.125       38.330       15.837        0.171      340.349       14.310      863.738
04/09/2014  00:27:00       60.230       50.766       53.828       42.391       33.515       21.709     1797.027     1123.262      471.281        0.625        0.170       78.771        9.897        0.016      340.519       14.597      863.720
04/09/2014  00:28:00       11.012       16.184       38.469       23.616       22.464       18.421      557.731      504.621      339.341        0.163        0.070       19.575       14.805        0.572      340.484       14.535      863.727
04/09/2014  00:29:00      -11.649       -4.543       24.937       24.234       19.376       14.313      587.272      375.412      204.858        0.097        0.058       12.503       15.848        1.607      340.210       14.074      863.745
04/09/2014  00:30:00       41.499       47.298       42.845       35.359       34.321       32.485     1250.290     1177.922     1055.298        0.464        0.174       62.923       22.064        0.123      340.538       14.628      863.761
04/09/2014  00:31:00      106.099       70.512       38.022       29.555       27.460       33.458      873.499      754.041     1119.427        1.021        0.137      127.393       17.520        0.019      340.787       15.049      863.761
04/09/2014  00:32:00       88.798       58.041       13.274       26.725       22.461       26.269      714.241      504.492      690.058        0.667        0.095      106.084        9.958        0.009      340.633       14.789      863.734
04/09/2014  00:33:00       31.649       41.466        2.595       46.054       17.515       15.626     2120.972      306.785      244.186        0.270        0.134       52.164        8.904        0.029      340.620       14.767      863.711
04/09/2014  00:34:00      -30.715       54.729       -3.930       22.077       30.010       17.895      487.388      900.615      320.244        0.283        0.085       62.759       17.775        0.080      340.956       15.334      863.699
04/09/2014  00:35:00      -43.479       69.093      -12.029       29.375       20.058       16.493      862.887      402.339      272.007        0.417        0.077       81.635       10.136        0.015      341.106       15.588      863.706
04/09/2014  00:36:00      -63.712       44.537      -17.214       19.507       12.484       12.649      380.519      155.856      159.985        0.352        0.035       77.735        9.260        0.014      340.959       15.339      863.721
04/09/2014  00:37:00      -41.463       19.090       -8.331       29.218       27.174       17.899      853.677      738.436      320.371        0.203        0.096       45.647       17.905        0.154      340.939       15.307      863.724
04/09/2014  00:38:00      -36.913      108.136      -16.607       27.731       37.717       16.891      769.002     1422.587      285.309        0.790        0.124      114.262       17.942        0.025      341.297       15.911      863.709
04/09/2014  00:39:00        5.556      156.390      -17.157       25.107       27.061       15.143      630.383      732.321      229.298        1.319        0.080      156.489       15.142        0.009      341.509       16.271      863.679
04/09/2014  00:40:00       49.485      175.887      -27.079       20.335       17.545       12.251      413.513      307.818      150.096        1.749        0.044      182.715        6.018        0.001      341.943       17.006      863.663
04/09/2014  00:41:00       31.739       93.230      -18.426       25.699       38.756       17.279      660.448     1502.036      298.553        0.625        0.123       98.484       20.037        0.041      341.904       16.943      863.654
04/09/2014  00:42:00       28.705       23.878       11.348       23.758       19.021       18.251      564.432      361.793      333.102        0.139        0.063       37.338       14.684        0.155      341.269       15.865      863.643
04/09/2014  00:43:00       30.747       25.543       35.216       21.354       23.844       16.205      456.002      568.525      262.612        0.206        0.064       39.972       14.960        0.140      340.957       15.337      863.652
04/09/2014  00:44:00        2.891      -38.754       15.608       15.100       22.604       17.214      228.022      510.948      296.319        0.139        0.052       38.862       10.934        0.079      340.505       14.573      863.702
04/09/2014  00:45:00      -90.333      -12.321       -5.416       46.972       19.859       14.808     2206.346      394.389      219.269        0.558        0.141       91.169       15.792        0.030      340.757       14.999      863.751
04/09/2014  00:46:00     -203.620      -13.292      -16.151       52.871       43.577       31.825     2795.311     1898.975     1012.850        2.380        0.285      204.054       31.313        0.024      340.796       15.061      863.812
04/09/2014  00:47:00     -124.341      -26.245       -1.256       61.035       46.382       21.184     3725.239     2151.334      448.764        1.124        0.316      127.081       21.630        0.029      340.666       14.845      863.848
04/09/2014  00:48:00      -90.434      -22.454       -6.663       38.276       26.527       17.516     1465.058      703.659      306.813        0.560        0.124       93.180       17.924        0.037      340.621       14.768      863.868
04/09/2014  00:49:00     -101.048      -13.260       -4.286       31.691       19.380       15.571     1004.313      375.595      242.452        0.601        0.081      101.914       16.327        0.026      340.558       14.662      863.860
04/09/2014  00:50:00      -47.810       -8.938        7.290       27.643       26.766       15.570      764.128      716.434      242.413        0.207        0.086       48.638        8.910        0.034      340.517       14.592      863.831
04/09/2014  00:51:00      -15.367       -9.623        2.035       45.126       17.359       14.894     2036.344      301.319      221.839        0.145        0.128       18.131       12.280        0.459      340.447       14.474      863.801
04/09/2014  00:52:00       31.628       -8.109        0.937       16.336       11.974       11.354      266.876      143.383      128.916        0.080        0.027       32.650       10.304        0.100      340.037       13.782      863.783
04/09/2014  00:53:00      -22.622      -19.284       -5.234       21.954       22.500        9.993      481.976      506.267       99.863        0.100        0.054       29.726       11.613        0.153      340.474       14.520      863.781
04/09/2014  00:54:00     -110.932      -45.994       -9.494       31.678       17.117       13.788     1003.505      292.988      190.105        0.800        0.074      120.088       11.986        0.010      340.536       14.625      863.787
04/09/2014  00:55:00     -102.870      -50.931      -11.907       23.953       24.032       14.377      573.746      577.535      206.705        0.734        0.068      114.788        3.526        0.001      340.463       14.500      863.791
04/09/2014  00:56:00      -46.031      -20.852        2.771       41.894       18.466       17.459     1755.097      340.980      304.801        0.248        0.120       50.534       16.323        0.104      340.369       14.344      863.783
04/09/2014  00:57:00       23.811      -10.077       11.662       30.900       20.716       16.906      954.791      429.141      285.800        0.124        0.083       25.856       13.705        0.281      340.044       13.793      863.756
04/09/2014  00:58:00       -2.872      -20.016        4.586        8.330       13.547       10.370       69.397      183.509      107.540        0.040        0.018       20.221        7.118        0.124      340.279       14.191      863.739
04/09/2014  00:59:00        5.592      -28.686       -6.309       20.403       12.475       13.217      416.291      155.630      174.680        0.082        0.037       29.226        7.149        0.060      340.522       14.600      863.750
04/09/2014  01:00:00       19.163      -13.887        2.714       17.445       12.658       12.292      304.314      160.221      151.082        0.059        0.031       23.666        7.241        0.094      340.386       14.371      863.768
04/09/2014  01:01:00      -66.985      -15.483       -0.077       37.270       23.687       18.851     1389.051      561.091      355.356        0.352        0.115       68.751       18.667        0.074      340.465       14.506      863.772
04/09/2014  01:02:00     -113.811       37.450      -14.874       30.599       27.175       20.014      936.286      738.470      400.576        0.833        0.104      119.814       11.943        0.010      340.563       14.669      863.766
04/09/2014  01:03:00      -51.474       45.359      -16.608       35.162       17.895        9.800     1236.389      320.214       96.049        0.332        0.083       68.608       11.721        0.029      340.704       14.909      863.747
04/09/2014  01:04:00      -23.169       81.007      -11.565       26.533       23.500       14.975      703.997      552.232      224.249        0.436        0.074       84.255        9.603        0.013      340.963       15.346      863.728
04/09/2014  01:05:00      -15.919       72.996      -11.836       26.754       32.517       16.097      715.780     1057.370      259.109        0.388        0.102       74.712       10.894        0.021      341.120       15.614      863.723
04/09/2014  01:06:00      -24.513       48.271       -8.687       22.040       20.600       14.690      485.746      424.374      215.787        0.207        0.056       54.138       10.933        0.041      341.085       15.554      863.736
04/09/2014  01:07:00      -19.222       23.146        1.418       17.335       25.206       16.694      300.518      635.335      278.676        0.106        0.061       30.087        9.597        0.102      340.913       15.262      863.762
04/09/2014  01:08:00      -30.429      -17.831        0.115       17.192        8.484       11.949      295.553       71.983      142.785        0.088        0.026       35.269       11.756        0.111      340.510       14.582      863.787
04/09/2014  01:09:00      -93.257      -33.549      -13.103       30.417       18.300       14.228      925.206      334.881      202.434        0.573        0.073       99.108       10.345        0.011      340.293       14.216      863.807
04/09/2014  01:10:00     -146.706      -45.545      -15.905       27.056       25.365       11.831      732.001      643.371      139.967        1.268        0.076      153.613        8.336        0.003      340.144       13.961      863.821
04/09/2014  01:11:00     -124.292      -33.075       -4.471       36.289       23.035       18.192     1316.925      530.634      330.941        0.937        0.109      128.618       17.043        0.018      340.091       13.872      863.834
04/09/2014  01:12:00      -97.278      -26.896      -16.289       29.955       20.953       11.637      897.329      439.009      135.409        0.596        0.074      100.928        7.468        0.005      340.135       13.948      863.842
04/09/2014  01:13:00      -57.214      -29.872       -3.232       23.131       17.813        9.332      535.053      317.288       87.081        0.256        0.047       64.543       10.746        0.028      340.213       14.078      863.857
04/09/2014  01:14:00      -35.044      -33.441        0.597       15.985       17.459       14.545      255.520      304.811      211.565        0.156        0.039       48.440       12.823        0.070      340.243       14.129      863.854
04/09/2014  01:15:00      -66.772      -24.635       -0.209       17.626       10.170       11.344      310.688      103.419      128.677        0.280        0.027       71.171       10.738        0.023      340.178       14.017      863.842
04/09/2014  01:16:00      -94.294      -50.569       -4.906       19.652       24.374       16.182      386.217      594.107      261.847        0.636        0.062      106.998       11.834        0.012      340.158       13.985      863.839
04/09/2014  01:17:00     -136.343      -42.001      -10.208       32.851       26.303       19.713     1079.182      691.862      388.593        1.131        0.108      142.666       17.971        0.016      340.098       13.884      863.837
04/09/2014  01:18:00     -131.800      -36.438       -9.114       31.626       31.427       21.374     1000.183      987.679      456.830        1.061        0.122      136.744       18.947        0.019      340.108       13.900      863.834
04/09/2014  01:19:00     -128.188      -54.729       -3.893       28.158       26.241       17.035      792.896      688.586      290.206        1.061        0.089      139.382       18.577        0.018      340.195       14.048      863.831
04/09/2014  01:20:00     -110.209      -45.752        2.237       51.062       29.649       24.831     2607.316      879.085      616.593        0.917        0.205      119.328       27.374        0.053      340.208       14.070      863.826
04/09/2014  01:21:00      -51.698      -30.858        2.368       39.358       26.843       20.161     1549.080      720.535      406.468        0.315        0.134       60.207       22.194        0.136      340.245       14.131      863.828
04/09/2014  01:22:00     -109.031      -18.954       -9.597       30.608       19.142       12.985      936.867      366.401      168.598        0.691        0.074      110.666       14.254        0.017      340.284       14.199      863.826
04/09/2014  01:23:00      -46.658      -27.219        4.955       26.619       23.415       16.121      708.558      548.265      259.880        0.223        0.076       54.017       15.193        0.079      340.224       14.097      863.826
04/09/2014  01:24:00       13.001       -8.703       22.654       18.072       18.089       14.075      326.582      327.218      198.104        0.080        0.043       15.645        6.927        0.196      339.807       13.393      863.814
04/09/2014  01:25:00       20.377        7.193       13.552       22.575       13.616       17.777      509.612      185.383      316.027        0.083        0.051       21.609       12.319        0.325      340.000       13.721      863.791
04/09/2014  01:26:00       30.390      -12.158        1.061       27.325       20.108       16.837      746.679      404.349      283.497        0.125        0.072       32.731       16.445        0.252      340.342       14.299      863.780
04/09/2014  01:27:00       50.095      -27.021      -11.616       18.315       16.368       20.421      335.456      267.923      417.027        0.220        0.051       56.918        5.171        0.008      339.862       13.487      863.767
04/09/2014  01:28:00       27.586      -25.990        8.979       26.437       13.143       12.058      698.930      172.738      145.387        0.127        0.051       37.901       12.936        0.116      340.155       13.980      863.756
04/09/2014  01:29:00      -23.505      -29.270        0.014       13.752       16.947       10.319      189.108      287.209      106.489        0.100        0.029       37.540        8.069        0.046      340.313       14.248      863.756
04/09/2014  01:30:00      -36.271      -26.553        8.512       15.881       14.135       11.922      252.215      199.798      142.135        0.134        0.030       44.952        7.519        0.028      340.264       14.166      863.772
04/09/2014  01:31:00      -45.200       -7.394       -5.925       13.773       14.307        8.059      189.690      204.685       64.954        0.130        0.023       45.801        7.515        0.027      340.275       14.183      863.787
04/09/2014  01:32:00      -36.674       33.350      -23.585       47.804       33.430       18.562     2285.210     1117.574      344.547        0.338        0.187       49.571       21.525        0.189      340.574       14.690      863.790
04/09/2014  01:33:00      -81.106        4.322       -9.064       49.669       34.396       26.761     2467.032     1183.055      716.130        0.552        0.218       81.221       24.051        0.088      340.116       13.914      863.812
04/09/2014  01:34:00      -97.796       -8.543      -10.120       40.420       36.758       21.597     1633.805     1351.159      466.445        0.659        0.173       98.169       16.624        0.029      340.101       13.890      863.832
04/09/2014  01:35:00     -123.236        3.300      -10.652       37.364       42.097       21.889     1396.091     1772.144      479.107        0.948        0.182      123.280       20.888        0.029      340.098       13.885      863.856
04/09/2014  01:36:00     -106.076        2.123       -7.872       32.061       28.211       19.315     1027.923      795.850      373.057        0.676        0.110      106.097       15.932        0.023      340.200       14.056      863.873
04/09/2014  01:37:00      -64.069       -2.644       -7.970       31.207       29.680       21.204      973.880      880.884      449.593        0.324        0.115       64.123       16.399        0.065      340.266       14.167      863.871
04/09/2014  01:38:00      -36.680       -5.188       -3.879       47.861       22.699       26.494     2290.629      515.263      701.912        0.245        0.175       37.045       29.743        0.645      340.436       14.455      863.864
04/09/2014  01:39:00      -47.316      -11.934       -0.410       43.289       30.652       27.278     1873.900      939.519      744.091        0.297        0.178       48.798       27.574        0.319      340.589       14.715      863.870
04/09/2014  01:40:00      -59.806       -7.441        3.558       37.094       31.539       22.695     1375.954      994.699      515.055        0.326        0.144       60.268       21.780        0.131      340.407       14.406      863.859
04/09/2014  01:41:00      -78.749      -17.276       -3.830       22.954       31.811       19.469      526.864     1011.965      379.041        0.422        0.096       80.622       13.694        0.029      340.220       14.091      863.863
04/09/2014  01:42:00      -87.736      -21.113       -2.130       43.510       36.375       26.844     1893.084     1323.162      720.578        0.604        0.197       90.241       23.735        0.069      339.944       13.624      863.869
04/09/2014  01:43:00     -121.914        9.386       -2.283       59.281       34.267       30.199     3514.266     1174.224      912.008        1.028        0.280      122.275       33.656        0.076      340.263       14.162      863.871
04/09/2014  01:44:00     -119.131       15.986      -13.733       50.365       27.452       26.012     2536.648      753.631      676.630        0.930        0.198      120.199       21.100        0.031      340.337       14.289      863.858
04/09/2014  01:45:00     -114.627       11.280      -14.972       46.149       31.436       20.165     2129.691      988.229      406.608        0.851        0.176      115.180       20.430        0.031      340.256       14.151      863.842
04/09/2014  01:46:00      -80.099        3.067      -18.845       39.745       26.608       20.692     1579.634      707.978      428.177        0.475        0.136       80.157       12.408        0.024      340.644       14.807      863.829
04/09/2014  01:47:00      -87.781       -3.298       -6.257       43.893       37.164       25.053     1926.617     1381.196      627.674        0.584        0.197       87.843       25.179        0.082      340.436       14.455      863.831
04/09/2014  01:48:00      -89.167       -5.990       -9.519       51.196       38.427       22.295     2621.006     1476.672      497.059        0.634        0.230       89.368       24.027        0.072      340.411       14.413      863.830
04/09/2014  01:49:00     -125.067      -17.598      -18.548       29.714       43.968       20.238      882.912     1933.207      409.582        0.976        0.161      126.299       16.245        0.017      340.414       14.418      863.822
04/09/2014  01:50:00      -92.478        2.403       -5.318       52.786       31.705       24.823     2786.395     1005.189      616.170        0.650        0.220       92.509       24.633        0.071      340.271       14.177      863.812
04/09/2014  01:51:00     -124.805       10.105       -8.214       41.509       43.853       31.691     1723.014     1923.123     1004.337        1.020        0.233      125.214       26.753        0.046      340.203       14.062      863.805
04/09/2014  01:52:00     -149.245        5.215      -11.427       42.030       42.946       29.670     1766.519     1844.360      880.319        1.346        0.225      149.336       25.198        0.028      340.272       14.177      863.811
04/09/2014  01:53:00     -105.417        3.224       -7.852       39.744       28.401       23.281     1579.578      806.613      541.992        0.706        0.146      105.466       17.610        0.028      340.403       14.398      863.808
04/09/2014  01:54:00     -108.185       19.275       -6.059       49.782       33.160       27.307     2478.216     1099.572      745.688        0.822        0.216      109.889       23.436        0.045      340.393       14.384      863.812
04/09/2014  01:55:00     -110.690       30.598       -7.063       44.068       30.587       22.310     1941.973      935.572      497.738        0.831        0.169      114.841       20.956        0.033      340.337       14.288      863.826
04/09/2014  01:56:00     -137.341       17.459       -7.560       37.537       28.281       23.110     1409.038      799.825      534.053        1.098        0.137      138.446       18.247        0.017      340.394       14.384      863.836
04/09/2014  01:57:00     -140.751       -3.657      -10.721       39.410       49.052       28.398     1553.185     2406.089      806.419        1.235        0.238      140.799       23.825        0.029      340.178       14.018      863.839
04/09/2014  01:58:00     -203.242       38.326      -17.958       35.447       29.999       21.822     1256.456      899.941      476.190        2.287        0.132      206.824       14.153        0.005      340.247       14.135      863.852
04/09/2014  01:59:00     -191.737       17.047      -15.474       40.298       47.937       24.938     1623.949     2297.959      621.920        2.092        0.227      192.493       20.318        0.011      340.022       13.754      863.848
04/09/2014  02:00:00     -237.316       18.245      -36.935       33.868       35.954       23.140     1147.061     1292.726      535.438        3.050        0.149      238.017       16.446        0.005      339.924       13.586      863.842
04/09/2014  02:01:00     -165.857       15.810      -15.357       39.166       54.097       30.586     1533.952     2926.449      935.493        1.669        0.270      166.609       19.345        0.013      339.888       13.528      863.839
04/09/2014  02:02:00     -213.289       62.909      -20.200       39.405       41.566       29.211     1552.732     1727.770      853.287        2.700        0.207      222.373       16.684        0.006      339.817       13.406      863.839
04/09/2014  02:03:00     -185.639       31.826      -34.251       58.692       62.441       32.870     3444.692     3898.929     1080.461        2.253        0.421      188.348       24.482        0.017      339.835       13.439      863.837
04/09/2014  02:04:00     -139.512      -10.427      -11.423       96.099       41.861       42.956     9235.014     1752.344     1845.249        1.627        0.642      139.901       53.669        0.147      339.975       13.676      863.837
04/09/2014  02:05:00     -117.963       17.272       -8.987       43.640       35.709       25.021     1904.460     1275.145      626.073        0.905        0.190      119.221       19.219        0.026      340.028       13.765      863.828
04/09/2014  02:06:00      -67.764      -15.341        0.511       39.799       35.062       32.233     1583.989     1229.318     1038.958        0.434        0.193       69.479       27.588        0.158      340.107       13.900      863.815
04/09/2014  02:07:00      -79.534        9.006       -7.249       31.717       34.680       16.759     1006.000     1202.735      280.855        0.447        0.124       80.042       17.177        0.046      340.520       14.599      863.796
04/09/2014  02:08:00     -102.000      -25.819       -7.969       38.782       35.693       19.419     1504.057     1274.014      377.084        0.714        0.158      105.217       21.134        0.040      340.091       13.874      863.767
04/09/2014  02:09:00      -84.859      -54.013       -4.283       24.071       21.611       17.705      579.419      467.053      313.452        0.575        0.068      100.591        7.330        0.005      339.898       13.548      863.777
04/09/2014  02:10:00      -72.740      -52.677        0.868       64.061       28.034       20.559     4103.753      785.920      422.689        0.669        0.266       89.810       25.809        0.083      339.760       13.313      863.788
04/09/2014  02:11:00     -160.714      -55.045       -9.975       41.545       40.419       17.797     1725.950     1633.670      316.746        1.632        0.184      169.879       18.033        0.011      339.526       12.919      863.813
04/09/2014  02:12:00      -40.405      -93.061       -3.944       25.354       26.525       15.069      642.838      703.565      227.081        0.594        0.079      101.454        8.674        0.007      339.915       13.577      863.825
04/09/2014  02:13:00      -29.501      -73.390       -5.807       11.912       17.174       12.758      141.907      294.935      162.763        0.344        0.030       79.097        9.470        0.014      340.465       14.505      863.810
04/09/2014  02:14:00        7.145      -88.989       -6.088       18.927       21.982       11.300      358.223      483.207      127.685        0.449        0.048       89.276        4.967        0.003      340.357       14.323      863.810
04/09/2014  02:15:00        8.244      -11.093       -5.078       18.461       27.940       27.270      340.791      780.650      743.655        0.104        0.093       13.821       23.153        2.806      340.119       13.920      863.813
04/09/2014  02:16:00       12.514       25.319       40.770       21.039       17.732       12.300      442.650      314.415      151.280        0.168        0.045       28.243        9.237        0.107      339.818       13.412      863.829
04/09/2014  02:17:00       59.859       50.788       27.870       24.304       31.368       24.064      590.677      983.936      579.095        0.455        0.108       78.501       15.307        0.038      339.899       13.549      863.843
04/09/2014  02:18:00       35.680       45.351       44.775       37.796       29.890       29.832     1428.500      893.411      889.973        0.427        0.161       57.705       24.106        0.175      339.877       13.511      863.838
04/09/2014  02:19:00       73.327       48.651       56.553       55.330       35.362       35.823     3061.383     1250.449     1283.285        0.827        0.280       87.999       22.351        0.065      339.853       13.470      863.829
04/09/2014  02:20:00       16.672       28.803       52.367       34.067       50.988       36.035     1160.556     2599.762     1298.508        0.445        0.253       33.280       37.012        1.237      339.854       13.473      863.829
04/09/2014  02:21:00      -66.347      -34.601       -9.359       44.840       38.841       17.900     2010.588     1508.604      320.404        0.476        0.192       74.828       19.420        0.067      339.844       13.456      863.850
04/09/2014  02:22:00      -83.278      -24.923        0.774       41.201       28.903       20.154     1697.510      835.372      406.198        0.525        0.147       86.927       20.668        0.057      339.995       13.710      863.857
04/09/2014  02:23:00       -1.485      -28.186        9.469       19.902       27.170       19.635      396.095      738.201      385.552        0.120        0.076       28.226       18.271        0.419      339.983       13.690      863.838
04/09/2014  02:24:00       -5.199       38.817       76.250       23.525       44.667       40.763      553.435     1995.184     1661.582        0.578        0.211       39.163       38.797        0.981      340.220       14.090      863.803
04/09/2014  02:25:00       29.103      -91.405       40.310       70.310       97.211       56.300     4943.534     9449.937     3169.728        1.419        0.878       95.926       59.870        0.390      340.125       13.929      863.774
04/09/2014  02:26:00      -68.992      -55.889      -21.291       53.249       49.008       31.640     2835.407     2401.735     1001.118        0.729        0.312       88.789       10.086        0.013      340.085       13.862      863.799
04/09/2014  02:27:00      -74.267      -74.858        8.761       67.041       42.526       33.006     4494.523     1808.428     1089.398        0.929        0.370      105.448       27.549        0.068      339.879       13.515      863.809
04/09/2014  02:28:00      -43.176      -58.796       10.370       50.081       33.487       28.544     2508.147     1121.380      814.762        0.494        0.222       72.946       31.344        0.185      340.008       13.733      863.829
04/09/2014  02:29:00        7.228      -25.231        8.066       37.172       40.099       20.831     1381.749     1607.970      433.947        0.209        0.171       26.245       24.282        0.856      340.068       13.833      863.824
04/09/2014  02:30:00      -18.770      -31.104       -4.242       20.986       23.483       12.619      440.404      551.434      159.248        0.124        0.058       36.328        8.515        0.055      340.238       14.120      863.824
04/09/2014  02:31:00      -31.992      -17.738        3.639       22.310       13.299       13.329      497.748      176.868      177.668        0.110        0.043       36.581       11.988        0.107      340.308       14.237      863.821
04/09/2014  02:32:00      -92.249      -31.299       -1.656       32.457       30.767       19.687     1053.483      946.601      387.592        0.594        0.119       97.415       15.694        0.026      340.290       14.208      863.801
04/09/2014  02:33:00      -85.235      -52.479       -3.365       32.352       29.181       20.668     1046.648      851.503      427.172        0.618        0.116      100.095       11.448        0.013      340.187       14.034      863.800
04/09/2014  02:34:00      -26.521        3.956        9.701       28.579       24.689       12.700      816.785      609.531      161.286        0.120        0.079       26.814       14.959        0.311      340.050       13.803      863.781
04/09/2014  02:35:00      -82.653       39.983      -12.185       21.836        8.128        9.414      476.796       66.070       88.630        0.460        0.032       91.816        6.653        0.005      340.257       14.153      863.784
04/09/2014  02:36:00      -54.048        9.229       -8.087       16.938       27.701        8.427      286.898      767.350       71.018        0.210        0.056       54.830        3.905        0.005      340.479       14.529      863.786
04/09/2014  02:37:00       -8.268      -26.430        2.354       22.300       16.336       11.099      497.282      266.857      123.178        0.083        0.044       27.693        4.678        0.029      340.283       14.198      863.802
04/09/2014  02:38:00      -54.417       -8.308       -4.447       34.518       19.545       15.129     1191.515      382.001      228.876        0.243        0.090       55.048       17.985        0.107      340.208       14.069      863.810
04/09/2014  02:39:00      -33.325       12.597       -8.443       14.393       24.884       16.201      207.172      619.229      262.461        0.121        0.054       35.626       14.756        0.172      340.258       14.153      863.808
04/09/2014  02:40:00       37.689       23.753       -6.411       18.744       17.056       10.069      351.343      290.911      101.381        0.138        0.037       44.549       11.058        0.062      340.509       14.578      863.803
04/09/2014  02:41:00       37.352      -21.101        9.409       31.144       16.363       19.085      969.962      267.747      364.236        0.177        0.080       42.900       12.278        0.082      340.591       14.716      863.823
04/09/2014  02:42:00        6.343      -23.466       17.386       21.065       31.157       26.653      443.723      970.769      710.367        0.151        0.106       24.308       20.652        0.722      340.637       14.794      863.845
04/09/2014  02:43:00       -7.981     -113.774      -17.492       76.426       58.155       40.579     5840.930     3382.031     1646.652        1.209        0.543      114.054       38.261        0.113      341.042       15.480      863.855
04/09/2014  02:44:00       14.020        3.256       47.533       61.281       59.638       38.730     3755.408     3556.639     1500.013        0.564        0.441       14.393       35.880        6.214      340.570       14.682      863.817
04/09/2014  02:45:00        1.418      -69.984        4.513       51.415       63.480       24.325     2643.471     4029.728      591.714        0.609        0.363       69.998       11.751        0.028      340.945       15.315      863.816
04/09/2014  02:46:00       23.281       18.721       14.526       24.887       37.907       27.916      619.370     1436.948      779.307        0.197        0.142       29.874       15.854        0.282      340.479       14.528      863.813
04/09/2014  02:47:00       25.279       12.470        0.527       29.214       19.193       13.868      853.465      368.372      192.321        0.110        0.071       28.187       13.567        0.232      340.329       14.276      863.815
04/09/2014  02:48:00       95.526       96.809        0.554       38.681       21.510       17.796     1496.222      462.674      316.715        1.039        0.114      136.004       12.479        0.008      340.243       14.131      863.812
04/09/2014  02:49:00      124.225       52.259       33.852       52.300       58.323       39.885     2735.260     3401.591     1590.797        1.352        0.386      134.770       28.753        0.046      340.198       14.051      863.802
04/09/2014  02:50:00       37.969       -3.379       -0.429       26.486       21.472       13.216      701.495      461.058      174.652        0.139        0.067       38.119        9.469        0.062      340.142       13.961      863.850
04/09/2014  02:51:00       78.788       50.924       37.159       33.090       27.304       24.117     1094.930      745.528      581.617        0.630        0.121       93.813       22.134        0.056      340.088       13.868      863.860
04/09/2014  02:52:00      -11.449       26.153       57.303       15.368       27.596       22.656      236.165      761.551      513.311        0.280        0.076       28.549       20.580        0.520      340.043       13.793      863.849
04/09/2014  02:53:00       14.885       97.084      -20.308       17.757       31.041       16.573      315.318      963.566      274.654        0.581        0.078       98.218       20.088        0.042      339.774       13.338      863.841
04/09/2014  02:54:00       10.082       25.517       -5.817       26.510       20.058       16.769      702.801      402.314      281.197        0.109        0.069       27.437       10.011        0.133      339.724       13.255      863.840
04/09/2014  02:55:00       53.759       94.253      -13.947       34.890       38.983       17.028     1217.340     1519.701      289.968        0.750        0.151      108.507       15.901        0.021      339.987       13.698      863.834
04/09/2014  02:56:00      131.823       94.776       22.527       27.589       32.569       27.747      761.149     1060.714      769.924        1.473        0.130      162.357       14.292        0.008      340.132       13.942      863.810
04/09/2014  02:57:00       68.418       37.395        5.682       52.202       30.489       22.234     2725.072      929.608      494.338        0.513        0.207       77.971       20.908        0.072      339.856       13.477      863.789
04/09/2014  02:58:00       -8.648       44.309       -3.446       25.887       26.921       13.285      670.157      724.767      176.482        0.181        0.079       45.145       11.818        0.069      339.947       13.629      863.815
04/09/2014  02:59:00       41.290       37.499        0.835       20.904       18.166       13.177      436.958      330.012      173.634        0.203        0.047       55.776       11.465        0.042      340.013       13.742      863.828
04/09/2014  03:00:00       31.754       30.712       -4.516       25.259       24.293       14.134      638.012      590.144      199.768        0.170        0.071       44.177       10.651        0.058      339.985       13.694      863.835
04/09/2014  03:01:00       -3.321       25.143      -16.350       24.956       23.110        9.002      622.799      534.058       81.043        0.107        0.062       25.361        9.343        0.136      340.244       14.131      863.832
04/09/2014  03:02:00       22.629       63.580        5.439       45.107       22.499       37.480     2034.675      506.184     1404.783        0.426        0.197       67.487       26.459        0.154      340.441       14.465      863.791
04/09/2014  03:03:00       46.123       10.194      -10.488       28.257       27.454       22.420      798.465      753.701      502.651        0.220        0.103       47.236       15.949        0.114      340.325       14.267      863.789
04/09/2014  03:04:00       26.645        0.641       25.862       27.456       28.137       23.351      753.827      791.692      545.289        0.173        0.105       26.653       20.549        0.594      339.914       13.573      863.780
04/09/2014  03:05:00      -16.993       23.185       13.104       28.447       30.575       28.849      809.221      934.848      832.250        0.179        0.129       28.745       15.511        0.291      340.465       14.504      863.777
04/09/2014  03:06:00      -61.757       63.816       14.309       58.891       88.497       32.367     3468.134     7831.700     1047.644        1.022        0.617       88.806       28.665        0.104      340.865       15.180      863.760
04/09/2014  03:07:00      -14.064      -23.216       10.404       58.271       63.899       26.098     3395.493     4083.093      681.102        0.450        0.408       27.144       37.831        1.942      340.779       15.036      863.788
04/09/2014  03:08:00      -22.942      -80.594        4.756       44.504       49.974       24.200     1980.630     2497.416      585.632        0.605        0.253       83.796       29.144        0.121      340.875       15.198      863.830
04/09/2014  03:09:00       17.341       -5.568        5.985       60.414       36.518       32.215     3649.846     1333.556     1037.782        0.319        0.301       18.213       19.383        1.133      340.473       14.520      863.817
04/09/2014  03:10:00       53.983       -0.861       31.072       40.744       49.872       39.137     1660.098     2487.178     1531.688        0.478        0.284       53.990       35.437        0.431      339.851       13.469      863.768
04/09/2014  03:11:00       -8.087       -8.217        7.217       63.031       68.078       33.853     3972.859     4634.629     1146.056        0.497        0.488       11.529       18.233        2.501      339.876       13.511      863.748
04/09/2014  03:12:00       32.688      -61.006        1.829       54.601       46.906       35.833     2981.279     2200.193     1283.972        0.563        0.323       69.212       31.107        0.202      339.793       13.369      863.791
04/09/2014  03:13:00       81.873      -92.222       -4.210       38.988       30.682       27.545     1520.081      941.365      758.728        0.922        0.161      123.321       21.687        0.031      339.881       13.519      863.809
04/09/2014  03:14:00       50.803      -63.582       -3.262       36.363       27.894       22.795     1322.245      778.073      519.595        0.463        0.131       81.385       12.014        0.022      339.592       13.032      863.815
04/09/2014  03:15:00       15.711      -45.992       -3.053       28.041       29.176       20.153      786.304      851.230      406.125        0.221        0.102       48.602       16.735        0.119      339.600       13.044      863.793
04/09/2014  03:16:00       23.267      -46.317       14.875       33.087       38.220       33.250     1094.717     1460.750     1105.564        0.328        0.183       51.833       24.075        0.216      339.826       13.426      863.779
04/09/2014  03:17:00       44.792     -106.883      -11.350       29.230       40.583       27.096      854.412     1646.978      734.193        0.840        0.162      115.890       15.542        0.018      340.044       13.794      863.795
04/09/2014  03:18:00       40.662      -93.175      -18.611       38.710       58.299       33.375     1498.474     3398.777     1113.884        0.835        0.301      101.661       18.517        0.033      340.119       13.919      863.817
04/09/2014  03:19:00       30.748      -45.112       -1.556       39.164       55.815       45.628     1533.843     3115.314     2081.930        0.486        0.337       54.594       37.725        0.478      339.825       13.424      863.798
04/09/2014  03:20:00       69.357      -94.015      -39.368       53.168       60.022       40.314     2826.788     3602.599     1625.218        1.163        0.403      116.830       34.456        0.087      339.935       13.609      863.803
04/09/2014  03:21:00       79.150      -90.869      -42.627       56.171       68.392       46.826     3155.201     4677.514     2192.658        1.318        0.501      120.507       45.596        0.143      339.949       13.633      863.804
04/09/2014  03:22:00       10.378      -52.539       -3.739       48.442       54.936       39.347     2346.601     3017.984     1548.151        0.490        0.346       53.554       26.119        0.238      339.704       13.221      863.790
04/09/2014  03:23:00      -10.717      -59.828        5.083       52.103       54.617       26.286     2714.763     2983.029      690.963        0.505        0.319       60.780       24.428        0.162      340.021       13.754      863.801
04/09/2014  03:24:00      -23.580       -0.728        0.255       22.756       15.358       15.129      517.847      235.878      228.883        0.077        0.049       23.591       13.775        0.341      339.924       13.590      863.818
04/09/2014  03:25:00      -49.265       -9.998       -0.942       27.116       21.155       15.487      735.301      447.555      239.843        0.198        0.071       50.270       13.800        0.075      339.992       13.705      863.806
04/09/2014  03:26:00      -75.386      -35.575       -3.004       26.912       23.007       14.607      724.241      529.333      213.375        0.421        0.073       83.359       11.583        0.019      339.945       13.626      863.791
04/09/2014  03:27:00       38.634      -22.074        8.515       35.948       19.898       17.245     1292.243      395.944      297.382        0.202        0.099       44.495       11.893        0.071      339.546       12.953      863.766
04/09/2014  03:28:00       43.059      -60.804      -10.241       47.080       36.551       23.279     2216.488     1335.969      541.911        0.487        0.205       74.506       12.922        0.030      339.942       13.621      863.763
04/09/2014  03:29:00       -0.069      -18.378        9.966       18.682       23.373       19.606      349.034      546.278      384.380        0.086        0.064       18.378       14.815        0.650      339.949       13.632      863.774
04/09/2014  03:30:00      -25.060      -25.074       12.857       23.308       32.306       21.428      543.258     1043.663      459.172        0.173        0.102       35.450       10.988        0.096      340.005       13.728      863.788
04/09/2014  03:31:00      -10.272       -3.602        5.892       35.813       34.017       25.494     1282.569     1157.156      649.929        0.162        0.154       10.885       14.176        1.696      339.899       13.549      863.806
04/09/2014  03:32:00      -13.447      -20.620      -18.015       29.677       19.808       16.613      880.728      392.364      276.008        0.124        0.077       24.617        9.810        0.159      339.824       13.422      863.809
04/09/2014  03:33:00      -10.410        5.353        5.083       31.012       22.861       25.975      961.722      522.612      674.703        0.116        0.108       11.706       25.875        4.886      339.849       13.465      863.797
04/09/2014  03:34:00      -24.077       -9.473       15.107       21.375       26.900       11.118      456.906      723.593      123.605        0.110        0.065       25.873        7.761        0.090      339.765       13.323      863.800
04/09/2014  03:35:00        1.305       -2.067       -1.429       37.283       19.810       16.870     1390.013      392.423      284.583        0.104        0.103        2.444       13.925       32.451      339.767       13.327      863.807
04/09/2014  03:36:00       22.113      -17.878        6.052       34.380       32.706       33.319     1182.005     1069.651     1110.173        0.210        0.168       28.436       26.951        0.898      339.351       12.624      863.788
04/09/2014  03:37:00       17.907      -10.586       12.702       31.913       25.532       19.979     1018.436      651.890      399.177        0.133        0.103       20.802       22.293        1.149      339.396       12.700      863.816
04/09/2014  03:38:00       35.715       -4.907       22.785       44.565       24.804       19.590     1986.032      615.255      383.754        0.240        0.149       36.050       16.909        0.220      339.523       12.915      863.836
04/09/2014  03:39:00       81.254      -28.953        2.547       40.125       41.990       31.758     1609.994     1763.164     1008.594        0.591        0.219       86.259       23.406        0.074      339.624       13.085      863.841
04/09/2014  03:40:00       24.300        6.604       30.234       39.275       36.219       27.445     1542.544     1311.795      753.248        0.258        0.180       25.181       27.169        1.164      339.460       12.809      863.826
04/09/2014  03:41:00       37.705      -26.531       11.421       38.828       53.169       37.568     1507.638     2826.922     1411.353        0.400        0.287       46.104       39.235        0.724      339.421       12.743      863.835
04/09/2014  03:42:00       25.465        3.791       27.120       28.326       37.234       27.636      802.364     1386.355      763.755        0.217        0.148       25.745       25.190        0.957      339.380       12.673      863.825
04/09/2014  03:43:00       16.505       -4.478       23.421       26.206       29.672       23.088      686.744      880.433      533.041        0.147        0.105       17.102       17.460        1.042      339.326       12.583      863.805
04/09/2014  03:44:00        6.573      -48.525       -4.041       31.790       24.121       19.971     1010.582      581.800      398.856        0.220        0.100       48.968       10.816        0.049      339.938       13.615      863.815
04/09/2014  03:45:00      -24.006       -4.522       14.299       28.645       36.558       24.804      820.523     1336.495      615.257        0.179        0.139       24.428       25.494        1.089      339.794       13.371      863.829
04/09/2014  03:46:00      -10.250       -0.676        0.935       20.496       21.014       14.532      420.082      441.583      211.166        0.059        0.054       10.273       10.796        1.104      339.787       13.360      863.838
04/09/2014  03:47:00       13.346       19.142       19.456       25.408       19.469       16.258      645.565      379.043      264.332        0.111        0.064       23.335       14.023        0.361      339.571       12.995      863.822
04/09/2014  03:48:00       35.864       44.886        6.832       17.598       18.912       19.633      309.680      357.654      385.467        0.220        0.053       57.454       11.397        0.039      339.507       12.888      863.786
04/09/2014  03:49:00       37.859       20.063        8.083       22.554       16.710       14.099      508.667      279.240      198.777        0.144        0.049       42.847       10.659        0.062      339.533       12.932      863.787
04/09/2014  03:50:00       23.770       36.498        7.013       17.860       18.169       20.686      318.964      330.112      427.907        0.151        0.054       43.556       11.020        0.064      339.339       12.604      863.812
04/09/2014  03:51:00       -1.678       22.113       -7.312       15.969       11.092       18.884      255.000      123.032      356.624        0.064        0.037       22.176        4.522        0.042      339.356       12.633      863.844
04/09/2014  03:52:00       33.620       17.604        7.720       12.638       14.390       20.663      159.724      207.071      426.966        0.115        0.040       37.950        6.337        0.028      339.329       12.588      863.862
04/09/2014  03:53:00       29.409       36.093       35.635       31.316       16.715       17.806      980.699      279.391      317.043        0.251        0.079       46.558       17.877        0.147      339.029       12.084      863.856
04/09/2014  03:54:00       26.428       28.691       35.258       28.290       20.549       19.533      800.307      422.267      381.550        0.218        0.080       39.008       19.620        0.253      339.037       12.097      863.851
04/09/2014  03:55:00       81.203       26.206       17.881       48.210       32.091       28.551     2324.251     1029.815      815.171        0.588        0.208       85.327       24.547        0.083      339.361       12.642      863.847
04/09/2014  03:56:00      103.736       40.414       17.232       44.746       31.192       24.980     2002.233      972.972      624.002        0.814        0.180      111.330       20.589        0.034      339.438       12.771      863.836
04/09/2014  03:57:00       32.097       36.343       48.513       38.547       22.579       18.203     1485.863      509.803      331.356        0.352        0.116       48.488        5.696        0.014      339.358       12.636      863.842
04/09/2014  03:58:00       52.133       58.899       64.608       30.444       26.984       21.907      926.826      728.115      479.927        0.625        0.107       78.657        9.439        0.014      339.319       12.570      863.846
04/09/2014  03:59:00       36.933       66.729       71.638       31.130       28.915       20.680      969.047      836.085      427.657        0.659        0.112       76.268       20.421        0.072      339.320       12.571      863.869
04/09/2014  04:00:00       63.715       66.660       67.335       37.685       40.333       32.004     1420.175     1626.749     1024.267        0.855        0.204       92.213       20.496        0.049      339.233       12.425      863.859
04/09/2014  04:01:00       27.369       60.574       65.910       35.494       33.502       26.831     1259.812     1122.401      719.913        0.593        0.155       66.470       24.237        0.133      339.221       12.405      863.854
04/09/2014  04:02:00       49.454       27.858       17.533       26.366       24.155       21.536      695.146      583.464      463.793        0.264        0.087       56.761       16.574        0.085      339.168       12.317      863.867
04/09/2014  04:03:00       30.680       19.721       15.968       28.768       21.723       13.191      827.615      471.897      174.010        0.153        0.074       36.472       13.791        0.143      339.110       12.218      863.881
04/09/2014  04:04:00       21.317       15.767        2.177       18.327       12.661       12.468      335.888      160.309      155.441        0.068        0.033       26.514        4.693        0.031      339.043       12.107      863.870
04/09/2014  04:05:00       40.495       23.215        7.634       23.789       23.303       14.810      565.916      543.033      219.350        0.178        0.066       46.677       10.160        0.047      339.018       12.064      863.851
04/09/2014  04:06:00       51.071       47.851       -3.190       20.966       17.311       15.204      439.568      299.662      231.151        0.294        0.049       69.986        9.061        0.017      339.044       12.109      863.842
04/09/2014  04:07:00       20.105       50.211       -0.046       18.023       30.389       19.904      324.829      923.514      396.161        0.228        0.082       54.086       13.332        0.061      339.056       12.128      863.839
04/09/2014  04:08:00        5.580      109.302      -16.346       16.303       22.057        9.899      265.804      486.510       97.992        0.655        0.043      109.444        9.373        0.007      339.252       12.459      863.844
04/09/2014  04:09:00      -19.155      115.922      -20.786       12.860       20.524       10.460      165.391      421.217      109.418        0.747        0.035      117.493        8.853        0.006      339.453       12.797      863.850
04/09/2014  04:10:00        1.947       89.222       -6.519       16.097       15.594       11.092      259.123      243.181      123.022        0.432        0.031       89.243        8.578        0.009      339.548       12.956      863.848
04/09/2014  04:11:00       12.688       72.671       -5.532       15.042       18.526       10.421      226.255      343.222      108.601        0.308        0.034       73.770        7.768        0.011      339.548       12.956      863.835
04/09/2014  04:12:00        9.649       74.611       -3.931       15.361       13.829        8.953      235.949      191.245       80.164        0.309        0.025       75.232        5.486        0.005      339.516       12.902      863.826
04/09/2014  04:13:00       48.880       60.762       -2.140       28.876       20.331       16.892      833.809      413.357      285.324        0.381        0.077       77.983       13.444        0.030      339.305       12.548      863.818
04/09/2014  04:14:00       70.474       47.860       19.430       33.294       17.685       19.311     1108.462      312.764      372.917        0.471        0.090       85.189       20.704        0.059      339.149       12.284      863.818
04/09/2014  04:15:00       39.061       23.275        6.969       20.158       14.555       18.527      406.357      211.838      343.232        0.154        0.048       45.469        6.980        0.024      339.097       12.197      863.826
04/09/2014  04:16:00       29.780       66.591       -5.236       20.967       20.816       13.298      439.635      433.321      176.838        0.320        0.052       72.946       10.821        0.022      339.398       12.707      863.825
04/09/2014  04:17:00       13.684       85.711      -16.416       13.298       15.554        6.604      176.824      241.921       43.613        0.413        0.023       86.796        5.113        0.003      339.577       13.006      863.826
04/09/2014  04:18:00       28.996      116.058      -18.557       19.211       19.258       11.962      369.073      370.862      143.080        0.777        0.044      119.626        9.244        0.006      339.568       12.991      863.811
04/09/2014  04:19:00       39.546      147.962      -25.070       18.475       32.026       18.725      341.334     1025.647      350.632        1.290        0.086      153.156       15.927        0.011      339.494       12.865      863.774
04/09/2014  04:20:00       30.244      111.849      -15.496       32.297       43.694       26.785     1043.075     1909.198      717.411        0.867        0.183      115.866       22.114        0.036      339.429       12.756      863.733
04/09/2014  04:21:00       17.005      146.916      -24.792       24.414       23.373       12.546      596.051      546.312      157.413        1.189        0.065      147.897        8.199        0.003      339.610       13.061      863.744
04/09/2014  04:22:00       26.785      104.278      -17.292       20.199       20.203       12.951      407.979      408.169      167.739        0.644        0.049      107.664       12.235        0.013      339.665       13.154      863.786
04/09/2014  04:23:00       18.105       27.545       -3.038       23.171       31.584       16.507      536.904      997.558      272.487        0.145        0.090       32.962       16.219        0.242      339.543       12.948      863.804
04/09/2014  04:24:00       19.019       23.859        3.592       14.166       15.258       11.731      200.679      232.806      137.612        0.076        0.029       30.512        7.456        0.060      339.524       12.915      863.801
04/09/2014  04:25:00        1.495       23.021       -2.499        7.648        9.789        6.907       58.499       95.832       47.712        0.037        0.010       23.070        2.506        0.012      339.600       13.045      863.822
04/09/2014  04:26:00       26.824       46.828        2.287        9.392       11.892        9.252       88.219      141.408       85.601        0.162        0.016       53.966        7.863        0.021      339.682       13.182      863.819
04/09/2014  04:27:00       30.025       43.499       -5.972       17.493       25.450       16.011      306.018      647.706      256.352        0.202        0.061       52.855       16.166        0.094      339.669       13.161      863.775
04/09/2014  04:28:00       20.546       42.315       -4.159       16.437       19.805       14.010      270.160      392.219      196.277        0.154        0.043       47.039        7.687        0.027      339.621       13.083      863.758
04/09/2014  04:29:00        3.876       42.636      -10.708       16.229       24.265        9.843      263.385      588.802       96.886        0.145        0.047       42.812        8.631        0.041      339.705       13.222      863.755
04/09/2014  04:30:00      -26.444       -8.378       -6.982       14.627       17.661       11.275      213.961      311.908      127.122        0.074        0.033       27.740        9.852        0.126      339.665       13.156      863.769
04/09/2014  04:31:00      -31.370        5.815       -6.785       14.204        7.333        4.441      201.751       53.770       19.720        0.067        0.014       31.904        3.176        0.010      339.719       13.247      863.771
04/09/2014  04:32:00       -8.320        3.672       -3.078       14.087        5.470        5.340      198.434       29.923       28.520        0.017        0.013        9.094        3.642        0.160      339.768       13.331      863.776
04/09/2014  04:33:00        9.978       15.321        7.721        7.718        8.618        6.902       59.566       74.275       47.636        0.029        0.009       18.283        5.624        0.095      339.804       13.387      863.776
04/09/2014  04:34:00       18.936       35.393        5.119       12.620        8.075       10.844      159.263       65.206      117.584        0.099        0.017       40.141        7.706        0.037      339.888       13.530      863.756
04/09/2014  04:35:00      -26.136        6.920       -2.326       20.027       13.264        9.770      401.078      175.935       95.451        0.070        0.034       27.036        2.483        0.008      339.595       13.037      863.727
04/09/2014  04:36:00      -39.808      -14.478       -6.580        7.607       11.250        7.636       57.859      126.565       58.314        0.104        0.012       42.359        4.296        0.010      339.374       12.663      863.705
04/09/2014  04:37:00      -10.512      -10.361       -9.897       17.241       10.050        6.748      297.237      100.993       45.532        0.038        0.022       14.759        3.154        0.046      339.466       12.818      863.702
04/09/2014  04:38:00       16.555       -4.888       -5.893        9.027       12.165        6.539       81.486      147.991       42.753        0.030        0.014       17.262        3.599        0.043      339.659       13.144      863.698
04/09/2014  04:39:00        9.183       -1.311        5.141       11.249       14.971       18.759      126.548      224.136      351.914        0.041        0.035        9.276       13.483        2.113      339.485       12.849      863.707
04/09/2014  04:40:00        6.824       10.172       12.408       24.307       14.628       16.934      590.827      213.968      286.772        0.070        0.055       12.249       16.271        1.764      339.377       12.668      863.727
04/09/2014  04:41:00       -2.326        3.671       40.226        9.470       23.400       10.897       89.674      547.579      118.755        0.120        0.038        4.346       11.592        7.116      339.472       12.829      863.745
04/09/2014  04:42:00       37.034      -44.559       12.779       39.750       43.307       27.545     1580.058     1875.491      758.753        0.387        0.211       57.940       22.642        0.153      339.509       12.891      863.762
04/09/2014  04:43:00       13.985      -24.305       15.445       24.839       34.062       29.002      616.970     1160.247      841.104        0.182        0.131       28.042       12.972        0.214      339.606       13.055      863.775
04/09/2014  04:44:00       22.938       -0.699       23.665       18.817       24.705       19.342      354.080      610.331      374.096        0.121        0.067       22.949       14.222        0.384      339.500       12.875      863.789
04/09/2014  04:45:00       24.430       36.226       37.464       22.987       14.829       10.978      528.381      219.914      120.520        0.209        0.043       43.694        6.582        0.023      339.376       12.667      863.768
04/09/2014  04:46:00       53.799       41.053       22.092       19.733       15.660       15.428      389.390      245.234      238.034        0.297        0.044       67.673       11.274        0.028      339.458       12.806      863.730
04/09/2014  04:47:00       49.572       29.096        5.212       18.563       15.946       12.771      344.602      254.289      163.091        0.205        0.038       57.480        9.887        0.030      339.533       12.930      863.708
04/09/2014  04:48:00       14.209      -18.443        2.634       15.787       17.540       11.080      249.215      307.647      122.770        0.061        0.034       23.282       10.579        0.206      339.485       12.850      863.710
04/09/2014  04:49:00       -1.001      -27.006        1.314       17.389       12.377       12.210      302.391      153.190      149.094        0.067        0.030       27.024       10.156        0.141      339.575       13.001      863.730
04/09/2014  04:50:00      -16.955      -24.348       -2.821       16.605       10.527       10.183      275.722      110.818      103.688        0.069        0.025       29.670        8.389        0.080      339.413       12.728      863.754
04/09/2014  04:51:00      -19.261      -18.119       -1.777       13.239       11.477        9.447      175.279      131.712       89.246        0.055        0.020       26.444        4.719        0.032      339.218       12.402      863.763
04/09/2014  04:52:00      -49.764       -3.988       -8.088       11.063        7.751        4.931      122.386       60.081       24.315        0.138        0.010       49.924        4.912        0.010      339.162       12.303      863.766
04/09/2014  04:53:00      -79.467        7.813       -7.235       20.013       12.478        7.557      400.520      155.708       57.113        0.352        0.031       79.850        7.283        0.008      339.155       12.293      863.755
04/09/2014  04:54:00      -64.544       -0.102       -9.980       19.186       16.827        7.951      368.118      283.157       63.220        0.249        0.036       64.544        7.951        0.015      339.051       12.120      863.748
04/09/2014  04:55:00      -75.657      -40.654       -8.681       16.763       14.081       10.414      281.006      198.267      108.450        0.402        0.029       85.888        8.604        0.010      338.978       11.996      863.752
04/09/2014  04:56:00      -91.611      -39.680      -11.515       13.649       16.724       12.432      186.284      279.684      154.548        0.536        0.031       99.836        5.562        0.003      338.818       11.727      863.766
04/09/2014  04:57:00      -62.595        0.037      -13.140       38.935       34.470       18.847     1515.952     1188.192      355.223        0.357        0.153       62.595       19.315        0.095      338.701       11.532      863.772
04/09/2014  04:58:00      -79.330       15.484       -7.059       36.857       25.165       17.368     1358.428      633.262      301.659        0.444        0.115       80.827       18.225        0.051      338.873       11.820      863.762
04/09/2014  04:59:00      -42.640       -5.365      -10.717       24.315       13.024       14.642      591.235      169.627      214.375        0.147        0.049       42.976       14.090        0.107      338.892       11.851      863.753
04/09/2014  05:00:00      -36.836      -12.129       -8.264       14.525       10.938        8.472      210.967      119.648       71.767        0.099        0.020       38.781        6.181        0.025      339.021       12.069      863.741
04/09/2014  05:01:00      -43.917      -15.861      -12.884       15.069       15.699        8.714      227.062      246.445       75.933        0.145        0.027       46.693        4.253        0.008      339.115       12.227      863.734
04/09/2014  05:02:00      -86.297      -18.804       -8.202       16.138       11.646        8.719      260.420      135.625       76.016        0.417        0.024       88.322        7.526        0.007      338.803       11.703      863.743
04/09/2014  05:03:00     -121.466      -34.431       -9.552       22.033       27.679       19.413      485.462      766.100      376.879        0.883        0.081      126.252       14.226        0.013      338.709       11.546      863.771
04/09/2014  05:04:00     -108.354      -14.160      -10.106       56.002       30.382       23.379     3136.238      923.049      546.570        0.832        0.230      109.276       23.665        0.047      338.533       11.250      863.780
04/09/2014  05:05:00      -77.740      -16.052       -6.626       30.198       26.193       15.569      911.916      686.063      242.382        0.409        0.092       79.380       15.640        0.039      338.506       11.204      863.774
04/09/2014  05:06:00      -79.871      -22.742      -10.709       15.690       13.667       12.139      246.164      186.799      147.361        0.380        0.029       83.046        3.162        0.001      338.596       11.353      863.762
04/09/2014  05:07:00      -73.226      -40.380      -15.188       24.100       16.124       15.313      580.800      259.995      234.493        0.415        0.054       83.622        5.189        0.004      338.617       11.390      863.759
04/09/2014  05:08:00      -94.557      -50.924       -5.492       22.474       23.770       16.635      505.074      565.032      276.738        0.646        0.067      107.398       11.850        0.012      338.564       11.302      863.758
04/09/2014  05:09:00      -90.656      -29.428       -8.642       17.395       14.031       11.522      302.569      196.881      132.766        0.490        0.032       95.313       11.140        0.014      338.610       11.378      863.754
04/09/2014  05:10:00      -59.162      -23.208        0.168       25.694       24.027       11.154      660.159      577.299      124.418        0.270        0.068       63.551       14.465        0.052      338.692       11.515      863.761
04/09/2014  05:11:00      -74.250        7.008       -2.224       21.541       24.828       10.153      463.997      616.440      103.085        0.338        0.059       74.580       10.753        0.021      338.696       11.523      863.758
04/09/2014  05:12:00      -65.396       27.485      -12.300       29.086       19.683       11.090      845.988      387.408      122.987        0.327        0.068       70.937        9.741        0.019      338.666       11.472      863.768
04/09/2014  05:13:00      -58.699       26.538       -9.106       16.367       22.583       14.265      267.880      510.013      203.480        0.261        0.049       64.419        8.957        0.019      338.624       11.402      863.774
04/09/2014  05:14:00      -57.925       -6.951       -7.732       25.925       21.667       14.545      672.118      469.443      211.563        0.241        0.068       58.341       13.969        0.057      338.732       11.584      863.780
04/09/2014  05:15:00      -50.018      -18.334      -12.666       26.439       15.226       10.047      699.036      231.828      100.951        0.201        0.052       53.272        4.925        0.009      338.680       11.497      863.793
04/09/2014  05:16:00      -54.875      -27.388       -1.459       17.519       16.245        8.365      306.912      263.901       69.972        0.220        0.032       61.330        4.936        0.006      338.735       11.587      863.786
04/09/2014  05:17:00      -98.350        1.722       -9.148       28.569       12.823       12.423      816.187      164.438      154.337        0.545        0.057       98.365       12.544        0.016      338.639       11.426      863.769
04/09/2014  05:18:00      -44.806      -21.613       -6.421       29.243       14.324       11.644      855.152      205.173      135.588        0.186        0.060       49.746       10.408        0.044      338.555       11.287      863.747
04/09/2014  05:19:00      -17.780        6.987       -2.469       14.913       22.987       10.339      222.389      528.423      106.897        0.061        0.043       19.104       10.142        0.282      338.678       11.493      863.728
04/09/2014  05:20:00      -55.880       45.620      -11.646       15.648       16.906       10.854      244.859      285.801      117.816        0.299        0.032       72.137        9.220        0.016      339.094       12.192      863.714
04/09/2014  05:21:00      -64.418       -6.921       -6.520       13.079       14.728       11.392      171.061      216.900      129.783        0.238        0.026       64.789        6.884        0.011      338.749       11.612      863.736
04/09/2014  05:22:00      -47.927      -21.338       -4.863       13.679       12.700        9.959      187.124      161.290       99.183        0.161        0.022       52.462        8.327        0.025      338.577       11.322      863.746
04/09/2014  05:23:00      -13.198       -7.786       -8.028       15.572        8.800        7.460      242.503       77.443       55.655        0.034        0.019       15.324        4.300        0.079      338.545       11.270      863.749
04/09/2014  05:24:00      -36.359       -1.602       -7.635       10.861       19.660        7.575      117.951      386.524       57.373        0.097        0.028       36.394        7.171        0.039      339.008       12.047      863.749
04/09/2014  05:25:00      -15.689       23.682        0.240       16.110        8.503        6.638      259.546       72.306       44.064        0.059        0.019       28.408        7.122        0.063      339.311       12.557      863.743
04/09/2014  05:26:00       23.510       48.639       -4.275        9.094       11.678        9.940       82.694      136.369       98.797        0.163        0.016       54.023        7.793        0.021      339.278       12.503      863.736
04/09/2014  05:27:00        7.920       13.264        0.483        9.317       21.459       10.814       86.801      460.507      116.939        0.045        0.033       15.448       11.100        0.516      338.895       11.857      863.734
04/09/2014  05:28:00      -18.953        7.234       -4.818        8.203        7.085        4.048       67.292       50.202       16.384        0.028        0.007       20.287        3.405        0.028      338.943       11.938      863.753
04/09/2014  05:29:00      -36.110      -30.817       -5.369       21.842       17.323       10.852      477.074      300.082      117.755        0.159        0.045       47.472        7.234        0.023      338.696       11.522      863.781
04/09/2014  05:30:00      -62.730      -21.147       -5.903       19.642       13.483        9.714      385.814      181.784       94.362        0.254        0.033       66.199        6.023        0.008      338.378       10.990      863.816
04/09/2014  05:31:00       -8.319      -20.043       -2.364        8.371       10.864        5.745       70.070      118.018       33.005        0.035        0.011       21.701        5.453        0.063      338.622       11.397      863.834
04/09/2014  05:32:00       -9.291       -2.350        2.917        7.976        7.819        7.150       63.612       61.136       51.127        0.014        0.009        9.584        5.714        0.355      338.764       11.637      863.828
04/09/2014  05:33:00       -7.336       13.690      -12.656        9.297        8.565        9.101       86.442       73.362       82.835        0.032        0.012       15.531        6.652        0.183      338.984       12.007      863.808
04/09/2014  05:34:00       23.129       16.634        7.075       27.035       12.390        9.002      730.880      153.502       81.032        0.091        0.048       28.490        5.300        0.035      338.834       11.754      863.797
04/09/2014  05:35:00       41.946       17.046        1.778       17.810       18.362       14.956      317.197      337.169      223.672        0.147        0.044       45.277       12.270        0.073      338.617       11.390      863.786
04/09/2014  05:36:00        5.242        7.732        3.362       11.518       10.194       10.788      132.664      103.910      116.376        0.023        0.018        9.342        8.827        0.893      338.499       11.191      863.798
04/09/2014  05:37:00      -28.302      -10.153       -8.278       25.859       15.681        9.812      668.684      245.904       96.275        0.099        0.051       30.068       14.031        0.218      338.800       11.697      863.816
04/09/2014  05:38:00      -56.769      -37.743       -9.854       13.261       12.075        8.457      175.843      145.813       71.518        0.257        0.020       68.170        8.356        0.015      338.816       11.724      863.837
04/09/2014  05:39:00      -15.715       10.725       -7.900       22.550       21.634        8.884      508.494      468.045       78.917        0.074        0.053       19.027       13.433        0.498      338.922       11.903      863.837
04/09/2014  05:40:00      -18.508       23.087       -2.309       22.909       13.018        5.908      524.818      169.464       34.901        0.080        0.036       29.590        9.797        0.110      339.056       12.128      863.828
04/09/2014  05:41:00      -71.462      -19.751      -13.054       10.250       11.625        8.043      105.055      135.137       64.686        0.299        0.015       74.141        5.856        0.006      338.602       11.365      863.828
04/09/2014  05:42:00      -65.554        3.980       -8.560       17.176        9.277        5.555      295.020       86.068       30.855        0.240        0.021       65.674        5.414        0.007      338.862       11.802      863.841
04/09/2014  05:43:00       -0.966       28.495        7.459       20.091       11.682       10.020      403.629      136.470      100.398        0.075        0.032       28.512       13.396        0.221      339.289       12.522      863.834
04/09/2014  05:44:00       24.978       16.769        5.682       15.480       12.413       11.846      239.625      154.078      140.330        0.074        0.027       30.084        5.016        0.028      339.068       12.147      863.833
04/09/2014  05:45:00       34.562       21.193        1.545       11.434       12.966       10.655      130.740      168.120      113.533        0.103        0.021       40.542        8.784        0.047      338.939       11.931      863.823
04/09/2014  05:46:00       14.847       27.110       -2.866       12.984        7.771        4.376      168.594       60.381       19.153        0.061        0.012       30.910        3.375        0.012      339.003       12.040      863.823
04/09/2014  05:47:00       -8.298       12.852        2.187        4.467        9.702        2.758       19.958       94.125        7.604        0.018        0.006       15.298        3.845        0.063      339.220       12.405      863.839
04/09/2014  05:48:00       -1.174      -17.411        0.805        9.414        8.969        8.154       88.615       80.445       66.483        0.027        0.012       17.450        4.761        0.074      338.766       11.639      863.846
04/09/2014  05:49:00      -42.093      -12.221       -6.613       27.551       10.000        8.163      759.042       99.999       66.632        0.145        0.046       43.831        9.135        0.043      338.811       11.716      863.855
04/09/2014  05:50:00     -105.078      -14.537      -10.746       15.539       22.070       13.419      241.469      487.077      180.072        0.614        0.045      106.078        8.060        0.006      338.208       10.703      863.858
04/09/2014  05:51:00      -94.251      -40.142       -8.028       21.578       23.075       13.276      465.615      532.468      176.249        0.587        0.059      102.443        6.108        0.004      338.259       10.789      863.868
04/09/2014  05:52:00      -70.671      -60.135        1.395       41.976       43.422       20.434     1762.026     1885.492      417.538        0.634        0.203       92.793       18.885        0.041      338.414       11.048      863.875
04/09/2014  05:53:00      -64.413      -57.064       -1.031       22.371       26.271       18.742      500.454      690.186      351.254        0.447        0.077       86.055       14.299        0.028      338.822       11.734      863.870
04/09/2014  05:54:00      -21.752      -37.206        5.474       48.502       46.802       18.216     2352.441     2190.460      331.823        0.338        0.244       43.098       14.399        0.112      338.927       11.911      863.864
04/09/2014  05:55:00       17.874       31.123       38.354       22.327       21.621       21.351      498.510      467.464      455.869        0.209        0.071       35.891       17.049        0.226      338.613       11.383      863.860
04/09/2014  05:56:00       29.285      -27.532       14.114       32.269       35.665       20.898     1041.272     1272.008      436.717        0.228        0.137       40.195       21.066        0.275      338.875       11.824      863.860
04/09/2014  05:57:00      -86.317      -16.342       -1.203       48.250       43.201       25.896     2328.039     1866.366      670.612        0.629        0.243       87.850       22.528        0.066      338.617       11.390      863.870
04/09/2014  05:58:00      -92.449      -21.485        1.334       65.737       39.643       27.863     4321.334     1571.574      776.370        0.784        0.333       94.913       31.120        0.108      338.247       10.768      863.874
04/09/2014  05:59:00      -97.704      -76.388        3.601       59.009       47.295       30.558     3482.025     2236.782      933.819        1.102        0.333      124.021       34.220        0.076      338.369       10.975      863.878
04/09/2014  06:00:00     -110.809      -63.866        5.058       63.684       36.661       28.092     4055.670     1343.993      789.187        1.128        0.309      127.896       26.741        0.044      338.664       11.469      863.883
04/09/2014  06:01:00      -83.350      -56.598        0.023       21.198       17.318       18.577      449.356      299.898      345.093        0.562        0.055      100.750       16.151        0.026      338.974       11.989      863.892
04/09/2014  06:02:00      -37.230      -39.157        6.553       35.840       28.974       19.861     1284.509      839.516      394.451        0.274        0.126       54.031       18.917        0.123      339.063       12.139      863.879
04/09/2014  06:03:00        7.639        9.754        7.828       13.234       11.647       12.579      175.132      135.660      158.219        0.034        0.023       12.389       10.384        0.703      338.749       11.613      863.863
04/09/2014  06:04:00      -10.810       21.598       -6.469       16.160       10.615        8.617      261.151      112.668       74.250        0.054        0.022       24.152        3.033        0.016      339.187       12.347      863.851
04/09/2014  06:05:00      -56.205      -13.531       -3.698       16.799       17.782        8.403      282.212      316.209       70.612        0.201        0.033       57.811        7.985        0.019      338.814       11.722      863.870
04/09/2014  06:06:00      -94.335      -23.963      -12.502       10.719       16.406       10.912      114.895      269.163      119.075        0.507        0.025       97.331        9.051        0.009      338.304       10.865      863.878
04/09/2014  06:07:00      -72.455       -7.366       -7.941       21.211       16.314       11.921      449.896      266.163      142.103        0.311        0.043       72.829       11.792        0.026      338.303       10.863      863.888
04/09/2014  06:08:00      -31.054      -16.868       10.866       27.123       15.745       13.385      735.655      247.912      179.171        0.126        0.058       35.339       11.716        0.110      338.346       10.935      863.895
04/09/2014  06:09:00      -43.355       -6.322        6.146       29.044       22.006       13.533      843.546      484.263      183.148        0.173        0.076       43.814       10.139        0.054      338.482       11.164      863.888
04/09/2014  06:10:00      -90.682       -7.800       -3.496       18.501       16.274       10.389      342.288      264.831      107.940        0.451        0.036       91.017        8.300        0.008      338.501       11.196      863.887
04/09/2014  06:11:00     -109.515        7.778       -4.575       11.730       13.438        8.421      137.586      180.591       70.912        0.623        0.019      109.791        1.945        0.000      338.727       11.575      863.897
04/09/2014  06:12:00      -94.769       -9.843       -5.493       22.594       21.788       10.273      510.479      474.703      105.535        0.510        0.055       95.279       11.790        0.015      338.728       11.578      863.906
04/09/2014  06:13:00     -101.219      -27.380       -2.232       34.643       24.548       16.403     1200.104      602.628      269.047        0.654        0.104      104.857       14.789        0.020      338.282       10.829      863.923
04/09/2014  06:14:00     -106.826      -28.742       -8.287       31.967       26.759       19.508     1021.864      716.061      380.569        0.721        0.106      110.625       17.257        0.024      338.091       10.507      863.962
04/09/2014  06:15:00      -53.256      -16.211       -9.556       23.827       20.610       12.887      567.713      424.772      166.063        0.217        0.058       55.668        8.002        0.021      338.113       10.544      863.982
04/09/2014  06:16:00      -29.425       16.299      -16.852       10.387       14.157        8.321      107.887      200.423       69.234        0.090        0.019       33.638        5.391        0.026      338.308       10.871      863.976
04/09/2014  06:17:00      -27.489       19.238        8.609       18.926       10.550        7.056      358.182      111.298       49.793        0.086        0.026       33.552        7.612        0.051      338.617       11.389      863.975
04/09/2014  06:18:00      -10.043       -2.347        2.195       16.995        5.497        9.721      288.821       30.221       94.497        0.026        0.021       10.314       12.183        1.395      338.448       11.106      863.993
04/09/2014  06:19:00      -59.105      -12.875      -12.444       14.806        8.327        6.931      219.228       69.334       48.034        0.208        0.017       60.491        5.067        0.007      338.247       10.769      864.008
04/09/2014  06:20:00      -74.511      -11.573       -9.177       17.323       12.624       11.249      300.087      159.362      126.543        0.318        0.029       75.405        4.716        0.004      338.178       10.652      864.016
04/09/2014  06:21:00      -71.346       -3.748       -1.955       24.418       20.692       15.461      596.260      428.154      239.037        0.319        0.063       71.445       11.782        0.027      338.037       10.416      864.014
04/09/2014  06:22:00      -64.114       -5.292       -6.654       17.280       15.557       11.488      298.598      242.025      131.968        0.243        0.034       64.332        8.396        0.017      338.152       10.610      864.021
04/09/2014  06:23:00      -67.683      -19.325       -5.140       10.542       18.864        7.086      111.134      355.851       50.208        0.275        0.026       70.388        3.761        0.003      338.249       10.771      864.045
04/09/2014  06:24:00      -80.827      -45.907       -4.515       29.829       21.249       12.541      889.748      451.510      157.286        0.508        0.075       92.954        9.214        0.010      338.100       10.523      864.069
04/09/2014  06:25:00        7.277       -6.431        7.521       22.772       17.105       15.739      518.552      292.583      247.701        0.060        0.053        9.712       12.778        1.731      338.007       10.366      864.073
04/09/2014  06:26:00      -19.622       37.451        8.537       17.836       37.681       19.627      318.127     1419.874      385.239        0.199        0.106       42.280       21.811        0.266      338.201       10.693      864.057
04/09/2014  06:27:00      -33.579       66.408       -1.658       15.420       21.913       14.131      237.764      480.167      199.693        0.323        0.046       74.415       10.583        0.020      338.521       11.229      864.045
04/09/2014  06:28:00      -35.498       21.698       -8.909       16.209       21.356       10.368      262.747      456.065      107.499        0.132        0.041       41.605        6.179        0.022      338.387       11.003      864.038
04/09/2014  06:29:00      -14.961        8.065       -0.511       12.663        7.820        4.779      160.345       61.145       22.843        0.027        0.012       16.996        4.271        0.063      338.841       11.768      864.035
04/09/2014  06:30:00      -15.231      -20.162        0.580        7.825       17.345        7.789       61.238      300.865       60.676        0.053        0.021       25.268        8.610        0.116      338.836       11.759      864.040
04/09/2014  06:31:00      -31.019      -24.052        3.928       29.522       14.920       12.053      871.534      222.618      145.266        0.140        0.062       39.252       15.297        0.152      338.636       11.421      864.056
04/09/2014  06:32:00      -33.675       -5.522        2.185       22.328       14.770       12.186      498.559      218.154      148.497        0.102        0.043       34.124       13.838        0.164      338.380       10.993      864.051
04/09/2014  06:33:00      -15.429        0.609       -1.441       18.079       20.179       10.240      326.852      407.181      104.854        0.054        0.042       15.441        7.405        0.230      338.146       10.599      864.044
04/09/2014  06:34:00      -57.720       -1.046       -6.823       24.635       12.162       13.065      606.869      147.906      170.698        0.215        0.046       57.729       12.794        0.049      338.001       10.356      864.052
04/09/2014  06:35:00      -68.999       17.057       -8.003       33.556       23.606       16.151     1125.972      557.228      260.845        0.353        0.097       71.076       14.020        0.039      338.019       10.387      864.057
04/09/2014  06:36:00      -11.123       17.270       -0.728       11.392       19.924        7.698      129.778      396.972       59.265        0.050        0.029       20.542        3.787        0.034      338.166       10.632      864.063
04/09/2014  06:37:00      -23.853        7.183        0.085        9.256       20.698        7.113       85.679      428.422       50.596        0.059        0.028       24.911        5.985        0.058      338.499       11.192      864.064
04/09/2014  06:38:00      -43.761      -34.928       -8.778       20.045       10.769        8.832      401.786      115.967       77.997        0.190        0.030       55.991        7.110        0.016      338.283       10.829      864.083
04/09/2014  06:39:00      -20.649      -20.138        9.428       28.442       15.665       13.456      808.974      245.405      181.074        0.108        0.062       28.843       17.347        0.362      338.201       10.692      864.110
04/09/2014  06:40:00      -92.908      -33.265       -5.322       16.191       17.374        9.531      262.154      301.869       90.831        0.521        0.033       98.683        8.487        0.007      338.165       10.631      864.124
04/09/2014  06:41:00      -77.253       -8.934       -1.324       23.769       22.527       12.072      564.962      507.460      145.729        0.363        0.061       77.768       11.105        0.020      338.136       10.582      864.141
04/09/2014  06:42:00      -44.506       23.469       -0.014       16.400       15.410       10.589      268.976      237.473      112.121        0.157        0.031       50.315       11.186        0.049      338.125       10.563      864.135
04/09/2014  06:43:00       -6.937       36.498        3.570       22.525       11.698        6.425      507.358      136.852       41.284        0.104        0.034       37.151        5.155        0.019      338.636       11.422      864.111
04/09/2014  06:44:00       27.572       31.245       -0.703        7.397        9.207        7.072       54.711       84.765       50.016        0.096        0.009       41.671        2.834        0.005      338.739       11.597      864.091
04/09/2014  06:45:00        9.462       31.074        4.310       10.437       18.523        6.293      108.940      343.112       39.606        0.078        0.025       32.483        4.656        0.021      338.464       11.133      864.081
04/09/2014  06:46:00       16.328       11.522        2.093       10.285       10.935       10.423      105.790      119.583      108.631        0.037        0.017       19.984        7.823        0.153      338.311       10.877      864.077
04/09/2014  06:47:00        0.817        7.828        4.819        7.229        6.254        7.205       52.252       39.108       51.915        0.011        0.007        7.871        5.779        0.539      338.246       10.764      864.088
04/09/2014  06:48:00      -48.975      -17.064       -9.613       31.648       12.078        9.619     1001.610      145.868       92.516        0.201        0.062       51.862       12.832        0.061      338.150       10.607      864.108
04/09/2014  06:49:00      -95.523       -9.710      -12.227       10.019       11.071       12.792      100.384      122.563      163.632        0.488        0.019       96.015        8.496        0.008      338.135       10.580      864.137
04/09/2014  06:50:00     -117.365      -29.299       -9.919       15.245       15.339        8.298      232.405      235.294       68.864        0.763        0.027      120.966        6.836        0.003      338.104       10.528      864.151
04/09/2014  06:51:00     -137.147      -11.200      -15.327       19.869       19.324       13.460      394.761      373.418      181.181        1.006        0.047      137.604       10.452        0.006      337.957       10.280      864.158
04/09/2014  06:52:00     -132.080        1.109      -19.473       33.106       19.230       16.621     1096.020      369.784      276.262        0.978        0.087      132.085       13.761        0.011      337.862       10.124      864.173
04/09/2014  06:53:00     -101.649      -25.538       -5.580       30.143       21.348       12.262      908.576      455.717      150.349        0.626        0.076      104.808       14.310        0.019      337.860       10.119      864.187
04/09/2014  06:54:00     -116.819      -47.177      -12.075       26.280       17.388       14.437      690.612      302.359      208.430        0.861        0.060      125.986        6.621        0.003      337.916       10.214      864.196
04/09/2014  06:55:00      -91.216      -19.616       -3.293       45.223       35.011       21.780     2045.164     1225.753      474.376        0.623        0.187       93.301       22.144        0.056      337.819       10.049      864.196
04/09/2014  06:56:00      -73.428        1.693       -8.049       52.429       24.466       17.998     2748.844      598.565      323.932        0.456        0.184       73.448       22.029        0.090      337.765        9.959      864.177
04/09/2014  06:57:00      -99.211      -36.882       -2.245       44.418       40.443       20.633     1972.935     1635.634      425.704        0.762        0.202      105.844       18.110        0.029      337.825       10.060      864.164
04/09/2014  06:58:00      -84.394      -25.677        0.695       36.920       55.544       22.599     1363.054     3085.092      510.723        0.637        0.248       88.213       16.782        0.036      337.945       10.263      864.172
04/09/2014  06:59:00      -85.660      -24.127       -2.920       54.708       34.660       19.428     2992.948     1201.327      377.462        0.625        0.229       88.993       22.623        0.065      337.964       10.293      864.200
04/09/2014  07:00:00     -140.111      -12.415       -7.628       49.451       30.015       24.678     2445.393      900.871      608.990        1.190        0.198      140.660       27.038        0.037      337.873       10.142      864.224
04/09/2014  07:01:00      -89.775       -7.165       -7.158       51.199       39.123       26.239     2621.312     1530.635      688.461        0.650        0.242       90.060       27.568        0.094      337.777        9.980      864.233
04/09/2014  07:02:00      -56.520       -0.400       -1.208       30.481       31.202       18.503      929.099      973.560      342.353        0.272        0.112       56.521       11.542        0.042      337.790       10.002      864.249
04/09/2014  07:03:00      -16.620      -35.003        7.626       26.142       26.717       13.412      683.394      713.804      179.894        0.157        0.079       38.748       12.693        0.107      337.911       10.206      864.261
04/09/2014  07:04:00       -6.265      -27.071       -0.864       19.265       29.782       32.818      371.145      886.949     1077.042        0.155        0.117       27.787       23.223        0.698      338.042       10.425      864.283
04/09/2014  07:05:00       40.761      -31.607       10.983       35.203       26.609       25.554     1239.266      708.057      653.009        0.269        0.130       51.579       20.169        0.153      338.252       10.776      864.301
04/09/2014  07:06:00      -35.596      -21.996        1.802       24.233       19.518       15.908      587.240      380.959      253.061        0.149        0.061       41.844       15.260        0.133      338.294       10.847      864.312
04/09/2014  07:07:00      -42.829       22.547        1.645       22.293       18.907       12.241      496.965      357.493      149.833        0.167        0.050       48.401        7.745        0.026      338.186       10.667      864.300
04/09/2014  07:08:00      -32.152       31.370        1.147       21.242       13.982        9.578      451.242      195.505       91.739        0.138        0.037       44.920        8.184        0.033      338.289       10.838      864.279
04/09/2014  07:09:00       27.727       19.476       11.843       14.504       10.153       10.561      210.360      103.076      111.525        0.086        0.021       33.884        6.667        0.039      338.249       10.773      864.275
04/09/2014  07:10:00        6.705       11.104        1.693       14.660       11.527        6.224      214.930      132.868       38.742        0.028        0.019       12.971        4.347        0.112      338.302       10.860      864.296
04/09/2014  07:11:00      -23.666       11.338       -6.514       10.009       13.818       10.460      100.181      190.933      109.418        0.057        0.020       26.242        6.455        0.061      338.288       10.838      864.327
04/09/2014  07:12:00      -42.961       -0.407       -6.882        6.854        7.751        5.584       46.974       60.074       31.183        0.102        0.007       42.963        4.495        0.011      338.319       10.890      864.350
04/09/2014  07:13:00      -71.871       11.648       -9.310       17.526        7.494        5.366      307.172       56.154       28.799        0.289        0.020       72.808        6.524        0.008      338.326       10.904      864.343
04/09/2014  07:14:00     -117.070       18.900      -18.742       23.268       22.012       11.941      541.387      484.545      142.584        0.779        0.058      118.586        9.005        0.006      338.201       10.691      864.335
04/09/2014  07:15:00      -83.562       29.387      -17.454       22.759       24.634       16.996      517.991      606.848      288.854        0.478        0.071       88.579       13.788        0.024      338.167       10.633      864.336
04/09/2014  07:16:00      -60.343       45.631       -9.233       32.202       33.434       16.909     1036.960     1117.812      285.925        0.412        0.122       75.654       20.780        0.075      338.291       10.842      864.331
04/09/2014  07:17:00      -78.843       57.630      -16.442       18.608       23.404       15.346      346.272      547.755      235.492        0.547        0.056       97.660       14.192        0.021      338.620       11.396      864.334
04/09/2014  07:18:00      -69.382      -14.105      -16.263       27.780       21.985       12.874      771.749      483.351      165.750        0.335        0.071       70.801        6.653        0.009      338.158       10.618      864.340
04/09/2014  07:19:00      -86.450      -31.348      -19.258       27.993       24.485       15.090      783.631      599.532      227.714        0.522        0.081       91.958       11.421        0.015      338.109       10.538      864.357
04/09/2014  07:20:00     -164.925      -44.235      -17.880       40.177       30.201       22.089     1614.164      912.079      487.923        1.624        0.151      170.754       19.443        0.013      338.005       10.363      864.377
04/09/2014  07:21:00     -197.625        0.432      -22.448       35.104       35.658       26.082     1232.312     1271.471      680.268        2.137        0.159      197.626       20.954        0.011      337.882       10.155      864.408
04/09/2014  07:22:00     -129.758       -4.283      -14.370       32.406       33.637       19.822     1050.178     1131.481      392.919        0.982        0.129      129.828       14.708        0.013      337.900       10.187      864.424
04/09/2014  07:23:00      -93.735       -5.986      -10.164       39.773       21.434       15.386     1581.861      459.431      236.730        0.560        0.114       93.926       18.517        0.039      337.893       10.173      864.437
04/09/2014  07:24:00     -112.815        1.112       -6.400       34.227       24.685       22.611     1171.518      609.364      511.254        0.753        0.115      112.821       18.639        0.027      337.838       10.081      864.437
04/09/2014  07:25:00      -83.000       21.983       -5.236       39.481       27.778       18.387     1558.773      771.617      338.090        0.503        0.133       85.862       18.774        0.048      337.882       10.156      864.424
04/09/2014  07:26:00      -41.489       28.446       10.814       29.604       25.643       26.480      876.396      657.569      701.194        0.244        0.112       50.305       16.756        0.111      338.000       10.355      864.405
04/09/2014  07:27:00     -110.584       17.470        3.844       58.269       37.605       27.933     3395.239     1414.110      780.245        0.907        0.279      111.955       30.143        0.072      338.270       10.808      864.410
04/09/2014  07:28:00      -75.730      -33.977        1.499       41.553       40.826       27.394     1726.653     1666.800      750.429        0.552        0.207       83.003       20.507        0.061      338.098       10.518      864.449
04/09/2014  07:29:00      -31.993      -68.539        7.458       60.442       40.183       26.034     3653.183     1614.657      677.791        0.586        0.297       75.638       16.795        0.049      338.057       10.448      864.513
04/09/2014  07:30:00      -89.354      -64.120        1.591       42.987       40.474       21.368     1847.853     1638.133      456.577        0.802        0.197      109.980       20.680        0.035      338.200       10.689      864.561
04/09/2014  07:31:00      -50.319      -57.888        0.255       30.035       22.048       19.226      902.096      486.114      369.652        0.382        0.088       76.701       15.762        0.042      338.439       11.091      864.560
04/09/2014  07:32:00      -40.160      -46.400        0.185       42.231       23.800       14.337     1783.495      566.439      205.544        0.316        0.128       61.366       15.424        0.063      338.542       11.262      864.538
04/09/2014  07:33:00      -37.776      -10.611        2.449       22.369       11.740       15.111      500.360      137.820      228.343        0.121        0.043       39.238       16.308        0.173      338.466       11.137      864.519
04/09/2014  07:34:00      -57.324       -6.372        3.673       16.036       18.058       12.118      257.140      326.075      146.845        0.203        0.037       57.677        5.892        0.010      338.457       11.120      864.525
04/09/2014  07:35:00      -56.812      -24.520        1.879       19.684       12.986       10.102      387.470      168.647      102.045        0.225        0.033       61.878        8.193        0.018      338.378       10.988      864.537
04/09/2014  07:36:00      -42.907      -12.803        0.741       27.312       17.320       11.057      745.938      299.966      122.248        0.159        0.058       44.776        9.363        0.044      338.356       10.952      864.541
04/09/2014  07:37:00      -39.855       -7.910       -0.670       19.938       11.653       11.734      397.515      135.781      137.698        0.116        0.034       40.633       10.069        0.061      338.366       10.968      864.528
04/09/2014  07:38:00      -19.286       -1.165        4.305       13.757       14.653        8.282      189.252      214.697       68.592        0.043        0.024       19.321        8.176        0.179      338.474       11.150      864.503
04/09/2014  07:39:00      -45.922       -8.444       -2.100       18.289       14.374        7.270      334.478      206.601       52.856        0.139        0.030       46.692        8.022        0.030      338.377       10.985      864.499
04/09/2014  07:40:00      -68.273      -45.206        2.541       21.298       16.668       10.526      453.621      277.810      110.802        0.378        0.042       81.883       10.267        0.016      338.421       11.061      864.512
04/09/2014  07:41:00      -46.582      -40.111        3.680       27.571       22.380       17.775      760.155      500.852      315.954        0.268        0.079       61.472       15.572        0.064      338.420       11.058      864.522
04/09/2014  07:42:00      -18.048      -27.461        3.067       19.369       21.347       12.953      375.156      455.696      167.781        0.104        0.050       32.861        8.374        0.065      338.542       11.265      864.517
04/09/2014  07:43:00      -35.231      -30.405        2.239       16.937       21.619       11.822      286.846      467.378      139.763        0.153        0.045       46.537       10.657        0.052      338.699       11.528      864.502
04/09/2014  07:44:00      -52.543      -18.627        2.742       14.961       14.705       11.036      223.842      216.234      121.794        0.184        0.028       55.747        8.462        0.023      338.699       11.529      864.508
04/09/2014  07:45:00      -44.549      -28.476       -1.883       15.972       13.799       10.828      255.114      190.406      117.247        0.168        0.028       52.872        5.553        0.011      338.773       11.653      864.500
04/09/2014  07:46:00      -36.025      -25.522       -3.661       17.323       14.638        8.876      300.098      214.265       78.789        0.128        0.030       44.150        2.300        0.003      338.804       11.705      864.499
04/09/2014  07:47:00      -46.584      -22.383       -8.778       17.648       11.991        8.106      311.462      143.773       65.714        0.163        0.026       51.682        7.883        0.023      338.878       11.828      864.497
04/09/2014  07:48:00      -12.720        9.212       10.915        8.106       13.490       10.253       65.712      181.993      105.132        0.036        0.018       15.705        8.023        0.261      338.964       11.974      864.482
04/09/2014  07:49:00      -22.073       18.724        2.311        9.752       10.286       10.555       95.094      105.801      111.416        0.058        0.016       28.945        8.581        0.088      338.867       11.811      864.479
04/09/2014  07:50:00      -33.043       21.638       -4.301       14.308       15.896        9.589      204.733      252.682       91.941        0.106        0.027       39.498        7.702        0.038      338.773       11.653      864.466
04/09/2014  07:51:00      -22.338       13.032        4.166       20.309       12.302       13.184      412.435      151.337      173.809        0.071        0.037       25.861       14.026        0.294      338.954       11.956      864.476
04/09/2014  07:52:00       -8.021        4.940        5.697       15.841       17.821       12.459      250.948      317.599      155.230        0.042        0.036        9.420        9.534        1.024      338.942       11.937      864.481
04/09/2014  07:53:00      -28.870       -6.400       -2.884       13.267        9.745        6.296      176.007       94.957       39.644        0.060        0.016       29.571        6.596        0.050      338.795       11.688      864.492
04/09/2014  07:54:00       -5.742      -16.244        1.083       13.584        9.747        6.738      184.514       95.009       45.405        0.031        0.016       17.229        5.702        0.110      338.913       11.887      864.496
04/09/2014  07:55:00      -47.194      -41.052        3.153       56.306       38.073       22.080     3170.416     1449.573      487.527        0.451        0.255       62.550       32.616        0.272      339.015       12.057      864.483
04/09/2014  07:56:00      -91.779      -33.131       -2.933       32.799       22.662       17.908     1075.792      513.568      320.693        0.572        0.096       97.575       13.963        0.020      338.947       11.945      864.454
04/09/2014  07:57:00      -49.409       -9.741       -0.838       25.233       31.500       14.379      636.683      992.258      206.745        0.219        0.092       50.360       14.580        0.084      338.874       11.821      864.437
04/09/2014  07:58:00      -90.405        5.866       -5.638       22.946       22.290       10.704      526.523      496.824      114.584        0.469        0.057       90.595       12.690        0.020      338.872       11.819      864.428
04/09/2014  07:59:00      -94.961      -14.337       -8.707       23.781       12.953       10.502      565.521      167.788      110.300        0.507        0.042       96.037       11.785        0.015      338.839       11.763      864.441
04/09/2014  08:00:00      -59.727      -33.076       -7.933       11.408        8.779        9.402      130.132       77.065       88.406        0.251        0.015       68.274        3.266        0.002      338.810       11.715      864.456
04/09/2014  08:01:00      -56.997      -44.410       -2.424       37.060       23.821       17.837     1373.418      567.418      318.145        0.374        0.113       72.256       16.310        0.051      338.968       11.980      864.474
04/09/2014  08:02:00      -54.073      -23.403       -0.606       29.838       23.765       12.966      890.293      564.783      168.130        0.255        0.081       58.920        8.158        0.019      339.012       12.055      864.482
04/09/2014  08:03:00      -69.418       -8.516       -0.397       41.045       21.508       16.181     1684.657      462.610      261.809        0.365        0.120       69.939       21.252        0.092      338.947       11.943      864.473
04/09/2014  08:04:00      -90.812       -4.260       -9.968       19.187       14.840        9.527      368.131      220.238       90.756        0.452        0.034       90.912        7.197        0.006      338.900       11.866      864.465
04/09/2014  08:05:00      -81.026       -8.934       -9.404       36.044       16.523       15.543     1299.164      272.998      241.597        0.427        0.091       81.517       19.646        0.058      338.909       11.880      864.457
04/09/2014  08:06:00      -55.894      -10.659        1.667       19.581       25.779       13.069      383.422      664.553      170.809        0.223        0.061       56.902        7.447        0.017      338.861       11.801      864.451
04/09/2014  08:07:00      -62.061      -11.092       -0.634       28.981       32.783       18.627      839.889     1074.726      346.961        0.312        0.113       63.044       16.458        0.068      338.925       11.907      864.456
04/09/2014  08:08:00      -38.639      -21.128        6.485       26.829       17.122       15.150      719.798      293.156      229.523        0.161        0.062       44.039       13.445        0.093      338.976       11.994      864.444
04/09/2014  08:09:00      -40.329       -8.727       -1.808       21.266       18.449       11.464      452.243      340.348      131.432        0.131        0.046       41.262       11.300        0.075      338.951       11.951      864.448
04/09/2014  08:10:00      -80.354       -0.532       -9.399       25.554       17.052       13.261      653.019      290.773      175.848        0.383        0.056       80.356       15.743        0.038      338.951       11.952      864.453
04/09/2014  08:11:00      -76.494      -18.356       -5.297       21.372       17.012       11.049      456.780      289.395      122.081        0.354        0.043       78.665        9.314        0.014      339.026       12.077      864.460
04/09/2014  08:12:00      -47.437       -3.978       -3.679       25.402       18.949       12.518      645.240      359.049      156.694        0.172        0.058       47.603        7.135        0.022      339.050       12.118      864.465
04/09/2014  08:13:00      -29.224       16.551        6.252       22.024       13.665       11.526      485.064      186.736      132.853        0.099        0.040       33.585       12.167        0.131      339.099       12.200      864.452
04/09/2014  08:14:00      -24.531       19.116        3.235       20.361       12.066       11.618      414.577      145.589      134.973        0.084        0.035       31.100        9.328        0.090      339.119       12.235      864.451
04/09/2014  08:15:00        4.584        9.305       -2.138       12.499       15.880        7.306      156.224      252.164       53.378        0.029        0.023       10.373        5.557        0.287      339.187       12.347      864.446
04/09/2014  08:16:00       -0.935       43.059       -2.589       13.302       31.000       10.293      176.949      960.969      105.954        0.155        0.062       43.069       13.439        0.097      339.180       12.337      864.445
04/09/2014  08:17:00        4.566       25.691       -3.790       10.314       15.681       13.095      106.369      245.879      171.483        0.061        0.026       26.093        8.609        0.109      339.153       12.290      864.435
04/09/2014  08:18:00        2.986       23.039       -2.951       12.069       18.183        7.540      145.668      330.622       56.855        0.054        0.027       23.231        7.002        0.091      339.132       12.256      864.433
04/09/2014  08:19:00       14.510       25.509       -2.593        9.311        9.466        9.028       86.697       89.599       81.505        0.056        0.013       29.347        2.226        0.006      338.991       12.020      864.443
04/09/2014  08:20:00       30.340       28.790        5.508       14.641       20.842       17.382      214.348      434.387      302.134        0.137        0.048       41.826       10.085        0.058      338.831       11.750      864.440
04/09/2014  08:21:00       29.772       13.144        5.625       11.719       22.356       16.924      137.329      499.797      286.425        0.101        0.046       32.545        9.877        0.092      338.837       11.760      864.427
04/09/2014  08:22:00       18.035       16.177       26.130       26.817       29.573       28.690      719.168      874.560      823.107        0.184        0.121       24.227       23.146        0.913      339.055       12.126      864.424
04/09/2014  08:23:00       58.723       26.563       14.245       35.779       25.761       26.263     1280.111      663.652      689.737        0.349        0.132       64.451       14.879        0.053      339.044       12.108      864.434
04/09/2014  08:24:00       72.133       40.471        9.242       29.258       24.682       20.130      856.002      609.181      405.230        0.440        0.094       82.711        9.168        0.012      338.914       11.889      864.432
04/09/2014  08:25:00      104.976       48.668        9.351       27.926       18.988       18.344      779.873      360.543      336.500        0.748        0.074      115.708        9.468        0.007      338.946       11.943      864.445
04/09/2014  08:26:00       52.270       25.128       12.812       32.544       23.554       23.323     1059.092      554.798      543.964        0.284        0.108       57.997       12.648        0.048      338.943       11.938      864.457
04/09/2014  08:27:00       74.186       48.847       21.050       23.241       14.432       20.945      540.158      208.270      438.697        0.476        0.059       88.823       13.670        0.024      338.980       12.001      864.473
04/09/2014  08:28:00       69.408       45.987       16.963       19.153       20.681       23.000      366.850      427.699      528.989        0.427        0.066       83.261       16.273        0.038      339.024       12.074      864.456
04/09/2014  08:29:00       72.743       57.151       16.072       33.511       25.528       25.079     1123.006      651.672      628.964        0.561        0.120       92.508        8.245        0.008      339.092       12.188      864.441
04/09/2014  08:30:00       37.011       48.387       36.417       24.379       23.868       19.449      594.351      569.684      378.264        0.329        0.077       60.919        7.182        0.014      339.104       12.208      864.434
04/09/2014  08:31:00        6.612       14.657       28.834       14.210       19.179        9.035      201.932      367.840       81.628        0.087        0.033       16.079        6.584        0.168      339.162       12.307      864.432
04/09/2014  08:32:00       37.296       16.052        1.396       17.421       17.682       20.075      303.489      312.651      402.992        0.133        0.051       40.603        6.638        0.027      338.942       11.936      864.420
04/09/2014  08:33:00       31.120       15.762        4.405       26.519       15.455       15.626      703.246      238.843      244.158        0.121        0.059       34.884        8.637        0.061      339.110       12.218      864.421
04/09/2014  08:34:00       22.123       13.829        6.125       19.757       10.357       14.996      390.356      107.262      224.894        0.072        0.036       26.090       12.812        0.241      339.221       12.406      864.427
04/09/2014  08:35:00        2.790        6.725        9.816        6.818        9.657        7.205       46.479       93.260       51.918        0.017        0.010        7.280        2.906        0.159      339.291       12.523      864.453
04/09/2014  08:36:00       25.748       36.195       16.354       13.342       18.101       14.232      178.016      327.635      202.540        0.147        0.035       44.419        8.399        0.036      339.200       12.371      864.454
04/09/2014  08:37:00       63.608       47.385       12.596       15.936       12.984       15.492      253.952      168.595      239.993        0.356        0.033       79.318        7.552        0.009      339.087       12.179      864.441
04/09/2014  08:38:00       60.704       44.452       21.444       13.805       16.746       14.363      190.573      280.415      206.299        0.340        0.034       75.239       10.602        0.020      339.191       12.356      864.423
04/09/2014  08:39:00       75.680       34.914        1.788       28.704       29.575       19.050      823.923      874.674      362.906        0.451        0.103       83.346       18.347        0.048      339.178       12.335      864.390
04/09/2014  08:40:00       52.789       30.778       10.985       22.284       21.349       17.775      496.573      455.777      315.942        0.256        0.063       61.106       13.552        0.049      339.371       12.660      864.377
04/09/2014  08:41:00       90.680       63.111        2.570       18.446       16.010       15.724      340.258      256.329      247.250        0.653        0.042      110.481        8.871        0.006      339.304       12.545      864.361
04/09/2014  08:42:00       59.881       39.216       -4.116       25.284       20.552       15.168      639.271      422.369      230.060        0.322        0.065       71.579       10.518        0.022      339.381       12.675      864.344
04/09/2014  08:43:00       44.314       22.675       15.729       23.738       18.678       18.295      563.476      348.857      334.692        0.199        0.062       49.779        5.985        0.014      339.565       12.985      864.339
04/09/2014  08:44:00       80.447       37.622       11.457       22.310       11.350       14.803      497.757      128.822      219.139        0.443        0.042       88.810        6.127        0.005      339.394       12.697      864.336
04/09/2014  08:45:00       22.979        9.813        7.783       22.215       24.310       11.683      493.489      590.977      136.491        0.095        0.061       24.987       11.360        0.207      339.713       13.234      864.343
04/09/2014  08:46:00       -0.977       13.436       27.273       11.043       18.255       11.019      121.939      333.246      121.428        0.075        0.029       13.471        4.690        0.121      340.075       13.845      864.339
04/09/2014  08:47:00        3.649       29.748       41.034       13.729       23.637       15.648      188.496      558.697      244.847        0.179        0.050       29.971       16.583        0.306      339.821       13.418      864.342
04/09/2014  08:48:00        9.579       15.974       33.848       21.202       17.296       12.983      449.523      299.147      168.548        0.120        0.046       18.626       11.557        0.385      339.805       13.390      864.344
04/09/2014  08:49:00       18.224        0.720       18.949       21.583       17.632       17.088      465.833      310.893      291.993        0.088        0.053       18.238       14.263        0.612      339.650       13.130      864.342
04/09/2014  08:50:00       24.536        7.263       18.546       22.654       26.655       22.790      513.221      710.483      519.401        0.137        0.087       25.588       19.906        0.605      339.669       13.161      864.347
04/09/2014  08:51:00       32.296       -8.040       -2.267       19.195       28.462       19.562      368.434      810.083      382.686        0.134        0.078       33.282       16.589        0.248      339.759       13.312      864.342
04/09/2014  08:52:00       -0.822       18.131       21.220       13.566       17.662       18.237      184.030      311.953      332.596        0.080        0.041       18.150        4.137        0.052      340.165       13.998      864.331
04/09/2014  08:53:00       -0.751       17.063       16.208        9.029       26.074       19.066       81.525      679.854      363.531        0.084        0.056       17.079       14.261        0.697      340.252       14.144      864.317
04/09/2014  08:54:00       21.730       15.140       19.899       24.008       33.632       21.489      576.393     1131.133      461.789        0.163        0.108       26.484       14.736        0.310      339.885       13.526      864.309
04/09/2014  08:55:00       49.695       15.620        6.895       16.448       32.417       15.439      270.524     1050.856      238.352        0.216        0.078       52.092        9.284        0.032      339.541       12.945      864.308
04/09/2014  08:56:00       22.823       44.945       -0.598       23.942       15.911       24.204      573.212      253.166      585.811        0.198        0.071       50.407       11.777        0.055      339.772       13.334      864.289
04/09/2014  08:57:00       12.166       25.042        3.349       26.094       22.698       22.995      680.905      515.219      528.759        0.126        0.086       27.841       15.128        0.295      339.896       13.545      864.278
04/09/2014  08:58:00       18.954       29.033       54.758       29.329       31.776       21.284      860.165     1009.708      453.001        0.326        0.116       34.672       14.422        0.173      340.303       14.231      864.261
04/09/2014  08:59:00       35.983      -37.009       26.433       47.137       56.480       39.246     2221.913     3189.948     1540.215        0.516        0.348       51.618       44.455        0.742      340.257       14.155      864.251
04/09/2014  09:00:00       40.883        8.932       21.881       44.505       47.744       42.566     1980.675     2279.457     1811.907        0.415        0.304       41.847       42.871        1.050      340.265       14.166      864.246
04/09/2014  09:01:00       37.916       21.353       24.245       26.472       28.062       23.881      700.785      787.495      570.280        0.227        0.103       43.515       22.158        0.259      339.958       13.649      864.246
04/09/2014  09:02:00       16.799       19.724       41.300       36.049       36.581       31.849     1299.557     1338.155     1014.328        0.301        0.183       25.908       30.476        1.384      340.236       14.118      864.251
04/09/2014  09:03:00       12.924      -11.513        6.789       36.419       15.755       21.271     1326.369      248.225      452.471        0.119        0.101       17.309       23.059        1.775      339.919       13.583      864.258
04/09/2014  09:04:00       56.271      -30.040        9.603       40.652       32.850       27.516     1652.589     1079.095      757.106        0.382        0.174       63.788       27.014        0.179      340.091       13.874      864.268
04/09/2014  09:05:00       37.800       11.637       27.625       22.544       16.085       23.078      508.251      258.735      532.578        0.181        0.065       39.551       12.518        0.100      340.337       14.289      864.264
04/09/2014  09:06:00       39.196       30.134       -4.545       19.780       13.047       17.081      391.238      170.233      291.754        0.166        0.043       49.441        6.652        0.018      339.867       13.496      864.242
04/09/2014  09:07:00       44.647        3.359        9.778       37.432       14.786       21.007     1401.136      218.639      441.294        0.208        0.103       44.773       13.467        0.090      340.077       13.850      864.231
04/09/2014  09:08:00       -1.824       53.230       11.880       20.180       22.485       22.224      407.221      505.556      493.904        0.219        0.070       53.261       16.933        0.101      340.527       14.610      864.207
04/09/2014  09:09:00       38.405       26.524       19.395       28.598       28.506       27.468      817.828      812.574      754.502        0.247        0.119       46.674       16.005        0.118      340.590       14.716      864.183
04/09/2014  09:10:00       27.676       -2.617        8.459       16.070       22.547       31.992      258.257      508.388     1023.520        0.132        0.090       27.800        8.489        0.093      340.444       14.470      864.175
04/09/2014  09:11:00       15.716      -22.278        3.045       23.823       42.870       25.194      567.536     1837.800      634.757        0.190        0.152       27.264       16.158        0.351      340.365       14.336      864.173
04/09/2014  09:12:00       72.597      -14.313       17.168       45.586       28.417       31.642     2078.040      807.546     1001.200        0.483        0.194       73.995       28.793        0.151      340.289       14.207      864.186
04/09/2014  09:13:00       31.259      -20.391       13.634       36.494       43.712       31.182     1331.831     1910.769      972.311        0.290        0.211       37.322       33.480        0.805      340.501       14.564      864.183
04/09/2014  09:14:00       16.402       22.166       36.446       31.281       39.297       30.770      978.489     1544.235      946.782        0.278        0.173       27.575       25.998        0.889      340.646       14.811      864.159
04/09/2014  09:15:00       30.370        1.871       27.628       27.184       44.431       31.125      738.950     1974.153      968.773        0.268        0.184       30.427       27.384        0.810      340.550       14.650      864.147
04/09/2014  09:16:00       33.471        2.253       21.026       28.090       21.826       23.906      789.075      476.377      571.491        0.170        0.092       33.547       16.594        0.245      340.727       14.949      864.129
04/09/2014  09:17:00       64.197       43.498       29.426       50.346       43.912       37.415     2534.688     1928.303     1399.908        0.637        0.293       77.545       26.459        0.116      340.798       15.066      864.108
04/09/2014  09:18:00       66.708       83.880       63.999       45.598       34.890       41.523     2079.158     1217.318     1724.142        1.030        0.251      107.172       23.262        0.047      340.630       14.783      864.113
04/09/2014  09:19:00       14.180       39.909       44.568       29.713       27.770       24.396      882.852      771.165      595.149        0.301        0.112       42.353        7.623        0.032      340.981       15.377      864.126
04/09/2014  09:20:00       30.553      -52.941        5.159       52.854       62.984       44.792     2793.532     3966.950     2006.359        0.626        0.438       61.125       42.180        0.476      341.035       15.469      864.129
04/09/2014  09:21:00       11.214        1.951       35.513       45.007       45.444       38.005     2025.657     2065.152     1444.402        0.346        0.277       11.383       31.551        7.683      341.322       15.953      864.141
04/09/2014  09:22:00       23.156       21.849       47.081       56.927       41.723       34.846     3240.654     1740.808     1214.229        0.471        0.310       31.836       21.672        0.463      340.924       15.281      864.141
04/09/2014  09:23:00       11.552        5.491       50.037       30.691       42.881       35.903      941.957     1838.788     1289.028        0.337        0.203       12.791       19.215        2.257      341.234       15.806      864.136
04/09/2014  09:24:00       22.053       -7.979       32.090       44.253       44.263       45.493     1958.363     1959.207     2069.573        0.378        0.299       23.452       23.368        0.993      341.142       15.650      864.129
04/09/2014  09:25:00       -8.748       32.427       58.953       31.255       35.549       21.719      976.845     1263.746      471.718        0.366        0.136       33.587       15.195        0.205      341.096       15.572      864.118
04/09/2014  09:26:00       22.555       14.704       37.228       39.640       24.645       19.604     1571.324      607.375      384.328        0.234        0.128       26.924       12.970        0.232      341.072       15.533      864.113
04/09/2014  09:27:00       35.522       14.135       22.107       27.783       27.565       30.406      771.885      759.836      924.520        0.220        0.123       38.231       22.605        0.350      341.011       15.429      864.100
04/09/2014  09:28:00       15.326        2.745       18.947       22.974       35.015       21.982      527.791     1226.021      483.226        0.142        0.112       15.570       13.155        0.714      341.190       15.732      864.089
04/09/2014  09:29:00       48.932      -23.062       16.164       39.968       41.936       30.740     1597.412     1758.616      944.977        0.374        0.215       54.094       24.734        0.209      340.599       14.732      864.094
04/09/2014  09:30:00       13.768       16.440       30.271       36.004       39.044       29.379     1296.264     1524.436      863.145        0.253        0.184       21.443       29.137        1.846      341.274       15.874      864.084
04/09/2014  09:31:00       33.331        2.906       28.309       42.516       52.208       39.221     1807.630     2725.690     1538.302        0.400        0.304       33.457       34.967        1.092      341.282       15.886      864.075
04/09/2014  09:32:00       61.533      -49.791       21.236       74.033       82.619       60.703     5480.863     6825.889     3684.831        1.135        0.800       79.155       62.412        0.622      341.343       15.989      864.057
04/09/2014  09:33:00       44.117      -49.583        3.227       77.332       94.912       59.064     5980.239     9008.254     3488.565        1.144        0.924       66.368       54.130        0.665      341.150       15.663      864.047
04/09/2014  09:34:00       24.930       42.436       62.973       44.484       53.236       34.836     1978.861     2834.085     1213.538        0.621        0.301       49.217       27.810        0.319      341.222       15.785      864.051
04/09/2014  09:35:00       25.112      -20.754       11.560       36.858       32.666       31.122     1358.529     1067.072      968.598        0.229        0.170       32.579       27.904        0.734      341.031       15.463      864.059
04/09/2014  09:36:00       34.352      -66.345       30.062       35.041       59.209       43.267     1227.900     3505.684     1872.043        0.654        0.330       74.711       23.242        0.097      341.090       15.563      864.050
04/09/2014  09:37:00       51.148      -69.637       13.456       43.188       41.012       39.586     1865.202     1681.966     1567.056        0.638        0.256       86.403       32.241        0.139      340.691       14.886      864.048
04/09/2014  09:38:00       44.208      -22.634       12.979       38.278       46.337       36.704     1465.191     2147.149     1347.166        0.380        0.248       49.665       26.920        0.294      341.150       15.664      864.048
04/09/2014  09:39:00       29.494        0.862       29.961       30.555       25.584       20.678      933.624      654.528      427.572        0.189        0.101       29.506       13.111        0.197      341.576       16.386      864.044
04/09/2014  09:40:00       14.767       20.301       -0.233       29.746       36.885       30.559      884.853     1360.504      933.847        0.190        0.159       25.104       18.974        0.571      341.278       15.880      864.035
04/09/2014  09:41:00      -10.054       33.858       31.546       16.412       29.470       23.218      269.356      868.466      539.085        0.196        0.084       35.319       14.413        0.167      341.705       16.604      864.024
04/09/2014  09:42:00        1.233      -27.542       25.003       25.850       38.242       22.584      668.235     1462.414      510.039        0.201        0.132       27.570       12.998        0.222      341.522       16.293      864.011
04/09/2014  09:43:00       14.187       30.534       35.693       23.014       27.422       18.799      529.655      751.988      353.391        0.202        0.082       33.669        6.426        0.036      341.663       16.531      863.997
04/09/2014  09:44:00       23.883        6.435       41.248       34.323       42.886       28.778     1178.078     1839.190      828.179        0.308        0.192       24.735       12.079        0.238      341.581       16.393      863.981
04/09/2014  09:45:00       22.421       15.024       49.523       36.731       41.084       25.289     1349.143     1687.922      639.521        0.343        0.184       26.989       17.829        0.436      341.649       16.509      863.982
04/09/2014  09:46:00       21.624       39.539       63.602       36.828       53.829       39.213     1356.325     2897.583     1537.625        0.593        0.290       45.066       37.797        0.703      341.393       16.074      863.982
04/09/2014  09:47:00       56.817       61.570       61.284       57.628       44.179       44.808     3321.035     1951.753     2007.746        0.903        0.364       83.780       33.119        0.156      341.237       15.810      863.984
04/09/2014  09:48:00       67.170       53.719       36.105       52.232       39.115       26.684     2728.181     1529.989      712.058        0.683        0.249       86.009        7.112        0.007      341.342       15.987      863.985
04/09/2014  09:49:00       58.298       64.033       24.022       26.558       25.344       32.714      705.312      642.305     1070.204        0.525        0.121       86.596       13.447        0.024      341.246       15.827      863.986
04/09/2014  09:50:00       36.669       13.284       51.409       38.503       35.428       28.925     1482.466     1255.142      836.656        0.387        0.179       39.001       21.645        0.308      341.803       16.770      863.998
04/09/2014  09:51:00        3.476      -17.296       23.896       30.467       59.909       39.555      928.217     3589.077     1564.607        0.348        0.304       17.642       24.302        1.897      341.573       16.379      863.998
04/09/2014  09:52:00       72.115      -68.280        3.297       56.198       68.472       35.538     3158.167     4688.445     1262.931        0.949        0.455       99.311       39.584        0.159      341.656       16.520      863.997
04/09/2014  09:53:00       -9.214      -19.090       15.373       19.224       38.537       25.934      369.574     1485.082      672.581        0.161        0.126       21.197       26.288        1.538      342.028       17.152      863.992
04/09/2014  09:54:00        1.553       -9.667       38.170       22.481       50.787       30.618      505.385     2579.364      937.437        0.279        0.201        9.791       28.789        8.645      342.178       17.408      863.974
04/09/2014  09:55:00       -0.496       -3.971       16.993       31.305       29.810       33.173      980.008      888.608     1100.429        0.164        0.148        4.002       25.031       39.126      341.466       16.198      863.973
04/09/2014  09:56:00       57.550       65.688       36.473       41.417       37.489       39.656     1715.384     1405.390     1572.583        0.682        0.235       87.332       27.149        0.097      341.712       16.616      863.964
04/09/2014  09:57:00        8.349       12.227       53.689       20.538       53.027       18.432      421.790     2811.828      339.739        0.334        0.179       14.805       21.058        2.023      341.882       16.905      863.947
04/09/2014  09:58:00       78.798       52.880       25.300       37.085       44.431       33.597     1375.310     1974.135     1128.725        0.706        0.224       94.896       21.110        0.049      341.904       16.942      863.928
04/09/2014  09:59:00       69.942       55.636       22.032       51.026       58.020       36.117     2603.681     3366.302     1304.450        0.787        0.364       89.371       21.999        0.061      342.006       17.113      863.913
04/09/2014  10:00:00       34.094       21.460       31.303       38.824       60.534       34.940     1507.314     3664.364     1220.817        0.450        0.320       40.286       20.359        0.255      342.039       17.170      863.901
04/09/2014  10:01:00       45.956       72.996       51.735       39.285       61.953       62.571     1543.337     3838.156     3915.082        0.970        0.465       86.257       44.432        0.265      342.041       17.172      863.899
04/09/2014  10:02:00      125.547       94.463       46.409       45.490       34.549       44.714     2069.374     1193.662     1999.311        1.605        0.263      157.115       24.674        0.025      341.534       16.312      863.904
04/09/2014  10:03:00      110.069       90.936       -6.604       50.932       37.297       41.503     2594.088     1391.075     1722.481        1.307        0.285      142.775       21.940        0.024      341.587       16.404      863.889
04/09/2014  10:04:00      108.168       66.130       19.340       45.073       36.928       31.274     2031.594     1363.687      978.092        1.041        0.219      126.781       28.934        0.052      341.475       16.214      863.882
04/09/2014  10:05:00       68.389       30.687       27.167       64.815       62.259       33.695     4200.965     3876.143     1135.353        0.778        0.461       74.959       17.737        0.056      341.847       16.843      863.868
04/09/2014  10:06:00      133.239      101.267       22.626       60.594       51.071       47.678     3671.591     2608.201     2273.154        1.853        0.428      167.354       36.295        0.047      341.909       16.948      863.860
04/09/2014  10:07:00      148.544      107.992        4.022       67.389       38.096       38.593     4541.312     1451.276     1489.390        2.061        0.374      183.651       16.491        0.008      341.809       16.778      863.871
04/09/2014  10:08:00       83.992       85.095        6.664       54.605       46.203       35.734     2981.735     2134.697     1276.944        1.037        0.320      119.565       20.875        0.030      341.879       16.898      863.880
04/09/2014  10:09:00       21.099       72.517       18.869       50.170       48.537       38.083     2517.029     2355.845     1450.278        0.619        0.316       75.524       34.963        0.214      342.170       17.392      863.884
04/09/2014  10:10:00       48.254       57.953       51.676       47.949       49.459       34.629     2299.080     2446.195     1199.144        0.715        0.297       75.412       20.793        0.076      341.951       17.020      863.887
04/09/2014  10:11:00       73.405       13.269       42.589       60.823       51.541       50.704     3699.488     2656.466     2570.927        0.815        0.446       74.594       37.490        0.253      341.926       16.979      863.875
04/09/2014  10:12:00       35.162      -21.770       53.475       40.500       65.437       34.282     1640.237     4282.052     1175.270        0.583        0.355       41.356       37.323        0.814      342.037       17.167      863.886
04/09/2014  10:13:00        8.847       22.301       49.552       39.187       26.073       28.456     1535.609      679.825      809.754        0.303        0.151       23.992       13.325        0.308      342.464       17.891      863.881
04/09/2014  10:14:00       50.774       21.819       19.002       32.582       43.169       32.558     1061.569     1863.549     1060.028        0.370        0.199       55.264       23.126        0.175      341.891       16.918      863.876
04/09/2014  10:15:00       39.280       54.681       43.274       45.587       38.746       32.336     2078.180     1501.244     1045.632        0.551        0.231       67.327       20.156        0.090      342.166       17.386      863.870
04/09/2014  10:16:00       77.199       16.530       28.224       59.137       38.937       33.050     3497.220     1516.129     1092.311        0.657        0.305       78.949       23.905        0.092      342.265       17.552      863.851
04/09/2014  10:17:00       60.147       63.760        4.171       41.151       58.007       40.734     1693.389     3364.768     1659.238        0.721        0.336       87.652       21.652        0.061      342.239       17.509      863.836
04/09/2014  10:18:00        4.822      105.196       -8.648       41.163       45.171       32.116     1694.353     2040.431     1031.416        0.796        0.238      105.307       26.287        0.062      342.095       17.264      863.834
04/09/2014  10:19:00       47.338      125.029      -10.772       38.012       60.841       35.499     1444.936     3701.614     1260.145        1.220        0.320      133.691       34.505        0.067      342.116       17.301      863.819
04/09/2014  10:20:00      116.031       62.213       49.655       75.760       43.838       54.708     5739.642     1921.735     2992.915        1.522        0.533      131.658       29.272        0.049      342.094       17.262      863.821
04/09/2014  10:21:00      120.965       58.486       35.867       69.775       46.249       53.061     4868.571     2138.998     2815.440        1.458        0.491      134.362       30.986        0.053      342.250       17.526      863.822
04/09/2014  10:22:00       62.404        8.944       29.810       75.544       74.906       50.327     5706.952     5610.945     2532.818        0.935        0.693       63.042       41.933        0.442      342.511       17.971      863.822
04/09/2014  10:23:00        9.423       17.531       56.119       40.693       67.755       34.462     1655.948     4590.689     1187.612        0.549        0.372       19.903       17.978        0.816      342.537       18.015      863.825
04/09/2014  10:24:00       90.612      107.356      106.334       88.608       59.957       46.161     7851.415     3594.851     2130.840        2.231        0.679      140.485       39.029        0.077      342.097       17.268      863.811
04/09/2014  10:25:00       53.693       -1.746       29.018       37.879       67.385       33.138     1434.813     4540.686     1098.154        0.540        0.354       53.721       34.203        0.405      341.777       16.726      863.829
04/09/2014  10:26:00       54.426       45.561       17.761       35.412       46.445       28.644     1254.036     2157.160      820.453        0.479        0.212       70.978       12.002        0.029      341.916       16.963      863.815
04/09/2014  10:27:00       48.346       19.421       23.572       49.441       36.009       31.011     2444.427     1296.650      961.690        0.399        0.235       52.101       14.407        0.076      342.406       17.794      863.813
04/09/2014  10:28:00       25.285      -40.098       24.683       29.697       64.665       27.785      881.912     4181.498      772.002        0.434        0.292       47.405       35.475        0.560      342.687       18.272      863.797
04/09/2014  10:29:00       45.537       45.486       42.667       65.956       57.506       39.627     4350.159     3306.887     1570.333        0.759        0.461       64.363       28.933        0.202      342.683       18.263      863.787
04/09/2014  10:30:00       84.815      144.976      131.067       87.880       74.984       80.312     7722.896     5622.625     6449.960        3.259        0.990      167.964       74.202        0.195      342.068       17.214      863.777
04/09/2014  10:31:00      127.136      147.356      113.309       74.424       51.835       66.571     5538.987     2686.824     4431.712        3.168        0.633      194.621       55.033        0.080      342.111       17.288      863.774
04/09/2014  10:32:00       86.924      119.950      109.429       73.374       51.115       54.171     5383.733     2612.789     2934.454        2.242        0.547      148.134       34.059        0.053      342.268       17.556      863.775
04/09/2014  10:33:00       91.942       76.224       65.134       54.181       60.610       50.269     2935.620     3673.599     2526.959        1.382        0.457      119.430       39.723        0.111      342.021       17.139      863.792
04/09/2014  10:34:00      132.270       95.070       67.463       81.777       49.052       52.383     6687.416     2406.064     2743.973        2.146        0.592      162.892       52.864        0.105      342.077       17.232      863.797
04/09/2014  10:35:00       73.186       56.640       75.120       82.750       63.082       31.891     6847.588     3979.361     1017.063        1.302        0.592       92.543       21.341        0.053      342.246       17.521      863.801
04/09/2014  10:36:00       63.201       56.166       12.376       72.104       39.770       21.328     5198.916     1581.680      454.871        0.727        0.362       84.552       13.176        0.024      342.255       17.537      863.801
04/09/2014  10:37:00       80.912       69.443       37.333       68.732       63.504       43.327     4724.095     4032.784     1877.256        1.170        0.532      106.626       31.492        0.087      342.486       17.929      863.793
04/09/2014  10:38:00       73.065       80.971       -0.044       73.966       69.875       42.025     5471.034     4882.474     1766.142        1.200        0.606      109.063       37.902        0.121      342.425       17.825      863.783
04/09/2014  10:39:00       16.657        8.979       16.193       37.608       53.545       33.307     1414.373     2867.121     1109.377        0.300        0.270       18.923       26.535        1.966      342.937       18.696      863.780
04/09/2014  10:40:00       47.778       23.069       65.301       63.593       87.380       66.461     4044.112     7635.188     4417.068        1.158        0.805       53.056       65.532        1.526      342.804       18.469      863.767
04/09/2014  10:41:00       22.884      -35.251       68.608       66.060      137.990       90.625     4363.868    19041.132     8212.909        1.904        1.581       42.028       99.263        5.578      342.535       18.011      863.752
04/09/2014  10:42:00       85.002     -103.214      -11.327       73.260       89.214       61.003     5367.061     7959.190     3721.355        1.752        0.852      133.710       69.718        0.272      342.640       18.191      863.749
04/09/2014  10:43:00       56.948     -162.297      -15.504       53.438       55.714       47.053     2855.658     3104.050     2213.993        1.900        0.409      171.998       29.302        0.029      342.452       17.871      863.747
04/09/2014  10:44:00       11.334       58.912       99.167       47.886       90.282       39.477     2293.022     8150.910     1558.456        1.272        0.600       59.993       45.214        0.568      342.838       18.528      863.729
04/09/2014  10:45:00      107.429      -78.808        6.082       73.499       84.045       51.563     5402.134     7063.582     2658.737        1.645        0.756      133.236       52.493        0.155      342.559       18.052      863.739
04/09/2014  10:46:00       55.344       -8.738       29.620       55.577       60.739       38.461     3088.764     3689.238     1479.281        0.614        0.413       56.030       33.361        0.355      342.572       18.075      863.735
04/09/2014  10:47:00       14.942      -92.357       25.661       42.282      107.541       74.680     1787.742    11564.989     5577.127        1.417        0.946       93.558       75.282        0.647      342.759       18.392      863.744
04/09/2014  10:48:00      -17.061      -38.234        3.638       26.793       51.928       33.536      717.854     2696.542     1124.676        0.315        0.227       41.868        8.386        0.040      342.967       18.748      863.743
04/09/2014  10:49:00       20.385      -84.498       -2.341       51.753       67.204       37.502     2678.419     4516.392     1406.406        0.808        0.430       86.922       38.137        0.192      342.888       18.614      863.746
04/09/2014  10:50:00       -0.753      -23.167       16.224       34.531       43.275       22.677     1192.372     1872.749      514.255        0.219        0.179       23.179       12.725        0.301      343.115       19.000      863.749
04/09/2014  10:51:00       56.343      -90.824        7.343       80.409       71.741       52.147     6465.674     5146.812     2719.348        1.290        0.717      106.880       62.075        0.337      342.899       18.631      863.739
04/09/2014  10:52:00       40.020      -19.436       24.238       51.531       48.845       45.723     2655.418     2385.840     2090.573        0.485        0.357       44.490       40.584        0.832      342.983       18.774      863.742
04/09/2014  10:53:00       79.279       36.479       34.409       48.961       35.140       39.673     2397.158     1234.823     1573.949        0.700        0.260       87.269       20.369        0.054      342.441       17.852      863.727
04/09/2014  10:54:00       33.809        1.048        5.171       31.949       49.543       27.206     1020.723     2454.469      740.151        0.269        0.211       33.826       13.361        0.156      342.668       18.238      863.705
04/09/2014  10:55:00       59.315       39.488       34.259       49.102       51.223       39.346     2411.002     2623.778     1548.109        0.642        0.329       71.257       21.063        0.087      343.002       18.808      863.682
04/09/2014  10:56:00       97.550      -21.390       39.733       84.522      101.105       58.574     7143.905    10222.282     3430.939        1.617        1.040       99.867       64.433        0.416      342.874       18.589      863.655
04/09/2014  10:57:00       88.281      -78.243       19.155       73.684      127.888       55.287     5429.391    16355.327     3056.663        1.956        1.242      117.965       72.825        0.381      342.857       18.560      863.632
04/09/2014  10:58:00      119.749     -101.762       21.457       95.549      158.970       87.815     9129.558    25271.443     7711.423        3.363        2.106      157.147      102.641        0.427      343.119       19.005      863.604
04/09/2014  10:59:00      133.994     -107.006       14.616       85.792      127.242       82.240     7360.303    16190.604     6763.482        2.996        1.516      171.478       82.540        0.232      343.048       18.884      863.595
04/09/2014  11:00:00       60.387      -62.915       22.372       62.913       75.971       49.601     3958.045     5771.631     2460.259        1.015        0.609       87.206       48.453        0.309      343.055       18.896      863.606
04/09/2014  11:01:00       77.658      -65.961       48.764       81.416       74.886       62.461     6628.510     5607.939     3901.365        1.445        0.807      101.890       55.096        0.292      343.212       19.163      863.597
04/09/2014  11:02:00       43.025       34.843       64.092       51.959       95.020       61.169     2699.723     9028.747     3741.705        1.132        0.774       55.364       57.006        1.060      343.105       18.982      863.589
04/09/2014  11:03:00       38.838       -5.885       46.656       54.379       86.842       41.618     2957.060     7541.502     1732.086        0.797        0.612       39.281       43.791        1.243      343.149       19.057      863.588
04/09/2014  11:04:00       54.591      -34.781       43.645       63.339      118.442       64.239     4011.874    14028.562     4126.616        1.413        1.108       64.730       79.677        1.515      343.009       18.820      863.566
04/09/2014  11:05:00       42.290       26.008       62.882       55.786       57.533       40.426     3112.108     3309.999     1634.231        0.724        0.403       49.647       36.121        0.529      342.963       18.739      863.560
04/09/2014  11:06:00        1.124      -43.851       25.866       66.177       74.308       41.017     4379.355     5521.615     1682.359        0.709        0.579       43.865       35.709        0.663      343.282       19.283      863.551
04/09/2014  11:07:00       40.014      -17.968       31.008       50.238       67.691       46.489     2523.868     4582.026     2161.269        0.607        0.463       43.863       25.667        0.342      343.400       19.484      863.540
04/09/2014  11:08:00       48.451       50.429       74.244       52.120       60.574       42.743     2716.451     3669.179     1826.935        0.931        0.411       69.932       23.872        0.117      343.223       19.184      863.539
04/09/2014  11:09:00       -0.824      -54.469       48.572       50.669       76.795       54.313     2567.380     5897.417     2949.927        0.837        0.571       54.476       51.170        0.882      343.684       19.970      863.543
04/09/2014  11:10:00       68.954      -72.901       11.791       73.656       68.058       51.219     5425.165     4631.857     2623.413        1.144        0.634      100.346       34.447        0.118      343.132       19.029      863.541
04/09/2014  11:11:00       41.136      -50.055       31.311       63.243       87.207       44.879     3999.647     7604.987     2014.135        0.940        0.681       64.790       49.045        0.573      343.122       19.013      863.531
04/09/2014  11:12:00       36.737       40.716       91.286       76.145       80.050       63.399     5798.073     6408.004     4019.374        1.378        0.811       54.840       52.909        0.931      343.353       19.403      863.518
04/09/2014  11:13:00      108.434     -113.776      -16.694       79.300      116.612       57.448     6288.426    13598.418     3300.302        2.408        1.159      157.172       67.190        0.183      343.158       19.072      863.528
04/09/2014  11:14:00      101.759       13.838       11.141       55.984       58.851       40.884     3134.159     3463.487     1671.501        0.947        0.413      102.695       23.655        0.053      342.472       17.903      863.529
04/09/2014  11:15:00       27.487       24.628       37.484       48.230       42.742       25.334     2326.133     1826.853      641.805        0.378        0.240       36.906       29.004        0.618      343.123       19.015      863.525
04/09/2014  11:16:00       29.843      -45.053       27.167       32.860       86.884       37.310     1079.796     7548.850     1392.030        0.684        0.501       54.040       50.237        0.864      342.954       18.725      863.510
04/09/2014  11:17:00       14.530       -2.481       39.711       33.746       61.945       28.324     1138.772     3837.178      802.240        0.379        0.289       14.741       32.771        4.943      343.160       19.077      863.494
04/09/2014  11:18:00       87.997     -192.316      -25.550       91.198       94.705       50.355     8317.134     8969.082     2535.642        3.260        0.991      211.492       62.021        0.086      343.069       18.917      863.465
04/09/2014  11:19:00       40.067      -26.241       21.985       59.324       56.363       48.537     3519.291     3176.829     2355.838        0.591        0.453       47.895       48.560        1.028      343.699       19.994      863.473
04/09/2014  11:20:00       43.396      -59.917        4.214       58.620       78.889       52.233     3436.286     6223.431     2728.249        0.894        0.619       73.981       52.929        0.512      343.468       19.600      863.448
04/09/2014  11:21:00       30.417      -98.834        5.805       54.245       92.242       55.525     2942.500     8508.504     3082.978        1.263        0.727      103.408       62.529        0.366      343.549       19.738      863.417
04/09/2014  11:22:00       16.789       17.268       58.824       37.714       31.181       30.409     1422.341      972.231      924.682        0.368        0.166       24.084       18.697        0.603      343.597       19.821      863.394
04/09/2014  11:23:00       38.208       15.199       43.518       36.947       44.844       32.451     1365.093     2011.022     1053.070        0.401        0.221       41.120       30.532        0.551      343.380       19.451      863.390
04/09/2014  11:24:00       27.473      -27.129       13.821       37.780       67.024       47.709     1427.365     4492.191     2276.184        0.494        0.410       38.610       43.094        1.246      343.291       19.300      863.365
04/09/2014  11:25:00       27.838      -71.571       10.525       96.610       56.559       33.199     9333.463     3198.947     1102.176        0.982        0.682       76.794       36.910        0.231      343.245       19.221      863.351
04/09/2014  11:26:00       -4.818        3.007       46.046       45.808       71.680       57.009     2098.380     5137.964     3250.077        0.632        0.524        5.680       58.443      105.885      343.578       19.788      863.344
04/09/2014  11:27:00       44.891       -9.806       55.420       59.375       97.766       68.700     3525.354     9558.199     4719.731        1.149        0.890       45.949       69.892        2.314      343.735       20.056      863.352
04/09/2014  11:28:00        9.657      -58.992       14.066       28.119       53.033       27.569      790.658     2812.550      760.033        0.407        0.218       59.777       27.747        0.215      343.497       19.652      863.353
04/09/2014  11:29:00       -2.034       -4.731       26.139       29.165       34.294       22.277      850.602     1176.111      496.284        0.162        0.126        5.149       16.147        9.832      343.929       20.388      863.352
04/09/2014  11:30:00       33.810       46.268       47.474       39.409       32.107       44.662     1553.058     1030.849     1994.659        0.506        0.229       57.305       29.555        0.266      343.432       19.541      863.346
04/09/2014  11:31:00       63.446       39.972       14.662       51.387       52.449       53.065     2640.630     2750.896     2815.865        0.702        0.410       74.988       31.005        0.171      343.175       19.102      863.330
04/09/2014  11:32:00       80.410      -29.986       39.968       87.055      131.917       63.007     7578.645    17402.139     3969.845        1.895        1.448       85.819       76.805        0.801      343.342       19.386      863.321
04/09/2014  11:33:00       81.598      -79.921       50.207      109.951      149.896       85.200    12089.117    22468.774     7259.011        2.868        2.091      114.217      107.728        0.890      343.649       19.909      863.291
04/09/2014  11:34:00       88.281      -17.143       66.189       80.756      110.645       75.324     6521.576    12242.354     5673.702        1.845        1.222       89.930       82.989        0.852      343.585       19.800      863.287
04/09/2014  11:35:00       73.688      -20.878       60.501       56.923      108.777       60.535     3240.201    11832.466     3664.466        1.413        0.937       76.589       60.871        0.632      343.609       19.841      863.274
04/09/2014  11:36:00       67.630      -18.926       23.876       63.765       96.903       51.097     4065.928     9390.122     2610.919        1.078        0.803       70.229       56.384        0.645      343.337       19.378      863.253
04/09/2014  11:37:00       91.994      -36.720       26.804       82.791       68.450       61.138     6854.273     4685.401     3737.855        1.290        0.764       99.052       56.663        0.327      343.545       19.732      863.227
04/09/2014  11:38:00       90.425      -37.667       21.457       71.314       90.964       74.812     5085.755     8274.430     5596.816        1.450        0.948       97.957       69.148        0.498      343.293       19.302      863.206
04/09/2014  11:39:00       33.083      -78.671       -5.838       56.916       78.335       46.379     3239.407     6136.370     2151.021        0.942        0.576       85.344       45.258        0.281      343.409       19.502      863.187
04/09/2014  11:40:00       17.763      -79.045       -0.557       93.226       71.370       43.926     8691.057     5093.746     1929.474        1.114        0.786       81.016       48.198        0.354      343.763       20.104      863.171
04/09/2014  11:41:00       70.025     -114.037      -12.617       98.579       71.554       50.256     9717.792     5120.009     2525.693        1.771        0.868      133.820       53.497        0.160      343.616       19.853      863.145
04/09/2014  11:42:00       -5.160      -23.184       23.172       36.847       54.184       35.246     1357.680     2935.939     1242.307        0.332        0.277       23.752       30.184        1.615      344.172       20.803      863.117
04/09/2014  11:43:00       58.333      -65.650       24.487       82.424       89.527       50.765     6793.673     8015.015     2577.096        1.285        0.869       87.821       55.752        0.403      343.730       20.047      863.102
04/09/2014  11:44:00       73.909     -118.625        2.505       69.982      107.127       77.855     4897.433    11476.162     6061.387        2.098        1.122      139.766       73.311        0.275      343.663       19.933      863.065
04/09/2014  11:45:00      -30.052      -76.860        1.830       68.149       78.962       45.600     4644.341     6234.976     2079.347        0.988        0.648       82.526       41.535        0.253      343.697       19.992      863.048
04/09/2014  11:46:00      -16.081     -103.201      -14.033       71.293       76.122       55.273     5082.681     5794.500     3055.059        1.252        0.697      104.447       31.108        0.089      343.605       19.836      863.049
04/09/2014  11:47:00       51.092       64.086        7.856       39.817       37.672       42.565     1585.400     1419.177     1811.768        0.580        0.241       81.960       30.890        0.142      343.070       18.923      863.005
04/09/2014  11:48:00       68.993      -51.516       11.324       55.399       70.970       39.078     3069.096     5036.811     1527.064        0.859        0.482       86.104       38.779        0.203      343.308       19.327      862.979
04/09/2014  11:49:00       49.709      -96.284       20.463       62.535      121.352       62.974     3910.674    14726.402     3965.757        1.738        1.130      108.358       72.430        0.447      343.882       20.306      862.965
04/09/2014  11:50:00       17.030       -3.318       46.879       68.446      110.848       70.335     4684.843    12287.261     4946.965        1.220        1.096       17.350       69.842       16.204      344.086       20.655      862.930
04/09/2014  11:51:00       64.493     -154.179        4.119       75.083      116.395       77.975     5637.479    13547.812     6080.153        2.660        1.263      167.124       61.626        0.136      343.805       20.174      862.907
04/09/2014  11:52:00       42.978       16.128       84.661       47.270       78.921       52.984     2234.435     6228.461     2807.325        1.027        0.564       45.905       47.131        1.054      343.757       20.093      862.912
04/09/2014  11:53:00       47.219      -96.237       -8.595       51.437       70.165       39.982     2645.744     4923.117     1598.540        1.036        0.458      107.197       41.949        0.153      343.771       20.118      862.898
04/09/2014  11:54:00       54.083       31.035       61.357       62.884       67.714       40.458     3954.349     4585.122     1636.850        0.891        0.509       62.355       41.444        0.442      343.868       20.283      862.881
04/09/2014  11:55:00      149.748     -188.536      -19.272      164.287      193.899       79.823    26990.364    37597.014     6371.662        6.464        3.548      240.770      109.020        0.205      343.671       19.945      862.834
04/09/2014  11:56:00      144.943     -182.384      -19.099       95.445       98.836       56.439     9109.769     9768.541     3185.320        3.835        1.103      232.964       50.020        0.046      343.808       20.179      862.829
04/09/2014  11:57:00       55.658       28.666       76.643       92.537       80.180       67.423     8563.023     6428.853     4545.810        1.466        0.977       62.606       63.592        1.032      344.024       20.549      862.832
04/09/2014  11:58:00       67.550      -53.256       11.918       85.704       97.701       54.403     7345.235     9545.491     2959.693        1.369        0.993       86.019       33.049        0.148      343.787       20.144      862.809
04/09/2014  11:59:00       54.753      -80.437       39.514       86.927      133.622       92.282     7556.323    17854.927     8515.894        2.247        1.696       97.304       63.085        0.420      343.992       20.495      862.760
04/09/2014  12:00:00       49.957      130.818      140.850       57.808       73.034       53.373     3341.744     5333.901     2848.675        2.548        0.576      140.032       47.954        0.117      343.675       19.952      862.777
04/09/2014  12:01:00       12.205       16.236       67.251       38.171       66.843       43.019     1457.033     4468.009     1850.646        0.635        0.389       20.312       43.858        4.662      343.919       20.370      862.782
04/09/2014  12:02:00       46.366       67.793       77.724       59.632       45.091       43.153     3555.992     2033.169     1862.145        1.012        0.373       82.132       31.216        0.144      343.918       20.368      862.768
04/09/2014  12:03:00       76.213       13.775       52.295       68.480       75.509       65.529     4689.505     5701.672     4294.081        1.171        0.734       77.448       57.478        0.551      343.902       20.341      862.757
04/09/2014  12:04:00       65.026       35.029       92.619       75.036      108.933       78.486     5630.439    11866.444     6159.993        1.884        1.183       73.861       75.609        1.048      343.879       20.300      862.751
04/09/2014  12:05:00      109.379       -0.615       16.228       51.841       51.096       32.831     2687.514     2610.760     1077.873        0.930        0.319      109.381       16.186        0.022      343.373       19.437      862.727
04/09/2014  12:06:00       27.588      -43.039        9.122       39.181       33.663       28.888     1535.186     1133.167      834.512        0.310        0.175       51.122       24.463        0.229      343.675       19.955      862.677
04/09/2014  12:07:00       68.731      -56.190       24.743      103.859      107.248       74.367    10786.633    11502.090     5530.466        1.815        1.391       88.777       88.088        0.985      344.200       20.850      862.657
04/09/2014  12:08:00       56.379      -21.140       74.829       90.938       93.934       71.707     8269.733     8823.660     5141.913        1.573        1.112       60.212       70.513        1.371      344.631       21.588      862.644
04/09/2014  12:09:00       80.086       31.367       58.211       91.655      117.511       64.426     8400.587    13808.937     4150.647        1.857        1.318       86.010       65.887        0.587      344.304       21.026      862.630
04/09/2014  12:10:00       68.897      -66.629       26.765       91.989      106.572       54.793     8461.945    11357.619     3002.327        1.636        1.141       95.845       60.062        0.393      344.143       20.752      862.627
04/09/2014  12:11:00       73.092      -61.434       11.367       73.230      114.633       61.132     5362.692    13140.724     3737.080        1.574        1.112       95.481       62.682        0.431      344.185       20.825      862.600
04/09/2014  12:12:00       94.663       -5.218      101.563      127.614      150.742       86.010    16285.397    22723.276     7397.747        3.285        2.320       94.806       95.132        1.007      344.487       21.339      862.577
04/09/2014  12:13:00       63.903       -6.115       59.555       78.720      128.236       70.027     6196.896    16444.369     4903.818        1.760        1.377       64.195       86.603        1.820      344.012       20.527      862.585
04/09/2014  12:14:00       63.548       -3.405       85.642       89.518      119.170       75.781     8013.450    14201.390     5742.813        1.967        1.398       63.639       76.446        1.443      344.260       20.954      862.554
04/09/2014  12:15:00      125.663      -98.920        2.570      126.423      168.628       96.792    15982.886    28435.414     9368.718        3.967        2.689      159.926      115.963        0.526      344.359       21.120      862.543
04/09/2014  12:16:00      101.041     -137.983        2.908       90.352      123.347       67.722     8163.561    15214.477     4586.205        2.861        1.398      171.022       80.233        0.220      344.233       20.904      862.559
04/09/2014  12:17:00      -46.920      -66.445       24.415       87.460       63.789       43.854     7649.323     4069.032     1923.194        1.042        0.682       81.342       37.283        0.210      344.480       21.328      862.543
04/09/2014  12:18:00       -0.325     -154.766      -21.311      118.353       72.930       54.025    14007.412     5318.787     2918.720        2.332        1.112      154.767       49.432        0.102      344.327       21.065      862.575
04/09/2014  12:19:00      -95.244      -81.161       -4.665       77.905      112.466       45.047     6069.166    12648.505     2029.245        1.821        1.037      125.134       42.302        0.114      344.068       20.625      862.601
04/09/2014  12:20:00        6.795      -93.648       -8.308       67.031       68.586       46.030     4493.175     4704.020     2118.806        1.010        0.566       93.894       43.188        0.212      344.366       21.133      862.617
04/09/2014  12:21:00       49.762      -23.063       14.029       63.879       91.843       38.016     4080.559     8435.160     1445.188        0.858        0.698       54.847       42.138        0.590      344.239       20.916      862.609
04/09/2014  12:22:00       67.659      -13.375       30.279       75.917       90.854       45.970     5763.377     8254.405     2113.254        1.090        0.807       68.968       24.595        0.127      343.982       20.477      862.572
04/09/2014  12:23:00      111.253      -66.203        2.683       97.075      155.452       80.407     9423.503    24165.344     6465.269        2.840        2.003      129.461       88.831        0.471      344.270       20.967      862.538
04/09/2014  12:24:00      100.571      -85.144       59.519      116.069      201.567      112.298    13472.051    40629.192    12610.810        4.380        3.336      131.772      136.376        1.071      344.264       20.958      862.526
04/09/2014  12:25:00       96.016      -66.280       53.350       96.652      159.191      100.849     9341.687    25341.623    10170.481        3.065        2.243      116.671      114.177        0.958      344.209       20.863      862.521
04/09/2014  12:26:00      175.265     -235.135      -31.137       75.951       63.054       47.384     5768.533     3975.790     2245.268        4.948        0.599      293.269       43.622        0.022      343.912       20.354      862.535
04/09/2014  12:27:00       66.322      -20.385       31.711       58.004      116.554       46.695     3364.496    13584.785     2180.415        1.247        0.956       69.384       61.335        0.781      343.943       20.411      862.533
04/09/2014  12:28:00       77.030      102.564       77.657       48.367       34.393       40.360     2339.372     1182.891     1628.941        1.382        0.258      128.270       35.152        0.075      343.792       20.154      862.516
04/09/2014  12:29:00       20.318       14.428       11.180       27.141       47.881       17.818      736.659     2292.630      317.480        0.205        0.167       24.919        7.531        0.091      344.165       20.791      862.498
04/09/2014  12:30:00       20.127      -53.741       -4.035       25.245       35.206       24.070      637.294     1239.484      579.372        0.288        0.123       57.386       14.267        0.062      343.619       19.859      862.477
04/09/2014  12:31:00        2.808        0.663       29.822       59.206       39.150       22.793     3505.315     1532.709      519.507        0.323        0.278        2.886       10.307       12.759      344.448       21.275      862.452
04/09/2014  12:32:00       40.971     -165.654        5.230       77.270       73.712       45.041     5970.586     5433.424     2028.714        2.129        0.672      170.645       46.919        0.076      344.030       20.559      862.431
04/09/2014  12:33:00       36.449      -47.556       19.391       58.499       53.106       42.641     3422.130     2820.281     1818.264        0.601        0.403       59.918       38.288        0.408      344.515       21.390      862.405
04/09/2014  12:34:00        7.135     -105.471      -24.469       55.186       62.674       35.222     3045.522     3927.987     1240.597        0.999        0.411      105.712       32.879        0.097      344.432       21.247      862.372
04/09/2014  12:35:00      -79.912      -78.031       -6.819       71.658       57.353       34.677     5134.865     3289.311     1202.496        1.107        0.481      111.690       21.531        0.037      344.391       21.176      862.377
04/09/2014  12:36:00      -34.824      -56.085        2.628       57.004       52.289       34.279     3249.501     2734.154     1175.049        0.576        0.358       66.018       22.676        0.118      344.587       21.511      862.385
04/09/2014  12:37:00      -61.701      -46.466       19.860       67.688       65.006       48.302     4581.631     4225.810     2333.048        0.875        0.557       77.241       44.174        0.327      344.823       21.914      862.377
04/09/2014  12:38:00      -61.495     -109.963      -15.791       52.011       55.268       38.009     2705.114     3054.514     1444.670        1.166        0.360      125.990       22.391        0.032      344.657       21.630      862.371
04/09/2014  12:39:00      -88.170       70.947      -31.269      101.753       98.399       47.904    10353.741     9682.326     2294.781        1.805        1.117      113.170       36.114        0.102      344.376       21.149      862.376
04/09/2014  12:40:00       48.950      -43.179       11.360       79.936       97.532       60.250     6389.690     9512.569     3630.053        1.196        0.977       65.272       53.229        0.665      344.533       21.419      862.337
04/09/2014  12:41:00       41.152      -38.676       29.373       39.200       58.332       36.364     1536.644     3402.665     1322.354        0.516        0.313       56.474       30.337        0.289      344.794       21.866      862.343
04/09/2014  12:42:00      -74.543      -53.156       13.907       51.275       51.920       32.071     2629.168     2695.699     1028.558        0.746        0.318       91.554       25.233        0.076      344.728       21.752      862.369
04/09/2014  12:43:00      -32.321      -43.975       27.194       59.691       78.843       41.283     3562.991     6216.143     1704.313        0.760        0.574       54.575       30.875        0.320      345.095       22.381      862.387
04/09/2014  12:44:00     -246.231      -95.491      -10.679      164.842      171.800       66.573    27173.015    29515.311     4432.027        6.548        3.056      264.099       55.793        0.045      344.686       21.677      862.368
04/09/2014  12:45:00     -226.704     -172.122       20.637      266.124      168.757       96.598    70821.764    28478.970     9331.235        9.502        5.432      284.641      131.563        0.214      344.692       21.688      862.351
04/09/2014  12:46:00     -141.995      -40.681        8.945      137.140      106.935       60.808    18807.304    11434.992     3697.600        2.791        1.697      147.708       68.655        0.216      344.937       22.109      862.343
04/09/2014  12:47:00     -203.308      -68.187        8.462      197.535      152.695       67.878    39020.248    23315.850     4607.452        5.649        3.347      214.437       82.759        0.149      344.881       22.013      862.335
04/09/2014  12:48:00     -489.417       62.300      -31.405      207.392      156.246       82.824    43011.549    24412.697     6859.885       15.933        3.714      493.366       96.210        0.038      344.425       21.230      862.305
04/09/2014  12:49:00     -489.630      -63.747      -41.413      148.191      115.719       70.858    21960.654    13390.980     5020.919       14.294        2.019      493.762       75.331        0.023      344.368       21.134      862.253
04/09/2014  12:50:00     -255.663     -137.074        7.805      162.876      142.050       73.088    26528.593    20178.254     5341.807        6.812        2.602      290.091       77.347        0.071      344.512       21.380      862.239
04/09/2014  12:51:00     -113.065     -139.793       17.418       93.021      193.299       57.106     8652.963    37364.573     3261.135        4.094        2.464      179.794       58.427        0.106      344.692       21.689      862.214
04/09/2014  12:52:00     -353.264     -133.155       20.814      193.544      156.392       74.200    37459.109    24458.534     5505.612       10.518        3.371      377.526       76.342        0.041      344.738       21.766      862.196
04/09/2014  12:53:00     -391.828     -262.945        0.841      226.799      139.493       93.458    51437.830    19458.378     8734.322       15.113        3.982      471.879      106.632        0.051      344.384       21.161      862.136
04/09/2014  12:54:00     -227.625     -180.834        9.639      159.614      184.887       90.908    25476.640    34183.112     8264.279        7.625        3.396      290.713       79.433        0.075      344.548       21.443      862.138
04/09/2014  12:55:00     -185.459     -107.454       22.350      179.812      142.357       74.900    32332.471    20265.547     5609.997        5.231        2.910      214.339       80.773        0.142      344.853       21.966      862.130
04/09/2014  12:56:00     -381.941     -260.107      -27.100      199.892      188.506       87.184    39956.637    35534.585     7601.060       14.866        4.155      462.098       92.553        0.040      344.393       21.175      862.137
04/09/2014  12:57:00     -312.899     -204.005      -14.418      217.280      141.665      105.267    47210.709    20068.851    11081.175       10.903        3.918      373.528      113.334        0.092      344.617       21.559      862.129
04/09/2014  12:58:00     -413.731     -229.457       -0.980      266.934      215.255      104.252    71253.795    46334.679    10868.407       17.612        6.423      473.100      132.400        0.078      344.389       21.169      862.116
04/09/2014  12:59:00     -399.878     -101.337      -24.005      190.554      166.952       82.694    36310.668    27872.878     6838.380       12.087        3.551      412.519       92.499        0.050      344.688       21.680      862.105
04/09/2014  13:00:00     -517.474     -222.347      -20.017      243.270      194.376       92.078    59180.390    37781.960     8478.367       21.151        5.272      563.221       96.923        0.030      344.460       21.293      862.098
04/09/2014  13:01:00     -264.706      -86.798       -2.578      151.345      142.361       77.725    22905.417    20266.619     6041.248        6.340        2.461      278.573       80.650        0.084      344.661       21.634      862.100
04/09/2014  13:02:00     -342.609     -121.291      -21.491      210.015      187.525       87.653    44106.439    35165.726     7683.092       10.974        4.348      363.446       92.814        0.065      344.657       21.629      862.098
04/09/2014  13:03:00     -386.653     -127.913      -22.351      256.076      122.496       81.093    65574.851    15005.316     6576.099       12.674        4.358      407.262       79.741        0.038      344.509       21.375      862.091
04/09/2014  13:04:00     -308.199      -19.618       16.058      280.130      132.777       91.596    78472.981    17629.628     8389.759       10.004        5.225      308.822      110.416        0.128      344.853       21.965      862.073
04/09/2014  13:05:00     -172.575     -147.192        0.001      183.903      199.889       82.737    33820.162    39955.464     6845.467        6.602        4.031      226.820       94.065        0.172      344.870       21.993      862.069
04/09/2014  13:06:00     -343.567     -174.852       -1.637      163.023      148.174       79.211    26576.402    21955.665     6274.422       10.170        2.740      385.502       83.419        0.047      344.470       21.308      862.081
04/09/2014  13:07:00     -247.660     -230.279       -7.560      182.703      147.669       88.663    33380.320    21806.151     7861.197        8.872        3.152      338.178      103.270        0.093      344.492       21.346      862.067
04/09/2014  13:08:00     -314.740     -209.845        8.933      234.868      163.216       97.326    55162.812    26639.611     9472.378       11.721        4.564      378.280      118.521        0.098      344.382       21.157      862.016
04/09/2014  13:09:00     -342.314     -219.973       32.018      251.911      160.630       94.037    63459.114    25801.972     8842.873       13.233        4.905      406.900      105.789        0.068      344.505       21.368      862.016
04/09/2014  13:10:00     -333.017     -209.240        8.366      210.355      153.943      105.167    44249.281    23698.520    11060.041       11.686        3.950      393.296      117.245        0.089      344.282       20.988      862.027
04/09/2014  13:11:00     -193.189     -152.495        4.432      153.411      106.818       73.147    23534.881    11409.994     5350.471        5.044        2.015      246.123       81.546        0.110      344.358       21.118      862.008
04/09/2014  13:12:00     -216.898      -56.197      -11.691      218.315       80.497       66.886    47661.630     6479.752     4473.785        5.447        2.931      224.060       87.239        0.152      344.523       21.401      861.935
04/09/2014  13:13:00     -271.104     -149.164      -11.384      181.843      188.838       78.092    33066.974    35659.974     6098.283        8.534        3.741      309.431       73.187        0.056      344.795       21.864      861.951
04/09/2014  13:14:00     -590.597     -142.027      -19.589      283.611      175.192      112.768    80434.931    30692.286    12716.724       24.658        6.192      607.435      136.325        0.050      344.579       21.494      861.943
04/09/2014  13:15:00     -546.167     -176.450        5.820      201.695      187.990       97.131    40680.824    35340.366     9434.445       20.744        4.273      573.963       92.737        0.026      344.541       21.429      861.901
04/09/2014  13:16:00     -285.024     -161.420       -1.901      166.353      138.318       77.168    27673.239    19131.822     5954.961        8.002        2.638      327.559       87.518        0.071      344.830       21.923      861.983
04/09/2014  13:17:00     -404.429     -179.076       -6.603      196.013      145.820       82.626    38421.214    21263.358     6827.089       13.108        3.326      442.302       90.794        0.042      344.707       21.713      861.974
04/09/2014  13:18:00     -401.177     -165.048       22.245      262.507      220.888      123.535    68909.739    48791.477    15260.901       16.079        6.648      433.801      144.413        0.111      344.506       21.369      861.985
04/09/2014  13:19:00     -390.422     -239.829      -27.805      158.858      164.684       76.769    25235.714    27120.738     5893.407       13.447        2.912      458.201       73.603        0.026      344.405       21.197      862.034
04/09/2014  13:20:00     -418.181     -321.675        1.102      252.459      154.188       95.153    63735.530    23773.966     9054.185       18.744        4.828      527.590      108.616        0.042      344.362       21.123      862.018
04/09/2014  13:21:00     -143.068      -88.271        8.692      171.257      117.225       67.290    29328.969    13741.744     4527.959        3.796        2.380      168.108       72.091        0.184      344.749       21.786      862.007
04/09/2014  13:22:00     -279.430     -305.554       -8.671      177.636      182.370       90.689    31554.654    33258.689     8224.452       12.226        3.652      414.059       83.820        0.041      344.385       21.164      861.979
04/09/2014  13:23:00     -257.574     -122.110       -0.459      159.725      156.607       65.306    25512.193    24525.636     4264.915        6.777        2.715      285.053       64.401        0.051      344.674       21.656      861.955
04/09/2014  13:24:00     -216.791      -39.174       18.684      145.077      109.765       66.427    21047.261    12048.278     4412.556        4.319        1.875      220.302       65.546        0.089      345.044       22.290      861.970
04/09/2014  13:25:00     -189.011      -42.488       13.667      148.984      108.072       72.470    22196.280    11679.601     5251.914        3.841        1.956      193.728       67.611        0.122      345.023       22.255      861.964
04/09/2014  13:26:00     -156.862     -123.242       22.837      131.788      160.539       62.185    17368.122    25772.764     3867.009        4.365        2.350      199.485       71.046        0.127      344.928       22.094      861.915
04/09/2014  13:27:00     -271.613     -144.496       -4.213      203.518      159.199       73.759    41419.541    25344.445     5440.448        8.342        3.610      307.657       76.485        0.062      344.720       21.735      861.896
04/09/2014  13:28:00     -439.730     -218.681      -42.853      185.232      214.049      100.765    34310.772    45816.908    10153.571       16.663        4.514      491.105      102.040        0.043      344.687       21.679      861.935
04/09/2014  13:29:00     -296.284     -169.077      -16.676      180.605      162.664       86.937    32618.141    26459.490     7558.100        9.163        3.332      341.133       85.613        0.063      344.699       21.700      861.930
04/09/2014  13:30:00     -472.666     -322.119       -8.348      231.706      219.767      108.118    53687.756    48297.490    11689.607       22.044        5.684      571.991      117.691        0.042      344.524       21.399      861.913
04/09/2014  13:31:00     -424.582     -335.142      -14.811      254.818      178.505      123.118    64932.327    31864.198    15158.086       20.236        5.598      540.916      126.287        0.055      344.568       21.476      861.899
04/09/2014  13:32:00     -497.732     -249.692      -21.465      228.264      177.846       89.652    52104.442    31629.054     8037.551       20.114        4.589      556.851       99.898        0.032      344.524       21.401      861.914
04/09/2014  13:33:00     -381.700     -180.484       -5.993      280.836      161.561       97.689    78868.987    26101.965     9543.186       14.639        5.726      422.220      114.603        0.074      344.536       21.422      861.891
04/09/2014  13:34:00     -368.999     -150.985        3.443      247.031      171.591       90.289    61024.313    29443.533     8152.018       12.877        4.931      398.694      117.424        0.087      344.681       21.669      861.861
04/09/2014  13:35:00     -448.469     -270.073      -12.244      230.858      152.774       86.506    53295.638    23339.877     7483.203       17.915        4.206      523.511       99.172        0.036      344.448       21.270      861.882
04/09/2014  13:36:00     -413.263     -204.645      -12.767      200.697      199.136       84.574    40279.151    39655.181     7152.696       14.994        4.354      461.157       93.705        0.041      344.569       21.477      861.854
04/09/2014  13:37:00     -313.494     -141.642        4.991      247.712      223.822       94.781    61361.078    50096.427     8983.463       11.938        6.022      344.007      117.364        0.116      344.884       22.017      861.853
04/09/2014  13:38:00     -434.105     -325.628      -19.820      228.060      197.813      113.522    52011.227    39129.882    12887.268       19.943        5.201      542.661      123.096        0.051      344.412       21.209      861.823
04/09/2014  13:39:00     -279.636     -175.364       10.208      191.793      185.212      109.717    36784.379    34303.516    12037.797        9.607        4.156      330.074      122.412        0.138      344.709       21.718      861.817
04/09/2014  13:40:00     -634.369     -291.324      -37.697      191.364      189.091      102.412    36620.018    35755.452    10488.316       28.577        4.143      698.064      103.748        0.022      344.379       21.152      861.790
04/09/2014  13:41:00     -333.352     -184.755        9.569      209.867      161.252       98.949    44044.291    26002.349     9790.874       11.258        3.992      381.127      106.002        0.077      344.557       21.457      861.780
04/09/2014  13:42:00     -482.296     -220.062      -34.673      221.861      190.306       98.418    49222.397    36216.377     9686.073       18.866        4.756      530.129       93.070        0.031      344.365       21.128      861.739
04/09/2014  13:43:00     -534.819     -165.106      -15.296      185.651      153.655       80.690    34466.242    23609.755     6510.869       18.904        3.229      559.725       81.249        0.021      344.371       21.140      861.723
04/09/2014  13:44:00     -453.480     -182.029      -19.996      230.239      165.859       83.397    53009.841    27509.295     6955.103       16.331        4.374      488.650      103.113        0.045      344.601       21.532      861.698
04/09/2014  13:45:00     -113.633      -33.076       29.623      140.640      119.609       79.149    19779.697    14306.230     6264.545        2.761        2.018      118.349       70.969        0.360      345.001       22.218      861.693
04/09/2014  13:46:00     -186.547      -91.657       10.216      183.651      131.884       95.028    33727.734    17393.290     9030.398        5.172        3.008      207.848      103.699        0.249      345.054       22.308      861.677
04/09/2014  13:47:00     -387.276     -277.809        3.593      275.458      183.804      126.627    75877.077    33783.868    16034.367       17.641        6.285      476.614      144.850        0.092      344.630       21.582      861.693
04/09/2014  13:48:00     -478.525     -247.850       -7.676      297.649      235.846      128.996    88595.137    55623.232    16640.094       22.563        8.043      538.903      166.510        0.095      344.475       21.317      861.678
04/09/2014  13:49:00     -272.825      -93.650        9.251      238.956      178.584       95.965    57099.850    31892.164     9209.285        9.073        4.910      288.451      110.694        0.147      344.901       22.046      861.671
04/09/2014  13:50:00     -315.828      -50.296       -4.470      246.523      188.254       96.492    60773.566    35439.630     9310.765       10.389        5.276      319.808      118.085        0.136      344.797       21.869      861.635
04/09/2014  13:51:00     -295.834      -48.264        7.919      215.683      154.870       95.048    46519.269    23984.797     9034.205        8.471        3.977      299.746       96.315        0.103      344.919       22.077      861.618
04/09/2014  13:52:00     -383.733       -8.674       -3.621      185.697      162.870       87.899    34483.517    26526.523     7726.231       10.802        3.437      383.831       67.557        0.031      344.817       21.901      861.639
04/09/2014  13:53:00     -255.261     -135.076        9.482      188.272      127.074       75.964    35446.327    16147.890     5770.551        7.042        2.868      288.797       83.020        0.083      344.938       22.109      861.636
04/09/2014  13:54:00     -226.826     -122.706        5.744      192.094      124.980       79.206    36900.106    15619.926     6273.640        6.265        2.940      257.889       78.007        0.091      345.051       22.303      861.624
04/09/2014  13:55:00     -429.874      -14.136      -18.950      235.778      209.226       91.238    55591.139    43775.603     8324.396       14.650        5.385      430.106       99.350        0.053      344.882       22.012      861.646
04/09/2014  13:56:00     -378.617     -206.291       -4.129      281.723      190.954      114.643    79367.586    36463.538    13142.919       15.742        6.449      431.169      142.266        0.109      344.724       21.742      861.623
04/09/2014  13:57:00     -431.298     -245.656       -8.489      259.964      219.606       99.728    67581.465    48226.644     9945.680       18.607        6.288      496.352      103.671        0.044      344.865       21.984      861.606
04/09/2014  13:58:00     -459.918     -128.014      -22.376      225.715      224.953      103.356    50947.335    50603.660    10682.431       17.030        5.612      477.401       93.364        0.038      344.838       21.939      861.633
04/09/2014  13:59:00     -403.333     -128.276      -21.520      237.239      175.524       70.494    56282.248    30808.556     4969.338       13.581        4.603      423.240       72.129        0.029      344.710       21.718      861.619
04/09/2014  14:00:00     -445.899     -242.530       -6.127      237.804      197.845      101.500    56550.531    39142.573    10302.287       18.182        5.300      507.589      117.830        0.054      344.792       21.859      861.626
04/09/2014  14:01:00     -650.964     -304.925      -33.842      266.937      205.745      104.509    71255.248    42330.861    10922.161       32.117        6.225      718.842      116.878        0.026      344.483       21.330      861.622
04/09/2014  14:02:00     -481.786     -305.916       -4.433      249.005      197.882      114.366    62003.443    39157.382    13079.529       21.996        5.712      570.704      120.045        0.044      344.509       21.375      861.628
04/09/2014  14:03:00     -506.058     -301.945      -13.431      267.041      185.159      117.326    71310.864    34283.781    13765.492       23.338        5.968      589.292      138.870        0.056      344.539       21.426      861.616
04/09/2014  14:04:00     -449.290     -103.980      -11.372      256.506      153.541       98.529    65795.095    23574.971     9707.954       15.592        4.954      461.165      108.927        0.056      344.833       21.930      861.628
04/09/2014  14:05:00     -448.157     -165.305       -0.230      240.672      170.554       96.203    57923.216    29088.683     9254.975       16.220        4.813      477.672      112.117        0.055      344.925       22.085      861.654
04/09/2014  14:06:00     -235.260     -146.916        5.506      146.680      173.892       84.909    21514.910    30238.405     7209.613        6.795        2.948      277.366       86.590        0.097      344.743       21.775      861.662
04/09/2014  14:07:00     -413.333     -166.087       -7.336      214.783      191.720       98.101    46131.922    36756.532     9623.835       14.548        4.626      445.454      106.246        0.057      344.737       21.765      861.615
04/09/2014  14:08:00     -310.979     -186.784       14.667      205.378      137.815       80.171    42180.242    18992.905     6427.317        9.969        3.380      362.762       92.549        0.065      344.919       22.075      861.644
04/09/2014  14:09:00     -578.439     -361.571       -0.243      288.719      255.324      117.657    83358.396    65190.527    13843.075       31.383        8.120      682.147      123.025        0.033      344.563       21.466      861.619
04/09/2014  14:10:00     -730.416     -507.217      -21.124      291.168      229.888      137.048    84778.747    52848.607    18782.204       47.378        7.820      889.257      152.008        0.029      344.162       20.782      861.655
04/09/2014  14:11:00     -454.160     -331.700       -4.560      280.360      196.893      116.082    78601.994    38766.720    13474.954       22.355        6.542      562.393      125.626        0.050      344.340       21.086      861.706
04/09/2014  14:12:00     -502.535     -301.345       -7.274      190.964      182.080       97.111    36467.097    33153.017     9430.524       21.121        3.953      585.961      112.367        0.037      344.311       21.036      861.686
04/09/2014  14:13:00     -455.879     -279.629       -6.978      215.577      187.705       90.453    46473.435    35233.137     8181.818       18.796        4.494      534.807       98.081        0.034      344.389       21.169      861.665
04/09/2014  14:14:00     -392.592     -157.443        4.638      192.454      185.241       97.715    37038.714    34314.123     9548.307       12.990        4.045      422.986       88.397        0.044      344.676       21.660      861.676
04/09/2014  14:15:00     -527.876     -269.763      -35.842      219.132      130.355       97.300    48019.007    16992.386     9467.295       21.358        3.724      592.811       93.476        0.025      344.447       21.269      861.702
04/09/2014  14:16:00     -240.439      -49.303       10.463      190.309      164.899       80.730    36217.626    27191.791     6517.282        6.513        3.496      245.442       98.622        0.161      344.697       21.696      861.709
04/09/2014  14:17:00     -531.364      -29.247      -23.598      181.374      196.768       88.630    32896.576    38717.652     7855.303       18.160        3.973      532.169       91.861        0.030      344.630       21.581      861.672
04/09/2014  14:18:00     -463.720     -127.307      -25.148      197.133      129.115       71.384    38861.359    16670.691     5095.714       14.624        3.031      480.878       66.990        0.019      344.574       21.485      861.644
04/09/2014  14:19:00     -632.128     -216.212      -27.882      225.198      151.821       88.246    50713.928    23049.470     7787.313       26.431        4.078      668.082      105.954        0.025      344.438       21.255      861.617
04/09/2014  14:20:00     -369.300      -95.063       -9.699      233.733      148.182       90.208    54631.054    21957.904     8137.517       11.510        4.236      381.339      104.289        0.075      344.841       21.943      861.601
04/09/2014  14:21:00     -446.764       28.191      -19.726      230.528      189.734       97.361    53143.043    35998.958     9479.076       14.968        4.931      447.653      108.803        0.059      344.769       21.819      861.629
04/09/2014  14:22:00     -437.901     -123.135      -21.131      189.512      175.736       87.976    35914.849    30883.228     7739.759       14.094        3.727      454.884       75.544        0.028      344.597       21.526      861.614
04/09/2014  14:23:00     -428.677     -145.313      -20.876      156.520      132.815       76.583    24498.522    17639.888     5864.933       12.665        2.400      452.636       68.877        0.023      344.701       21.703      861.639
04/09/2014  14:24:00     -405.037     -259.549        1.084      266.796      183.060       98.195    71180.166    33510.881     9642.345       17.285        5.717      481.062      119.588        0.062      344.532       21.414      861.646
04/09/2014  14:25:00     -421.880     -300.612       -1.603      236.175      158.394       88.031    55778.606    25088.655     7749.454       17.847        4.431      518.025       96.979        0.035      344.408       21.203      861.677
04/09/2014  14:26:00     -322.246     -142.394      -12.669      149.350      171.262       83.294    22305.286    29330.634     6937.838        9.141        2.929      352.305       69.955        0.039      344.537       21.423      861.668
04/09/2014  14:27:00     -323.853     -267.954      -10.590      183.747      162.908       82.124    33762.860    26538.889     6744.410       12.191        3.352      420.333       89.491        0.045      344.489       21.340      861.667
04/09/2014  14:28:00     -405.885     -277.079      -21.287      159.170      121.420       70.011    25335.170    14742.749     4901.572       14.346        2.249      491.442       57.850        0.014      344.222       20.883      861.662
04/09/2014  14:29:00      -78.794     -217.389       17.803      138.822      127.072       62.098    19271.494    16147.393     3856.175        4.652        1.964      231.229       54.849        0.056      344.455       21.281      861.645
04/09/2014  14:30:00     -156.893     -191.041       14.635      112.171      104.887       49.682    12582.318    11001.237     2468.281        4.368        1.303      247.209       39.340        0.025      344.740       21.771      861.638
04/09/2014  14:31:00     -169.508      -81.143       21.578      125.231       75.494       44.811    15682.698     5699.330     2008.070        2.958        1.170      187.928       41.878        0.050      344.902       22.048      861.617
04/09/2014  14:32:00     -396.414      -91.885      -29.617      199.481      175.190       72.189    39792.630    30691.519     5211.298       12.106        3.785      406.924       81.681        0.040      344.613       21.552      861.621
04/09/2014  14:33:00     -281.778     -118.932        1.534      171.366      134.589       79.753    29366.333    18114.094     6360.492        7.368        2.692      305.849       87.100        0.081      344.725       21.743      861.621
04/09/2014  14:34:00     -201.514     -145.174        5.138      187.474      126.124       68.998    35146.644    15907.250     4760.668        5.875        2.791      248.361       95.688        0.148      344.808       21.886      861.650
04/09/2014  14:35:00     -213.154     -132.592       -2.330      138.313       79.669       49.744    19130.466     6347.139     2474.494        4.548        1.398      251.028       26.397        0.011      344.649       21.615      861.612
04/09/2014  14:36:00     -333.888     -177.385      -11.801      146.962      119.632       69.052    21597.950    14311.886     4768.240        9.187        2.034      378.082       64.185        0.029      344.412       21.207      861.584
04/09/2014  14:37:00     -266.029     -209.413        5.500      160.766      133.969       85.011    25845.796    17947.711     7226.897        8.283        2.551      338.564       91.234        0.073      344.524       21.400      861.568
04/09/2014  14:38:00     -264.479     -262.916        5.711      155.140      167.401       94.349    24068.454    28023.221     8901.753       10.004        3.050      372.926       91.837        0.061      344.419       21.221      861.535
04/09/2014  14:39:00     -274.601     -175.924       -8.457      120.406       88.406       59.749    14497.567     7815.543     3569.954        6.615        1.294      326.121       59.319        0.033      344.419       21.220      861.536
04/09/2014  14:40:00     -332.136     -170.420       -3.339      174.767      121.239       77.291    30543.505    14698.781     5973.916        9.528        2.561      373.306       81.393        0.048      344.701       21.703      861.541
04/09/2014  14:41:00     -230.714     -186.114       27.666      219.365      164.611       99.404    48120.803    27096.677     9881.234        8.685        4.255      296.424      120.034        0.164      344.633       21.588      861.539
04/09/2014  14:42:00     -252.487     -159.322        9.772      199.402      165.294       68.949    39761.350    27322.067     4754.008        8.052        3.592      298.552       86.981        0.085      344.861       21.978      861.532
04/09/2014  14:43:00     -315.640      -68.170      -25.987      116.886       85.469       58.472    13662.236     7304.872     3419.019        6.466        1.219      322.917       49.800        0.024      344.795       21.863      861.525
04/09/2014  14:44:00     -224.357     -129.178        5.568      187.996      121.444       80.363    35342.379    14748.552     6458.204        6.179        2.827      258.888       85.129        0.108      344.951       22.132      861.509
04/09/2014  14:45:00     -148.993     -129.342        2.943      116.638       93.794       52.138    13604.503     8797.224     2718.344        3.202        1.256      197.302       47.474        0.058      344.421       21.225      861.508
04/09/2014  14:46:00     -189.405      -37.083        2.676      125.322       89.006       56.288    15705.506     7921.998     3168.388        3.202        1.340      193.001       57.292        0.088      344.977       22.175      861.482
04/09/2014  14:47:00     -216.344      -68.200       15.426      170.146      166.199       78.064    28949.694    27622.067     6093.993        5.717        3.133      226.839       80.550        0.126      345.218       22.588      861.488
04/09/2014  14:48:00     -385.251     -144.184      -19.217      202.548      109.576       82.070    41025.695    12006.953     6735.515       11.466        2.988      411.348       99.164        0.058      344.922       22.081      861.500
04/09/2014  14:49:00     -358.332      -87.998      -20.629      189.280      124.496       72.796    35826.976    15499.279     5299.265        9.659        2.831      368.979       79.834        0.047      344.896       22.036      861.522
04/09/2014  14:50:00     -484.548     -154.262      -26.400      240.352      154.314       88.225    57769.211    23812.888     7783.639       17.431        4.468      508.511      101.525        0.040      344.807       21.885      861.508
04/09/2014  14:51:00     -304.709      -40.420      -21.233      153.632      136.581       58.622    23602.921    18654.262     3436.545        7.030        2.285      307.378       69.403        0.051      344.738       21.765      861.513
04/09/2014  14:52:00     -543.776      -10.573      -17.960      215.169      199.010       82.214    46297.620    39605.169     6759.181       19.438        4.633      543.879       95.207        0.031      344.873       21.997      861.457
04/09/2014  14:53:00     -716.110     -168.164      -46.902      261.036      260.108       95.089    68139.869    67655.939     9041.957       34.404        7.242      735.590       98.295        0.018      344.625       21.573      861.425
04/09/2014  14:54:00     -442.988     -118.421      -21.440      268.676      187.913      106.678    72186.969    35311.430    11380.213       16.478        5.944      458.544       87.876        0.037      344.753       21.793      861.441
04/09/2014  14:55:00     -629.263     -193.495      -25.173      201.693      173.538       86.812    40680.024    30115.396     7536.388       25.617        3.917      658.340       76.349        0.013      344.538       21.425      861.402
04/09/2014  14:56:00     -403.618     -143.697      -14.584      178.812      117.719       72.535    31973.584    13857.754     5261.287       11.742        2.555      428.434       58.580        0.019      344.807       21.885      861.415
04/09/2014  14:57:00     -247.533      -88.129        5.317      164.798      122.790       66.112    27158.442    15077.500     4370.802        5.783        2.330      262.754       78.980        0.090      345.098       22.385      861.401
04/09/2014  14:58:00     -414.000     -184.400        3.384      243.992      199.609      101.637    59532.107    39843.898    10330.112       15.754        5.485      453.210      101.400        0.050      344.862       21.979      861.390
04/09/2014  14:59:00     -397.391     -318.398      -12.330      250.027      210.058       99.536    62513.570    44124.229     9907.387       18.797        5.827      509.212      112.931        0.049      344.785       21.847      861.417
04/09/2014  15:00:00     -450.882     -277.314       -3.561      210.988      199.962      100.493    44516.014    39984.775    10098.934       18.739        4.730      529.337      107.627        0.041      344.698       21.699      861.432
04/09/2014  15:01:00     -508.257     -295.566        2.698      206.263      178.146      107.023    42544.574    31735.929    11453.979       21.570        4.287      587.949      117.848        0.040      344.683       21.670      861.424
04/09/2014  15:02:00     -226.012      -49.728       20.023      187.392      182.423       95.834    35115.872    33278.329     9184.125        6.575        3.879      231.418       98.822        0.182      344.893       22.032      861.461
04/09/2014  15:03:00     -423.555      -70.435      -13.809      149.618      181.298       79.016    22385.695    32868.864     6243.553       12.301        3.075      429.372       84.163        0.038      344.512       21.378      861.443
04/09/2014  15:04:00     -392.541     -122.685      -10.532      165.557      139.082       69.329    27409.090    19343.897     4806.461       11.039        2.578      411.266       77.513        0.036      344.777       21.835      861.408
04/09/2014  15:05:00     -388.177      -67.256       -1.425      141.086      118.412       88.415    19905.158    14021.300     7817.236        9.847        2.087      393.960       75.683        0.037      344.841       21.943      861.404
04/09/2014  15:06:00     -341.238      -56.533       10.244      227.153      157.585       91.333    51598.555    24833.035     8341.682       10.224        4.239      345.889       95.709        0.077      345.050       22.300      861.418
04/09/2014  15:07:00     -483.888     -226.826      -12.929      242.298      138.960       79.137    58708.229    19309.880     6262.706       18.501        4.214      534.413       92.103        0.030      344.755       21.796      861.411
04/09/2014  15:08:00     -371.272     -127.367      -20.779      167.712      139.668       89.056    28127.430    19507.085     7931.013       10.502        2.778      392.512       90.632        0.053      344.879       22.009      861.406
04/09/2014  15:09:00     -469.227     -109.861      -16.596      197.343      161.884       87.927    38944.089    26206.559     7731.108       15.269        3.644      481.916       88.481        0.034      344.943       22.116      861.385
04/09/2014  15:10:00     -494.159     -164.807      -34.463      142.664      173.817       76.111    20353.156    30212.367     5792.905       16.444        2.818      520.918       66.647        0.016      344.578       21.492      861.400
04/09/2014  15:11:00     -389.095     -152.587       -7.431      139.532      100.960       69.106    19469.218    10192.852     4775.695       10.458        1.722      417.945       61.803        0.022      344.640       21.599      861.397
04/09/2014  15:12:00     -283.503     -104.112      -15.868      111.028      123.922       60.676    12327.305    15356.643     3681.566        6.141        1.568      302.016       57.213        0.036      345.016       22.242      861.372
04/09/2014  15:13:00     -308.444       12.976        0.990      180.199       96.126       63.673    32471.779     9240.239     4054.207        7.053        2.288      308.716       75.595        0.060      345.178       22.520      861.373
04/09/2014  15:14:00     -208.696     -103.589       24.497      202.972      119.533       72.347    41197.584    14288.169     5234.113        5.779        3.036      232.991       85.127        0.133      345.319       22.763      861.378
04/09/2014  15:15:00     -398.468     -357.899      -12.924      206.877      140.585      105.749    42798.074    19764.159    11182.873       18.038        3.687      535.601      108.921        0.041      344.661       21.634      861.324
04/09/2014  15:16:00     -387.044     -284.968        0.331      187.207      193.525       84.598    35046.352    37451.962     7156.793       15.532        3.983      480.635       92.089        0.037      344.665       21.643      861.314
04/09/2014  15:17:00     -360.031     -247.103      -15.492      165.911      154.871       66.901    27526.557    23985.119     4475.804       12.344        2.799      436.672       81.089        0.034      344.651       21.617      861.313
04/09/2014  15:18:00     -329.388     -244.421        9.979      231.047      176.593       92.127    53382.872    31185.150     8487.433       13.068        4.653      410.169      111.985        0.075      344.791       21.857      861.301
04/09/2014  15:19:00     -638.314     -373.032      -18.738      293.450      229.547      113.282    86113.141    52691.672    12832.860       34.926        7.582      739.323      131.998        0.032      344.390       21.171      861.321
04/09/2014  15:20:00     -452.519     -361.519        1.385      285.969      203.353      136.914    81778.330    41352.257    18745.404       23.865        7.094      579.197      136.608        0.056      344.459       21.289      861.329
04/09/2014  15:21:00     -216.322     -126.852        1.317      211.386      196.513      103.298    44683.967    38617.546    10670.402        7.841        4.699      250.772       94.395        0.142      344.919       22.076      861.309
04/09/2014  15:22:00     -232.319      -79.784       10.819      251.542      165.395       94.340    63273.549    27355.457     8900.078        7.997        4.976      245.637      118.503        0.233      345.014       22.239      861.331
04/09/2014  15:23:00     -494.774     -102.004      -11.221      219.035      212.192      108.070    47976.481    45025.367    11679.026       17.999        5.234      505.179      121.579        0.058      344.931       22.096      861.283
04/09/2014  15:24:00     -460.759     -278.429      -17.395      210.722      185.988       93.027    44403.952    34591.559     8653.964       18.887        4.382      538.350      102.494        0.036      344.772       21.825      861.315
04/09/2014  15:25:00     -475.710     -138.979      -34.866      267.295      182.967      103.362    71446.660    33477.036    10683.760       18.120        5.780      495.596      109.099        0.048      344.838       21.939      861.323
04/09/2014  15:26:00     -678.746     -235.048      -20.652      187.396      190.939       92.362    35117.155    36457.573     8530.669       29.822        4.005      718.292       77.187        0.012      344.606       21.541      861.283
04/09/2014  15:27:00     -521.589      -58.049      -10.948      244.255      164.142      102.321    59660.458    26942.737    10469.586       18.629        4.854      524.810      127.371        0.059      344.713       21.724      861.317
04/09/2014  15:28:00     -426.096     -230.697        2.088      241.795      235.237      103.818    58464.965    55336.359    10778.130       17.966        6.229      484.540      115.534        0.057      344.762       21.807      861.320
04/09/2014  15:29:00     -426.403     -292.856        5.023      268.324      173.002      111.633    71997.987    29929.532    12461.887       19.098        5.719      517.285      123.233        0.057      344.563       21.467      861.276
04/09/2014  15:30:00     -238.284     -157.712        7.516      138.021      143.060       84.289    19049.924    20466.304     7104.567        6.416        2.331      285.749       88.768        0.097      344.573       21.485      861.263
04/09/2014  15:31:00     -183.235       53.968      -10.213       77.189      114.636       46.336     5958.180    13141.425     2147.033        2.892        1.062      191.018       35.946        0.035      345.104       22.393      861.239
04/09/2014  15:32:00     -306.467       -9.750      -12.429      223.462      111.730       79.085    49935.454    12483.603     6254.378        8.141        3.434      306.622       91.518        0.089      345.083       22.358      861.229
04/09/2014  15:33:00     -279.642     -148.543      -12.655      134.799      165.474       68.441    18170.742    27381.669     4684.140        7.532        2.512      316.646       57.418        0.033      344.859       21.975      861.255
04/09/2014  15:34:00     -398.485     -191.858        6.091      165.596      153.467       84.146    27422.104    23552.169     7080.631       12.683        2.903      442.266       85.376        0.037      344.826       21.918      861.273
04/09/2014  15:35:00     -399.676     -240.141       -8.625      198.697      174.678       90.919    39480.360    30512.401     8266.290       14.786        3.913      466.271      105.624        0.051      344.744       21.778      861.295
04/09/2014  15:36:00     -234.981      -96.239       -7.475      205.008       98.038       67.787    42028.281     9611.386     4595.094        6.037        2.812      253.926       96.918        0.146      344.635       21.591      861.279
04/09/2014  15:37:00     -302.299     -103.513       -4.769      188.219      151.722       78.475    35426.501    23019.552     6158.252        8.335        3.230      319.531       85.986        0.072      345.025       22.257      861.289
04/09/2014  15:38:00     -393.490     -207.122      -13.587      193.942      174.901       97.697    37613.466    30590.410     9544.769       13.782        3.887      444.673       97.135        0.048      344.717       21.730      861.293
04/09/2014  15:39:00     -455.193     -325.549      -18.064      232.684      163.929      100.130    54141.988    26872.765    10025.997       20.226        4.552      559.627      106.960        0.037      344.687       21.680      861.266
04/09/2014  15:40:00     -403.780     -274.491      -15.114      230.952      161.495       91.954    53338.789    26080.727     8455.488       16.323        4.394      488.246       86.757        0.032      344.504       21.366      861.292
04/09/2014  15:41:00     -310.975     -101.143      -12.528      186.825      139.915       86.383    34903.646    19576.340     7461.973        8.450        3.097      327.010       89.473        0.075      344.866       21.985      861.290
04/09/2014  15:42:00     -469.482     -160.720       -9.769      219.916      218.868       91.004    48363.099    47903.256     8281.812       17.542        5.227      496.230      105.411        0.045      344.626       21.575      861.292
04/09/2014  15:43:00     -265.153       39.127      -12.493      125.310       71.870       67.232    15702.539     5165.293     4520.165        4.869        1.269      268.024       69.964        0.068      344.741       21.772      861.244
04/09/2014  15:44:00     -192.995     -157.689        9.963      151.772      115.650       60.618    23034.613    13374.946     3674.568        5.114        2.004      249.225       72.849        0.085      344.722       21.740      861.232
04/09/2014  15:45:00     -262.044     -207.281      -15.429      152.262      154.163       69.869    23183.692    23766.185     4881.684        8.184        2.592      334.115       63.056        0.036      344.711       21.719      861.239
04/09/2014  15:46:00     -444.465     -271.125      -10.191      225.532      157.900       98.546    50864.652    24932.328     9711.338       17.832        4.275      520.632      107.563        0.043      344.720       21.735      861.240
04/09/2014  15:47:00     -484.227     -297.828      -12.737      217.984      166.777       90.749    47516.902    27814.561     8235.412       20.344        4.178      568.487      104.810        0.034      344.656       21.624      861.222
04/09/2014  15:48:00     -339.183     -202.977       -2.479      203.722      175.594       86.175    41502.661    30833.412     7426.068       11.799        3.988      395.278       99.092        0.063      344.730       21.752      861.249
04/09/2014  15:49:00     -253.709     -215.996        7.322      180.461      139.965       91.230    32566.146    19590.249     8322.900        8.577        3.024      333.200       94.278        0.080      344.840       21.941      861.276
04/09/2014  15:50:00     -301.567     -285.799        6.943      181.952      147.069       84.285    33106.558    21629.157     7103.955       11.724        3.092      415.480       87.616        0.044      344.728       21.748      861.288
04/09/2014  15:51:00     -224.765     -277.920        4.924      213.497      133.616       66.722    45580.812    17853.314     4451.776        9.782        3.394      357.434       81.478        0.052      344.437       21.251      861.284
04/09/2014  15:52:00     -132.204     -174.561       -0.487      121.062      144.134       55.251    14655.975    20774.528     3052.621        4.321        1.924      218.973       56.440        0.066      344.799       21.871      861.274
04/09/2014  15:53:00     -243.791     -184.305       -3.549      214.498      125.273       70.008    46009.568    15693.270     4901.071        8.000        3.330      305.618       82.417        0.073      344.766       21.814      861.233
04/09/2014  15:54:00     -359.753     -422.650       -6.324      215.379      161.771       95.311    46388.177    26169.865     9084.216       19.485        4.082      555.027       91.832        0.027      344.771       21.823      861.199
04/09/2014  15:55:00     -528.681     -394.704       -9.933      237.976      191.283      117.018    56632.594    36589.067    13693.245       27.113        5.346      659.769      131.083        0.039      344.557       21.456      861.241
04/09/2014  15:56:00     -313.639     -289.909       -8.331      188.311      179.280       76.951    35460.908    32141.401     5921.449       12.799        3.676      427.102       83.459        0.038      344.629       21.579      861.269
04/09/2014  15:57:00     -304.971     -200.476        7.404      210.204      126.882       86.975    44185.632    16099.056     7564.634       10.054        3.392      364.963       97.428        0.071      344.815       21.899      861.273
04/09/2014  15:58:00     -239.990     -166.811       -6.644      152.932      112.098       74.865    23388.195    12566.018     5604.713        6.350        2.078      292.269       76.109        0.068      344.815       21.899      861.272
04/09/2014  15:59:00     -248.001     -152.946        3.882      155.965      107.137       79.382    24325.194    11478.314     6301.549        6.350        2.105      291.370       80.063        0.076      344.970       22.163      861.258
04/09/2014  16:00:00     -210.019     -173.832       -0.369      178.922      119.360       66.315    32012.961    14246.893     4397.722        6.248        2.533      272.627       79.434        0.085      344.822       21.910      861.263
04/09/2014  16:01:00     -232.514     -126.356       -6.235      141.884      124.689       66.650    20131.079    15547.252     4442.283        5.509        2.006      264.629       74.024        0.078      344.702       21.704      861.243
04/09/2014  16:02:00     -252.463      -48.636        6.951      154.958      133.834       76.090    24011.885    17911.486     5789.673        5.692        2.386      257.105       84.059        0.107      344.984       22.188      861.185
04/09/2014  16:03:00     -132.770      -89.267       27.148      173.870      116.674       65.278    30230.706    13612.776     4261.239        3.721        2.405      159.989       72.637        0.206      345.126       22.432      861.184
04/09/2014  16:04:00     -267.776     -257.264        2.399      209.913      160.590       77.261    44063.445    25789.041     5969.263       10.684        3.791      371.334       88.304        0.057      344.911       22.063      861.177
04/09/2014  16:05:00     -563.599     -294.373       -7.400      252.766      171.202      101.879    63890.864    29310.147    10379.394       25.395        5.179      635.845      117.484        0.034      344.647       21.612      861.138
04/09/2014  16:06:00     -344.028     -199.420       15.014      193.636      156.615       98.240    37494.976    24528.236     9651.185       11.500        3.584      397.647      101.648        0.065      344.758       21.800      861.183
04/09/2014  16:07:00     -450.427     -360.160       -3.275      225.098      221.807      113.032    50669.037    49198.130    12776.300       22.260        5.632      576.715      122.519        0.045      344.590       21.514      861.196
04/09/2014  16:08:00     -491.598     -286.179      -28.441      211.646      145.670       89.512    44794.227    21219.781     8012.461       19.919        3.701      568.829       93.938        0.027      344.483       21.331      861.226
04/09/2014  16:09:00     -459.430     -198.328      -18.610      230.539      163.533       97.840    53148.309    26743.068     9572.760       17.009        4.473      500.410      106.989        0.046      344.674       21.657      861.196
04/09/2014  16:10:00     -440.679     -121.612       -3.806      167.048      124.999       76.401    27905.060    15624.660     5837.105       12.917        2.468      457.152       76.049        0.028      344.654       21.623      861.223
04/09/2014  16:11:00     -506.928     -265.780      -25.992      195.632      200.929       97.796    38272.018    40372.372     9563.987       20.823        4.410      572.377       89.868        0.025      344.484       21.331      861.195
04/09/2014  16:12:00     -435.122     -127.290      -22.078      158.194      138.543       67.890    25025.263    19194.282     4608.989       12.742        2.441      453.358       51.471        0.013      344.701       21.702      861.196
04/09/2014  16:13:00     -416.280     -207.833        0.611      217.130      187.631      102.078    47145.396    35205.263    10419.885       15.461        4.639      465.278      117.094        0.063      344.630       21.582      861.144
04/09/2014  16:14:00     -387.177      -73.780       14.828      201.206      160.973       99.854    40483.818    25912.467     9970.882       11.595        3.818      394.144      113.119        0.082      344.798       21.870      861.139
04/09/2014  16:15:00     -416.893     -270.178        3.244      172.496      229.061      104.863    29754.786    52468.827    10996.354       16.999        4.661      496.786      103.297        0.043      344.798       21.869      861.178
04/09/2014  16:16:00     -376.508     -234.979       -1.622      169.120      200.034      106.104    28601.544    40013.720    11257.978       13.841        3.994      443.817      103.911        0.055      344.864       21.982      861.150
04/09/2014  16:17:00     -320.263     -222.718       -7.551      243.708      211.697       86.080    59393.561    44815.529     7409.790       13.190        5.581      390.092      122.258        0.098      344.939       22.110      861.161
04/09/2014  16:18:00     -444.826     -305.978      -17.376      200.046      126.674       87.066    40018.554    16046.249     7580.515       17.771        3.182      539.900      102.212        0.036      344.494       21.349      861.140
04/09/2014  16:19:00     -270.827     -271.180       -1.352      180.989      189.376       86.712    32757.108    35863.272     7518.884       11.150        3.807      383.257       92.815        0.059      344.675       21.657      861.126
04/09/2014  16:20:00     -290.817     -160.401        3.683      202.412      142.741       91.133    40970.452    20374.911     8305.135        8.997        3.483      332.119      112.255        0.114      344.940       22.112      861.112
04/09/2014  16:21:00     -451.698     -119.824       -2.309      207.631      163.251       89.871    43110.606    26650.906     8076.827       14.810        3.892      467.321       97.175        0.043      344.881       22.012      861.101
04/09/2014  16:22:00     -446.219     -112.828       -3.155      230.791      154.221       83.712    53264.315    23784.065     7007.774       14.794        4.203      460.263      100.887        0.048      344.936       22.108      861.142
04/09/2014  16:23:00     -434.377      -26.173      -21.614      233.977      234.144       91.952    54745.370    54823.366     8455.212       15.391        5.901      435.165      118.047        0.074      345.039       22.282      861.147
04/09/2014  16:24:00     -578.383     -347.746       -9.189      188.938      158.650      102.381    35697.623    25169.864    10481.836       26.343        3.567      674.874       93.036        0.019      344.754       21.793      861.201
04/09/2014  16:25:00     -322.520     -221.540      -17.066      183.780      132.771       74.712    33775.075    17628.200     5581.809       10.518        2.849      391.279       64.783        0.027      344.616       21.557      861.201
04/09/2014  16:26:00     -378.742     -230.497       -5.456      169.761      142.719       88.775    28818.779    20368.666     7880.924       12.682        2.853      443.367       88.119        0.040      344.797       21.867      861.151
04/09/2014  16:27:00     -252.564     -181.265       10.526      205.660      156.178       95.935    42295.838    24391.719     9203.473        8.631        3.795      310.879      107.601        0.120      344.970       22.163      861.145
04/09/2014  16:28:00     -488.870     -305.499      -37.259      225.846      201.009       96.718    51006.313    40404.528     9354.325       21.722        5.038      576.475      107.400        0.035      344.645       21.608      861.148
04/09/2014  16:29:00     -495.715     -317.197      -16.076      259.345      210.817      105.140    67259.798    44443.808    11054.515       23.466        6.138      588.513      114.918        0.038      344.548       21.443      861.131
04/09/2014  16:30:00     -473.526     -361.368       -3.226      277.003      201.610      116.741    76730.483    40646.500    13628.502       24.289        6.550      595.663      140.858        0.056      344.503       21.364      861.141
04/09/2014  16:31:00     -483.334     -324.469       -9.956      207.996      143.689       82.765    43262.435    20646.460     6849.996       20.486        3.538      582.144      100.097        0.030      344.434       21.247      861.128
04/09/2014  16:32:00     -374.750     -255.105        4.045      191.321      153.930       77.472    36603.560    23694.518     6001.976       13.590        3.315      453.339       88.168        0.038      344.640       21.598      861.146
04/09/2014  16:33:00     -204.336     -149.290       -7.807      153.302      125.081       69.694    23501.597    15645.333     4857.194        5.404        2.200      253.063       85.928        0.115      344.819       21.906      861.134
04/09/2014  16:34:00     -359.948     -308.040       -1.513      217.559      215.245      106.438    47332.118    46330.518    11329.045       16.470        5.250      473.763      100.394        0.045      344.806       21.882      861.118
04/09/2014  16:35:00     -370.152     -224.761       -4.359      182.603      147.086       89.273    33343.811    21634.383     7969.714       12.524        3.147      433.048       85.772        0.039      344.880       22.009      861.149
04/09/2014  16:36:00     -531.585     -256.885       -7.816      209.969      183.017       90.411    44086.888    33495.323     8174.081       21.718        4.288      590.400       96.737        0.027      344.715       21.726      861.151
04/09/2014  16:37:00     -328.139     -126.448       -9.277      167.178      168.105       88.603    27948.509    28259.252     7850.430        9.389        3.203      351.660       89.706        0.065      344.900       22.044      861.191
04/09/2014  16:38:00     -519.223     -299.600      -19.055      270.747      217.096      104.166    73304.046    47130.719    10850.531       24.547        6.564      599.460      114.128        0.036      344.742       21.774      861.151
04/09/2014  16:39:00     -431.608     -116.834       -4.149      209.122      151.804       82.657    43732.013    23044.367     6832.257       13.677        3.680      447.141       92.153        0.042      344.695       21.691      861.182
04/09/2014  16:40:00     -512.689     -215.738      -21.711      217.954      179.259       94.063    47503.782    32133.674     8847.935       19.916        4.424      556.231       90.953        0.027      344.565       21.470      861.176
04/09/2014  16:41:00     -402.980     -129.966      -10.823      251.125      153.226      106.746    63063.748    23478.241    11394.770       13.865        4.897      423.420      106.206        0.063      344.651       21.617      861.155
04/09/2014  16:42:00     -366.228     -193.647      -21.970      230.984      203.907      105.593    53353.491    41578.120    11149.829       13.907        5.304      414.273      116.218        0.079      344.780       21.837      861.183
04/09/2014  16:43:00     -454.115     -240.857        4.325      240.940      204.296       90.860    58052.017    41736.966     8255.568       18.613        5.402      514.036      106.266        0.043      344.725       21.744      861.175
04/09/2014  16:44:00     -376.604     -169.844       -2.304      224.545      151.025       86.138    50420.297    22808.656     7419.791       12.565        4.032      413.131      104.958        0.065      344.507       21.370      861.175
04/09/2014  16:45:00     -273.547      -80.276       11.086      175.039      141.964       80.495    30638.574    20153.636     6479.492        6.932        2.864      285.082       88.952        0.097      344.756       21.797      861.145
04/09/2014  16:46:00     -454.294     -260.882        1.459      259.419      195.923      104.554    67298.411    38386.017    10931.439       19.551        5.831      523.872      120.882        0.053      344.561       21.463      861.145
04/09/2014  16:47:00     -455.586     -218.148       19.852      270.832      193.361       99.568    73350.105    37388.509     9913.818       18.807        6.033      505.121      124.585        0.061      344.603       21.535      861.117
04/09/2014  16:48:00     -540.173     -308.071      -19.093      202.800      228.187      102.427    41127.665    52069.283    10491.248       24.535        5.184      621.847       99.814        0.026      344.461       21.292      861.135
04/09/2014  16:49:00     -472.423     -300.213       -2.673      196.783      150.721       82.708    38723.403    22716.905     6840.587       19.079        3.414      559.742       85.573        0.023      344.400       21.188      861.177
04/09/2014  16:50:00     -342.590     -236.779      -17.405      169.689      124.974       77.205    28794.244    15618.414     5960.668       11.204        2.519      416.452       77.787        0.035      344.472       21.311      861.178
04/09/2014  16:51:00     -424.884     -217.504      -28.468      203.306      178.392       97.493    41333.310    31823.723     9504.797       15.564        4.133      477.320       87.922        0.034      344.371       21.138      861.166
04/09/2014  16:52:00     -287.909     -192.488        1.664      153.607      148.645       76.497    23595.158    22095.318     5851.820        8.573        2.577      346.328       68.855        0.040      344.505       21.369      861.168
04/09/2014  16:53:00     -513.985     -330.698        4.595      227.935      181.180       99.365    51954.415    32826.279     9873.357       23.409        4.733      611.181      118.140        0.037      344.386       21.164      861.142
04/09/2014  16:54:00     -436.069     -258.437       -8.815      258.338      187.520      106.040    66738.565    35163.773    11244.523       18.506        5.657      506.898      117.053        0.053      344.519       21.392      861.121
04/09/2014  16:55:00     -488.751     -327.077      -27.140      267.205      217.342      101.314    71398.250    47237.618    10264.545       23.772        6.445      588.096      121.622        0.043      344.370       21.137      861.124
04/09/2014  16:56:00     -402.581     -201.362      -11.508      198.235      168.676       78.436    39297.067    28451.479     6152.132       13.831        3.695      450.131       77.923        0.030      344.461       21.292      861.156
04/09/2014  16:57:00     -258.257     -190.837       -7.101      201.118      136.805       97.344    40448.255    18715.690     9475.933        8.589        3.432      321.116       98.765        0.095      344.524       21.401      861.165
04/09/2014  16:58:00     -307.366     -170.133       -7.864      179.902      117.322       77.166    32364.860    13764.469     5954.554        8.777        2.604      351.311       76.756        0.048      344.665       21.641      861.156
04/09/2014  16:59:00     -325.372     -303.763       -9.321      198.721      173.081       99.439    39489.926    29956.975     9888.164       13.876        3.967      445.128      107.286        0.058      344.542       21.430      861.169
04/09/2014  17:00:00     -388.015     -288.502      -16.355      209.665      190.620       97.665    43959.609    36335.821     9538.495       16.193        4.492      483.517      122.383        0.064      344.454       21.279      861.135
04/09/2014  17:01:00     -302.041     -140.392       12.553      202.503      163.415       81.250    41007.381    26704.408     6601.528        9.269        3.716      333.074       81.500        0.060      344.450       21.273      861.102
04/09/2014  17:02:00     -251.846     -137.044        0.252      161.307      129.766       72.672    26019.938    16839.122     5281.212        6.516        2.407      286.718       65.373        0.052      344.669       21.649      861.109
04/09/2014  17:03:00     -363.963     -255.627      -10.222      220.268      172.729       99.447    48518.051    29835.147     9889.716       14.306        4.412      444.763      113.901        0.066      344.656       21.626      861.081
04/09/2014  17:04:00     -438.593     -192.781      -17.259      203.533      203.709      102.013    41425.792    41497.245    10406.742       16.156        4.666      479.091       97.623        0.042      344.573       21.483      861.054
04/09/2014  17:05:00     -448.449     -158.136      -11.903      253.010      195.188      104.217    64013.856    38098.265    10861.141       16.959        5.649      475.514      107.603        0.051      344.544       21.434      861.068
04/09/2014  17:06:00     -368.252     -128.638       -8.470      216.940      178.958       77.563    47062.858    32025.945     6016.012       11.865        4.255      390.073       80.656        0.043      344.843       21.948      861.095
04/09/2014  17:07:00     -400.184     -233.680        0.356      264.594      175.228      102.839    70010.236    30704.712    10575.921       16.300        5.565      463.416      133.408        0.083      344.689       21.683      861.130
04/09/2014  17:08:00     -482.794     -336.695        4.563      221.939      165.349      107.131    49257.049    27340.310    11476.950       21.726        4.404      588.603      115.441        0.038      344.441       21.260      861.096
04/09/2014  17:09:00     -529.339     -338.379      -14.536      232.754      193.117      110.791    54174.275    37294.151    12274.646       24.931        5.187      628.251      123.668        0.039      344.366       21.129      861.093
04/09/2014  17:10:00     -332.408     -158.893       10.260      229.740      174.269      100.958    52780.468    30369.728    10192.469       11.458        4.667      368.432      114.664        0.097      344.446       21.268      861.094
04/09/2014  17:11:00     -405.017     -298.748      -20.440      235.076      193.711      102.642    55260.667    37523.991    10535.392       17.849        5.166      503.279      130.515        0.067      344.413       21.210      861.073
04/09/2014  17:12:00     -358.423     -218.155       -2.183      184.139      186.316       81.792    33907.204    34713.593     6689.952       12.567        3.766      419.593       88.796        0.045      344.595       21.523      861.064
04/09/2014  17:13:00     -230.112     -227.220       -6.911      195.833      160.906       76.433    38350.551    25890.871     5841.948        8.734        3.504      323.389       91.340        0.080      344.652       21.618      861.067
04/09/2014  17:14:00     -422.192     -280.825      -17.270      191.409      153.472       81.444    36637.321    23553.551     6633.102       16.210        3.341      507.059      101.862        0.040      344.471       21.310      861.035
04/09/2014  17:15:00     -522.472     -222.539      -25.241      216.669      222.742       96.126    46945.645    49614.078     9240.293       21.445        5.290      567.891      100.227        0.031      344.468       21.305      861.030
04/09/2014  17:16:00     -683.844     -258.538      -30.722      238.631      228.082      110.260    56944.569    52021.261    12157.282       32.825        6.056      731.085       99.872        0.019      344.280       20.984      861.004
04/09/2014  17:17:00     -460.535     -216.031       12.653      295.301      221.177      123.514    87202.714    48919.344    15255.755       20.512        7.569      508.687      151.505        0.089      344.470       21.308      860.982
04/09/2014  17:18:00     -525.024     -403.071      -11.372      310.164      228.791      111.552    96201.651    52345.097    12443.918       29.959        8.050      661.904      132.611        0.040      344.400       21.188      860.997
04/09/2014  17:19:00     -528.142     -385.645       -3.282      305.790      235.895      140.155    93507.370    55646.482    19643.520       29.820        8.440      653.954      169.109        0.067      344.271       20.968      861.023
04/09/2014  17:20:00     -510.369     -337.708       -1.141      265.316      259.612      126.901    70392.620    67398.238    16103.844       26.418        7.695      611.983      140.755        0.053      344.160       20.778      861.028
04/09/2014  17:21:00     -469.129     -210.189       -3.371      205.822      166.858       84.179    42362.894    27841.459     7086.173       17.077        3.865      514.063       90.266        0.031      344.279       20.981      861.044
04/09/2014  17:22:00     -507.436     -284.559      -18.190      201.207      162.982      101.376    40484.419    26563.140    10277.129       20.805        3.866      581.778      114.319        0.039      344.314       21.041      861.044
04/09/2014  17:23:00     -435.586     -217.404       -9.216      261.116      144.583       94.446    68181.320    20904.253     8920.131       16.753        4.900      486.826      111.128        0.052      344.335       21.078      861.063
04/09/2014  17:24:00     -404.313     -243.008      -22.051      229.385      133.615       98.100    52617.318    17852.841     9623.614       15.154        4.005      471.722      107.657        0.052      344.372       21.139      861.045
04/09/2014  17:25:00     -522.874     -239.643      -34.205      241.144      181.596      104.895    58150.518    32977.012    11003.044       21.704        5.107      575.174      111.573        0.038      344.378       21.152      861.008
04/09/2014  17:26:00     -364.519     -197.994        2.233      272.345      243.936      135.341    74171.922    59504.555    18317.160       16.201        7.600      414.820      150.684        0.132      344.425       21.231      860.978
04/09/2014  17:27:00     -444.623     -121.109      -18.468      193.489      178.496       86.112    37438.054    31860.727     7415.326       14.469        3.836      460.822       80.541        0.031      344.487       21.338      861.017
04/09/2014  17:28:00     -344.898     -166.070        2.773      297.442      181.788      101.162    88471.573    33046.974    10233.786       13.912        6.588      382.797      142.011        0.138      344.425       21.231      861.008
04/09/2014  17:29:00     -348.548     -187.247      -12.307      200.497      149.846       90.441    40198.889    22453.879     8179.583       11.375        3.542      395.660      101.299        0.066      344.445       21.265      860.987
04/09/2014  17:30:00     -310.114     -194.688       -5.736      141.236      121.944       73.305    19947.619    14870.267     5373.631        8.714        2.010      366.162       69.927        0.036      344.597       21.525      861.006
04/09/2014  17:31:00     -393.389     -157.537        7.400      208.589      173.901       95.505    43509.297    30241.519     9121.262       13.123        4.144      423.760      103.476        0.060      344.481       21.326      861.027
04/09/2014  17:32:00     -430.092     -206.865      -15.033      207.996      185.056       86.853    43262.471    34245.898     7543.402       15.651        4.253      477.255       93.247        0.038      344.444       21.262      861.013
04/09/2014  17:33:00     -277.750     -247.098       21.431      265.980      196.906      116.804    70745.455    38771.795    13643.060       13.089        6.158      371.756      135.564        0.133      344.402       21.193      860.979
04/09/2014  17:34:00     -503.045     -311.125       -7.221      255.083      200.944      125.104    65067.293    40378.652    15650.939       23.548        6.055      591.483      136.910        0.054      344.309       21.034      861.022
04/09/2014  17:35:00     -405.530     -277.844        7.289      245.932      192.206      110.748    60482.492    36943.069    12265.059       17.568        5.485      491.581      121.135        0.061      344.235       20.909      860.986
04/09/2014  17:36:00     -608.503     -280.227      -13.863      243.156      190.835      102.968    59124.797    36417.921    10602.390       27.755        5.307      669.928      112.928        0.028      344.173       20.802      861.005
04/09/2014  17:37:00     -442.395     -284.196       -2.873      230.077      200.681      110.418    52935.280    40273.012    12192.164       19.092        5.270      525.814      109.167        0.043      344.245       20.925      861.000
04/09/2014  17:38:00     -548.746     -230.747      -25.985      281.656      212.163      118.731    79330.004    45013.311    14097.102       24.671        6.922      595.286      145.441        0.060      344.228       20.894      860.996
04/09/2014  17:39:00     -585.233     -160.117      -18.807      262.802      209.900      112.982    69064.860    44058.198    12764.915       24.716        6.294      606.741      127.635        0.044      344.203       20.853      860.988
04/09/2014  17:40:00     -388.175     -130.028        4.098      221.824      203.425      105.464    49205.897    41381.647    11122.593       13.464        5.086      409.374      120.657        0.087      344.205       20.856      860.991
04/09/2014  17:41:00     -441.760     -226.669      -15.519      276.445      192.886      109.404    76421.845    37204.818    11969.208       18.616        6.280      496.518      125.233        0.064      344.287       20.996      860.970
04/09/2014  17:42:00     -608.928     -249.883       -2.266      290.730      189.308      113.510    84524.215    35837.495    12884.408       28.322        6.662      658.206      132.590        0.041      344.180       20.813      860.941
04/09/2014  17:43:00     -435.779     -263.515        5.066      293.212      232.296      101.539    85973.266    53961.219    10310.149       20.478        7.512      509.257      124.326        0.060      344.257       20.945      860.961
04/09/2014  17:44:00     -413.737     -299.458        9.139      255.280      218.060      106.159    65167.930    47550.035    11269.768       19.244        6.199      510.738      125.777        0.061      344.185       20.820      860.978
04/09/2014  17:45:00     -463.955     -279.847       -9.750      267.734      173.741      117.431    71681.530    30185.826    13790.104       20.464        5.783      541.820      136.330        0.063      344.214       20.871      860.943
04/09/2014  17:46:00     -564.069     -347.213      -19.445      255.411      216.568      113.972    65234.679    46901.887    12989.625       28.209        6.256      662.368      119.142        0.032      344.106       20.685      860.954
04/09/2014  17:47:00     -507.315     -265.310      -29.371      230.594      187.231       94.389    53173.646    35055.486     8909.238       21.286        4.857      572.501       99.121        0.030      344.077       20.637      860.961
04/09/2014  17:48:00     -420.205     -235.368        6.413      189.901      175.505       84.298    36062.566    30802.179     7106.167       15.298        3.699      481.633       97.287        0.041      344.182       20.816      860.972
04/09/2014  17:49:00     -391.254     -305.947       14.917      201.545      163.403      105.975    40620.274    26700.509    11230.649       16.271        3.928      496.672      105.319        0.045      344.164       20.785      860.947
04/09/2014  17:50:00     -236.028     -147.071       21.921      213.138      161.164      102.445    45427.644    25973.901    10495.013        7.984        4.095      278.099      128.332        0.213      344.328       21.066      860.945
04/09/2014  17:51:00     -335.469     -140.156        1.945      245.877      165.168       97.648    60455.318    27280.505     9535.126       11.471        4.864      363.570      122.143        0.113      344.457       21.286      860.923
04/09/2014  17:52:00     -353.185     -226.072      -25.076      222.784      186.723       96.165    49632.860    34865.311     9247.786       13.509        4.687      419.343      102.002        0.059      344.418       21.219      860.950
04/09/2014  17:53:00     -388.696     -172.143      -10.330      265.162      204.426      114.326    70310.775    41790.055    13070.400       15.297        6.259      425.109      128.511        0.091      344.311       21.037      860.938
04/09/2014  17:54:00     -675.564     -286.283      -17.804      267.558      200.476      109.206    71587.099    40190.452    11925.977       33.116        6.185      733.720      124.932        0.029      343.993       20.494      860.937
04/09/2014  17:55:00     -607.102      -51.344      -17.557      249.183      201.160      131.051    62092.256    40465.178    17174.242       24.560        5.987      609.269      144.246        0.056      344.080       20.642      860.921
04/09/2014  17:56:00     -570.788     -102.208      -37.309      224.359      197.407      103.460    50336.993    38969.332    10703.975       21.880        5.001      579.867      102.878        0.031      344.159       20.776      860.960
04/09/2014  17:57:00     -560.407     -169.806      -22.371      252.757      176.931      103.066    63886.180    31304.721    10622.540       22.458        5.291      585.568      112.403        0.037      344.076       20.635      860.939
04/09/2014  17:58:00     -450.408     -109.069        0.610      303.805      202.993      114.701    92297.643    41206.289    13156.252       18.068        7.333      463.426      136.157        0.086      344.198       20.844      860.931
04/09/2014  17:59:00     -551.658     -260.021      -25.375      268.825      203.008      120.565    72266.787    41212.280    14535.880       25.027        6.401      609.867      132.986        0.048      344.055       20.599      860.935
04/09/2014  18:00:00     -441.123     -136.729       -0.973      237.923      190.636      105.271    56607.512    36341.945    11082.010       15.864        5.202      461.827      115.849        0.063      344.155       20.769      860.966
04/09/2014  18:01:00     -360.054     -317.910       18.207      278.262      225.476      125.327    77429.572    50839.279    15706.898       18.748        7.199      480.318      147.000        0.094      344.141       20.745      860.956
04/09/2014  18:02:00     -454.442     -398.363      -19.487      203.051      178.222      119.277    41229.835    31762.908    14227.037       22.639        4.361      604.326      114.608        0.036      344.025       20.548      860.959
04/09/2014  18:03:00     -428.914     -355.898       -9.164      244.627      205.374      131.771    59842.484    42178.643    17363.540       21.503        5.969      557.343      142.963        0.066      343.977       20.467      860.953
04/09/2014  18:04:00     -485.289     -221.154      -22.898      294.777      223.513      116.691    86893.653    49957.982    13616.676       21.767        7.523      533.305      110.151        0.043      343.972       20.457      860.965
04/09/2014  18:05:00     -511.674     -373.812      -22.062      243.711      231.090      128.944    59395.267    53402.373    16626.622       26.570        6.471      633.676      145.541        0.053      343.962       20.441      860.943
04/09/2014  18:06:00     -497.501     -255.884      -16.984      244.527      198.608      115.573    59793.537    39445.331    13357.052       21.291        5.630      559.449      115.198        0.042      343.948       20.418      860.941
04/09/2014  18:07:00     -431.136     -233.867       -4.793      231.700      218.386      106.891    53685.100    47692.284    11425.588       17.668        5.640      490.481      104.791        0.046      343.958       20.433      860.964
04/09/2014  18:08:00     -308.992     -200.697       -1.478      202.501      166.240       96.866    41006.472    27635.764     9382.966       10.688        3.901      368.450      105.411        0.082      343.993       20.493      860.968
04/09/2014  18:09:00     -399.107     -273.022       -5.667      261.186      179.925       90.885    68218.122    32373.130     8259.994       17.133        5.443      483.557      103.251        0.046      343.991       20.490      860.948
04/09/2014  18:10:00     -384.006      -67.503      -17.942      200.699      188.030       84.706    40280.005    35355.290     7175.142       11.756        4.141      389.894       93.019        0.057      344.085       20.651      860.998
04/09/2014  18:11:00     -394.585     -119.559      -18.761      229.639      172.976      102.064    52734.251    29920.804    10416.962       13.169        4.654      412.300      111.738        0.073      344.044       20.580      861.008
04/09/2014  18:12:00     -409.023     -256.729       -6.777      254.942      177.340       88.179    64995.673    31449.446     7775.544       16.872        5.211      482.918      105.765        0.048      344.000       20.504      861.025
04/09/2014  18:13:00     -335.701      -83.077       14.173      178.207      134.408       76.573    31757.743    18065.604     5863.371        8.773        2.784      345.828       81.624        0.056      343.968       20.449      861.031
04/09/2014  18:14:00     -424.099     -204.524      -14.785      219.917      182.995       99.678    48363.389    33487.241     9935.738       15.683        4.589      470.840      107.552        0.052      343.907       20.346      861.019
04/09/2014  18:15:00     -402.906     -324.851      -24.456      210.726      160.589      113.660    44405.337    25788.891    12918.550       17.577        4.156      517.553      111.855        0.047      343.878       20.296      860.990
04/09/2014  18:16:00     -206.830        3.298        8.522      204.165      148.202       79.472    41683.176    21963.947     6315.720        5.640        3.498      206.856       85.252        0.170      344.081       20.645      860.993
04/09/2014  18:17:00     -226.144     -138.782       12.165      233.270      146.796       88.251    54414.933    21549.089     7788.208        7.713        4.188      265.332      106.956        0.162      344.063       20.615      861.030
04/09/2014  18:18:00     -442.752     -258.940      -20.838      227.560      230.731      105.011    51783.629    53236.633    11027.307       18.976        5.802      512.912      100.486        0.038      343.884       20.306      861.029
04/09/2014  18:19:00     -455.307     -295.952        7.395      279.383      257.600      122.382    78054.940    66357.728    14977.288       22.714        7.969      543.039      142.036        0.068      343.835       20.223      861.001
04/09/2014  18:20:00     -474.730     -294.981       -7.976      284.207      201.893      108.913    80773.335    40760.894    11862.140       22.289        6.670      558.911      111.237        0.040      343.800       20.165      860.979
04/09/2014  18:21:00     -356.754     -190.612       -4.236      161.892      211.855       92.981    26208.937    44882.431     8645.379       12.166        3.987      404.483       92.394        0.052      343.920       20.369      861.012
04/09/2014  18:22:00     -378.247     -187.916       14.357      243.507      171.415       89.241    59295.863    29383.204     7963.966       13.760        4.832      422.354       99.310        0.055      343.936       20.397      861.020
04/09/2014  18:23:00     -464.641     -306.369       -7.214      218.598      172.687       99.797    47785.132    29820.730     9959.500       19.867        4.378      556.555       97.911        0.031      343.840       20.232      861.013
04/09/2014  18:24:00     -476.377     -290.593      -22.213      212.209      177.366      113.572    45032.714    31458.634    12898.522       20.061        4.469      558.014      109.342        0.038      343.753       20.082      861.013
04/09/2014  18:25:00     -459.418     -221.498        0.657      245.648      164.436       93.045    60342.915    27039.042     8657.377       17.806        4.802      510.026      106.213        0.043      343.759       20.093      861.027
04/09/2014  18:26:00     -550.141     -304.944      -28.648      243.394      219.490      109.699    59240.873    48175.963    12033.804       25.793        5.973      629.003      112.217        0.032      343.747       20.072      861.011
04/09/2014  18:27:00     -374.167     -189.643       -4.772      198.864      201.350      110.423    39546.806    40541.651    12193.216       13.412        4.614      419.482      117.439        0.078      343.785       20.137      861.036
04/09/2014  18:28:00     -353.828     -259.037       12.998      226.214      175.763      105.954    51172.798    30892.476    11226.353       14.286        4.665      438.514      116.772        0.071      343.800       20.163      861.021
04/09/2014  18:29:00     -477.018     -213.991      -18.803      198.312      170.741      101.085    39327.475    29152.492    10218.185       17.618        3.935      522.817      103.928        0.040      343.831       20.216      861.026
04/09/2014  18:30:00     -255.253     -162.443        2.387      182.731      135.247       87.040    33390.797    18291.734     7575.941        7.539        2.963      302.559      111.248        0.135      343.933       20.392      861.035
04/09/2014  18:31:00     -285.283      -47.439      -11.703      111.648      100.612       48.159    12465.198    10122.697     2319.324        5.434        1.245      289.201       55.498        0.037      343.974       20.461      861.075
04/09/2014  18:32:00     -214.652      -71.809       11.737      198.124      148.755       77.019    39252.959    22128.029     5931.932        5.933        3.366      226.345       83.569        0.136      343.955       20.429      861.073
04/09/2014  18:33:00     -303.555     -160.635       -3.191      194.723      139.902       80.287    37917.118    19572.598     6445.998        9.093        3.197      343.437       76.577        0.050      343.854       20.255      861.074
04/09/2014  18:34:00     -365.355      -82.660      -17.344      219.360      137.696       79.320    48118.618    18960.272     6291.678       10.698        3.669      374.588       83.522        0.050      343.818       20.194      861.078
04/09/2014  18:35:00     -331.196      -62.547       -3.756      181.696      129.252       84.932    33013.460    16706.028     7213.383        8.526        2.847      337.050       86.582        0.066      343.806       20.174      861.061
04/09/2014  18:36:00     -313.675       35.150      -12.224      173.492      129.327       63.906    30099.507    16725.364     4084.017        7.533        2.545      315.638       63.711        0.041      343.773       20.117      861.065
04/09/2014  18:37:00     -375.693     -119.350      -18.140      169.332      142.641       67.310    28673.475    20346.523     4530.576       10.462        2.678      394.195       71.726        0.033      343.768       20.108      861.069
04/09/2014  18:38:00     -257.398     -116.120       -9.822      139.511      103.977       57.060    19463.312    10811.299     3255.843        5.668        1.677      282.379       54.200        0.037      343.719       20.026      861.054
04/09/2014  18:39:00     -325.384      -95.118       -9.524      159.817      160.884       72.701    25541.528    25883.816     5285.440        8.585        2.836      339.001       68.490        0.041      343.744       20.067      861.061
04/09/2014  18:40:00     -393.275     -159.467      -19.781      186.320      154.485       80.349    34714.993    23865.549     6455.921       12.275        3.252      424.376       72.868        0.029      343.708       20.006      861.055
04/09/2014  18:41:00     -438.823     -125.614      -39.319      145.192      159.809       91.040    21080.574    25538.911     8288.342       13.239        2.745      456.448       90.745        0.040      343.664       19.931      861.062
04/09/2014  18:42:00     -383.710     -103.144      -16.754      159.677      137.437       74.065    25496.746    18888.868     5485.681       10.400        2.494      397.331       75.571        0.036      343.664       19.931      861.061
04/09/2014  18:43:00     -345.480     -283.338      -15.933      152.857      156.679       89.368    23365.233    24548.377     7986.563       12.788        2.795      446.807       73.715        0.027      343.621       19.859      861.031
04/09/2014  18:44:00     -427.174     -255.314      -16.784      215.401      165.470       93.109    46397.761    27380.314     8669.274       16.518        4.122      497.657       99.708        0.040      343.569       19.769      861.018
04/09/2014  18:45:00     -244.864     -106.974      -10.967      104.602      104.523       50.856    10941.535    10925.019     2586.283        4.798        1.223      267.211       50.270        0.035      343.670       19.940      861.040
04/09/2014  18:46:00     -380.308      -19.595      -22.203      169.293      106.562       62.645    28660.194    11355.389     3924.370        9.472        2.197      380.813       80.877        0.045      343.594       19.812      861.041
04/09/2014  18:47:00     -197.843       -0.337        1.684      137.866       78.440       63.992    19007.116     6152.824     4095.026        3.419        1.463      197.844       70.817        0.128      343.676       19.953      861.011
04/09/2014  18:48:00     -286.265      -30.790        3.103      136.186      108.393       66.113    18546.689    11749.113     4370.974        5.878        1.733      287.916       68.202        0.056      343.638       19.887      861.017
04/09/2014  18:49:00     -334.031     -181.384       11.533      218.811      160.480       86.713    47878.271    25753.845     7519.074       11.286        4.058      380.102      107.472        0.080      343.621       19.859      861.015
04/09/2014  18:50:00     -417.999       40.781      -31.364      147.496      115.260       67.717    21755.062    13284.901     4585.561       10.849        1.981      419.983       66.490        0.025      343.589       19.804      861.016
04/09/2014  18:51:00     -313.772      -70.648      -32.958      137.234       96.542       67.840    18833.159     9320.386     4602.215        6.864        1.638      321.627       60.857        0.036      343.629       19.872      861.014
04/09/2014  18:52:00     -356.193     -112.972      -23.149      142.362      118.176       70.015    20266.890    13965.605     4902.083        8.965        1.957      373.679       69.311        0.034      343.571       19.772      861.027
04/09/2014  18:53:00     -280.010      -85.074       -5.827      130.856      105.058       57.778    17123.279    11037.236     3338.317        5.858        1.575      292.648       59.264        0.041      343.578       19.784      861.043
04/09/2014  18:54:00     -243.283     -104.541        0.098      171.977      122.415       73.530    29575.939    14985.489     5406.673        6.003        2.498      264.793       93.080        0.124      343.544       19.728      861.037
04/09/2014  18:55:00     -197.975     -132.702        6.492      195.590      159.890       99.871    38255.591    25564.720     9974.236        6.531        3.690      238.336      104.611        0.193      343.510       19.668      861.037
04/09/2014  18:56:00     -404.300     -158.024      -13.921      209.980      152.618       83.859    44091.607    23292.258     7032.351       13.151        3.721      434.086       89.557        0.043      343.485       19.626      861.043
04/09/2014  18:57:00     -313.196     -117.407       13.308      175.879      151.438       78.976    30933.502    22933.542     6237.137        8.607        3.005      334.479       90.003        0.072      343.490       19.635      861.053
04/09/2014  18:58:00     -210.964     -161.724        7.208      218.065      126.715       71.283    47552.460    16056.642     5081.319        6.969        3.435      265.821       97.706        0.135      343.496       19.647      861.064
04/09/2014  18:59:00     -154.658      -48.131       -2.114      102.295       84.507       52.194    10464.301     7141.416     2724.231        2.328        1.016      161.975       55.107        0.116      343.591       19.809      861.073
04/09/2014  19:00:00     -108.767      -58.675       13.246      149.324      103.600       80.019    22297.726    10732.876     6403.115        2.743        1.972      123.584       97.097        0.617      343.483       19.625      861.062
04/09/2014  19:01:00     -159.136      -77.949        9.982      136.859       94.699       50.589    18730.338     8967.949     2559.240        3.087        1.513      177.202       61.880        0.122      343.504       19.659      861.074
04/09/2014  19:02:00     -311.146     -117.842       -4.958      203.249      176.378       80.654    41309.991    31109.064     6504.989        9.481        3.946      332.714       92.517        0.077      343.415       19.507      861.087
04/09/2014  19:03:00     -332.320     -129.425      -23.272      233.263      190.273       95.489    54411.501    36203.965     9118.055       11.371        4.987      356.633       95.451        0.072      343.402       19.486      861.041
04/09/2014  19:04:00     -378.830      -47.802      -17.891      209.062      144.242       66.659    43706.868    20805.862     4443.402       10.752        3.448      381.834       81.948        0.046      343.389       19.464      861.060
04/09/2014  19:05:00     -444.053      -95.344      -39.368      151.538      131.121       72.197    22963.849    17192.819     5212.346       12.659        2.268      454.173       82.184        0.033      343.349       19.395      861.048
04/09/2014  19:06:00     -304.357      -28.052      -17.891      113.624      103.425       64.672    12910.462    10696.804     4182.473        6.076        1.389      305.647       67.615        0.049      343.369       19.429      861.085
04/09/2014  19:07:00     -206.476      -32.290       -0.870      103.416       71.306       48.999    10694.829     5084.569     2400.886        3.092        0.909      208.986       51.710        0.061      343.369       19.430      861.099
04/09/2014  19:08:00     -236.838      -11.221      -24.786       90.489       92.127       49.303     8188.250     8487.348     2430.813        3.797        0.955      237.103       49.128        0.043      343.354       19.402      861.070
04/09/2014  19:09:00     -377.969      -92.987      -13.659      196.223      157.650       81.656    38503.589    24853.478     6667.752       11.085        3.501      389.239      100.920        0.067      343.314       19.333      861.060
04/09/2014  19:10:00     -456.168       34.424      -39.100      272.465      119.890       76.987    74236.974    14373.687     5926.991       15.265        4.727      457.465       97.625        0.046      343.287       19.288      861.030
04/09/2014  19:11:00     -444.496      -12.430      -26.594      204.882      173.617       82.438    41976.790    30142.860     6796.105       13.866        3.946      444.670       94.262        0.045      343.230       19.193      861.037
04/09/2014  19:12:00     -198.373        8.486        2.552      170.356       91.908       71.409    29021.251     8447.140     5099.240        4.099        2.128      198.554       82.926        0.174      343.240       19.210      861.037
04/09/2014  19:13:00     -259.599      -44.157        9.586      265.195      162.458      105.557    70328.398    26392.444    11142.304        8.863        5.393      263.327      123.223        0.219      343.210       19.158      860.986
04/09/2014  19:14:00     -294.597      -29.726      -16.065      164.972      150.074       69.501    27215.718    22522.332     4830.441        7.124        2.728      296.093       78.459        0.070      343.217       19.169      860.990
04/09/2014  19:15:00     -201.302       54.411       16.056      124.588       88.725       68.453    15522.249     7872.196     4685.747        3.590        1.404      208.526       59.125        0.080      343.179       19.105      860.998
04/09/2014  19:16:00     -202.263      -34.029        1.321      118.878      111.322       62.521    14131.861    12392.556     3908.893        3.625        1.522      205.106       47.688        0.054      343.188       19.121      861.002
04/09/2014  19:17:00     -259.954      -48.432       -9.886      148.206      144.267       71.378    21965.018    20812.920     5094.884        5.894        2.394      264.427       73.759        0.078      343.138       19.036      860.999
04/09/2014  19:18:00     -231.460        3.173       -8.425      127.575      114.858       66.447    16275.272    13192.292     4415.155        4.376        1.694      231.482       73.307        0.100      343.118       19.002      861.008
04/09/2014  19:19:00     -172.780      -45.210       -7.642      130.472      107.396       59.291    17023.019    11534.008     3515.424        3.201        1.604      178.597       65.305        0.134      343.121       19.006      861.018
04/09/2014  19:20:00     -181.188      -48.885       -7.164      126.778       63.042       45.362    16072.636     3974.258     2057.723        2.868        1.105      187.667       52.358        0.078      343.114       18.993      861.064
04/09/2014  19:21:00     -225.295      -49.932      -14.443      113.755       91.810       55.415    12940.107     8429.038     3070.790        3.894        1.222      230.762       60.309        0.068      343.096       18.963      861.074
04/09/2014  19:22:00     -275.228       12.848      -35.295       95.717       90.798       37.214     9161.763     8244.266     1384.850        4.797        0.940      275.527       34.010        0.015      343.076       18.928      861.081
04/09/2014  19:23:00     -154.000       -2.411       -9.301       74.156       55.828       33.106     5499.113     3116.754     1095.995        1.676        0.486      154.019       30.292        0.039      343.066       18.916      861.101
04/09/2014  19:24:00      -70.843       47.263       26.494       92.017       43.899       46.092     8467.105     1927.080     2124.514        1.023        0.626       85.162       54.583        0.411      343.048       18.886      861.135
04/09/2014  19:25:00      -26.793      -25.517       29.048       58.886       71.221       42.954     3467.595     5072.443     1845.063        0.630        0.519       37.000       38.361        1.075      343.064       18.912      861.136
04/09/2014  19:26:00      -57.385       37.717       10.584       48.810       48.569       31.788     2382.373     2358.996     1010.494        0.529        0.288       68.670        9.014        0.017      343.050       18.891      861.146
04/09/2014  19:27:00     -237.871      -24.213       -5.462      114.778       93.675       59.631    13173.889     8775.072     3555.812        4.135        1.275      239.100       51.364        0.046      342.970       18.749      861.168
04/09/2014  19:28:00     -282.334      -34.443       -7.369      108.215       86.130       57.595    11710.402     7418.448     3317.164        5.170        1.122      284.427       55.968        0.039      342.971       18.750      861.193
04/09/2014  19:29:00     -223.278      -57.407        0.749       85.549      106.094       55.149     7318.590    11255.876     3041.458        3.738        1.081      230.540       53.245        0.053      342.963       18.737      861.237
04/09/2014  19:30:00     -285.053       17.988      -33.051      146.773       98.814       62.625    21542.250     9764.193     3921.841        5.894        1.761      285.620       57.784        0.041      342.939       18.696      861.254
04/09/2014  19:31:00     -236.253      -47.840      -12.268      110.923       64.816       52.279    12303.895     4201.169     2733.129        3.874        0.962      241.048       51.374        0.045      342.901       18.633      861.273
04/09/2014  19:32:00     -178.019      -31.247      -25.699       76.090       68.136       51.314     5789.625     4642.455     2633.089        2.319        0.653      180.741       39.381        0.047      342.918       18.661      861.288
04/09/2014  19:33:00     -177.952     -124.960       -5.438      121.452       80.283       55.850    14750.478     6445.362     3119.240        3.581        1.216      217.444       58.486        0.072      342.933       18.686      861.304
04/09/2014  19:34:00     -139.910      -44.269      -11.315       50.253       54.469       30.491     2525.347     2966.905      929.706        1.404        0.321      146.747       19.165        0.017      342.922       18.670      861.338
04/09/2014  19:35:00      -84.416      -43.059        0.992      109.417       59.457       38.956    11971.998     3535.085     1517.608        1.300        0.851       94.764       42.927        0.205      342.920       18.668      861.325
04/09/2014  19:36:00      -18.648      -28.537       30.466       38.525       80.918       34.029     1484.209     6547.765     1158.002        0.564        0.459       34.090       33.111        0.943      342.922       18.670      861.350
04/09/2014  19:37:00      -46.115      -11.139       -1.197      104.443       46.345       42.828    10908.253     2147.848     1834.228        0.857        0.745       47.442       46.306        0.953      342.940       18.701      861.346
04/09/2014  19:38:00      -89.575      -79.467        8.202      135.958      106.827       57.339    18484.453    11411.917     3287.719        2.379        1.659      119.744       65.476        0.299      342.820       18.498      861.369
04/09/2014  19:39:00     -207.879      -28.573      -17.877       79.419      114.359       44.766     6307.441    13077.894     2003.975        3.287        1.069      209.833       32.054        0.023      342.847       18.539      861.366
04/09/2014  19:40:00        2.029       78.774        8.448       43.116       78.719       45.290     1858.970     6196.637     2051.198        0.819        0.505       78.800       55.702        0.500      342.760       18.394      861.361
04/09/2014  19:41:00      -36.249      -31.719        2.869       48.252       46.942       31.114     2328.302     2203.545      968.056        0.391        0.275       48.168       23.341        0.235      342.774       18.421      861.349
04/09/2014  19:42:00     -270.514      -43.998       -9.228      133.475      117.896       61.671    17815.479    13899.551     3803.320        5.535        1.776      274.069       65.994        0.058      342.812       18.480      861.342
04/09/2014  19:43:00     -305.441       16.658      -24.945       84.388      109.587       42.183     7121.252    12009.309     1779.436        5.755        1.045      305.895       34.731        0.013      342.777       18.419      861.369
04/09/2014  19:44:00     -225.911      -28.738      -13.250      106.629       76.000       55.967    11369.713     5775.941     3132.273        3.615        1.014      227.732       37.856        0.028      342.744       18.364      861.377
04/09/2014  19:45:00     -256.688       -5.869      -29.750      130.507      147.688       63.415    17031.985    21811.600     4021.465        5.483        2.143      256.755       63.046        0.060      342.748       18.371      861.380
04/09/2014  19:46:00     -113.849      -34.952       -0.528       80.379       77.805       44.058     6460.818     6053.664     1941.084        1.432        0.723      119.093       36.379        0.093      342.732       18.346      861.360
04/09/2014  19:47:00      -67.085      -12.612       19.594       81.130       45.888       38.776     6582.018     2105.670     1503.553        0.762        0.510       68.260       46.692        0.468      342.693       18.280      861.353
04/09/2014  19:48:00     -183.328      -49.342       -8.960      108.999       80.390       47.655    11880.708     6462.584     2271.009        2.837        1.031      189.852       56.914        0.090      342.683       18.263      861.338
04/09/2014  19:49:00     -245.942      -90.461      -12.555       99.096      129.369       51.998     9819.978    16736.282     2703.771        4.904        1.463      262.050       48.057        0.034      342.664       18.228      861.339
04/09/2014  19:50:00     -351.592     -126.993      -18.571      157.756      141.727       67.764    24887.052    20086.423     4591.901        9.482        2.478      373.824       44.086        0.014      342.715       18.315      861.310
04/09/2014  19:51:00     -411.356      -97.863      -33.511      149.001      108.331       64.864    22201.333    11735.639     4207.358       10.902        1.907      422.836       67.076        0.025      342.691       18.275      861.341
04/09/2014  19:52:00     -187.312      -47.406        4.268      109.390       84.267       55.546    11966.229     7100.977     3085.335        2.975        1.108      193.218       54.022        0.078      342.641       18.192      861.337
04/09/2014  19:53:00     -102.072       11.239       19.940       88.386       74.192       48.425     7812.096     5504.444     2344.952        1.330        0.783      102.688       43.059        0.176      342.570       18.072      861.348
04/09/2014  19:54:00     -218.998      -50.456        0.691      161.654      132.821       57.215    26132.082    17641.311     3273.568        4.877        2.352      224.735       72.157        0.103      342.585       18.095      861.341
04/09/2014  19:55:00     -151.189      -62.577        2.435      131.823      115.870       64.737    17377.222    13425.950     4190.830        3.088        1.750      163.628       59.393        0.132      342.644       18.195      861.304
04/09/2014  19:56:00     -234.321      -29.149       -6.703      111.147       95.533       53.013    12353.600     9126.485     2810.409        4.004        1.215      236.127       51.276        0.047      342.630       18.173      861.289
04/09/2014  19:57:00     -378.195     -109.418        5.027      199.437      159.586       84.336    39775.096    25467.728     7112.581       11.368        3.618      393.705       92.035        0.055      342.603       18.125      861.306
04/09/2014  19:58:00     -342.120      -40.525       -2.967      189.198      139.000       84.595    35795.776    19320.937     7156.371        9.047        3.114      344.512      100.559        0.085      342.577       18.081      861.326
04/09/2014  19:59:00     -433.756      -66.008      -28.536      191.491      160.872       82.498    36668.984    25879.854     6805.900       13.132        3.468      438.750       70.258        0.026      342.612       18.140      861.317
04/09/2014  20:00:00     -305.505      -88.364       -9.685      183.307      170.435       79.353    33601.371    29048.006     6296.933        8.508        3.447      318.027       69.468        0.048      342.561       18.054      861.341
04/09/2014  20:01:00     -280.664      -39.988      -12.862      125.235      164.235       55.306    15683.881    26973.279     3058.756        6.312        2.286      283.498       57.297        0.041      342.577       18.081      861.304
04/09/2014  20:02:00     -284.718       -0.329      -10.792      165.842      110.458       63.990    27503.439    12200.911     4094.746        6.248        2.190      284.718       81.855        0.083      342.548       18.032      861.320
04/09/2014  20:03:00     -379.803      -31.663      -12.680      192.001      152.040       73.703    36864.381    23116.157     5432.100       10.540        3.271      381.120       81.361        0.046      342.524       17.992      861.323
04/09/2014  20:04:00     -369.725      -66.446       -4.951      153.114      162.289       73.654    23443.962    26337.652     5424.895        9.816        2.760      375.648       75.646        0.041      342.516       17.977      861.318
04/09/2014  20:05:00     -266.107      -40.349        0.678      166.289      135.591       73.594    27651.968    18384.823     5416.042        6.194        2.573      269.149       79.906        0.088      342.527       17.998      861.320
04/09/2014  20:06:00     -356.358       -4.051      -18.783      212.874      105.183       70.972    45315.226    11063.479     5036.970        9.438        3.071      356.381       88.264        0.061      342.489       17.934      861.300
04/09/2014  20:07:00     -215.191      -20.789       11.546      189.044      123.352       66.096    35737.561    15215.825     4368.682        5.109        2.766      216.193       82.077        0.144      342.419       17.813      861.296
04/09/2014  20:08:00     -430.331      -99.659      -24.895      193.747      158.499       94.214    37538.066    25121.838     8876.218       13.362        3.577      441.720      103.813        0.055      342.471       17.900      861.298
04/09/2014  20:09:00     -404.157     -148.618       -3.510      171.583      181.523       81.005    29440.651    32950.743     6561.736       12.718        3.448      430.616       87.349        0.041      342.497       17.945      861.289
04/09/2014  20:10:00     -318.604     -187.341       -6.016      189.502      172.242      100.564    35911.196    29667.288    10113.218       10.615        3.785      369.601      101.570        0.076      342.491       17.934      861.259
04/09/2014  20:11:00     -275.338     -135.983       12.806      188.148      157.026      105.132    35399.760    24657.088    11052.639        8.277        3.555      307.087      113.046        0.136      342.482       17.921      861.244
04/09/2014  20:12:00     -354.657      -12.128       -0.543      177.572      144.110       67.583    31531.693    20767.617     4567.416        9.139        2.843      354.864       68.103        0.037      342.465       17.891      861.304
04/09/2014  20:13:00     -254.002     -154.534       -6.060      194.094      161.973       92.719    37672.408    26235.276     8596.839        8.045        3.625      297.318      105.072        0.125      342.443       17.855      861.326
04/09/2014  20:14:00     -304.326     -115.433       -0.929      193.043      175.732       82.290    37265.708    30881.765     6771.620        9.041        3.746      325.482       78.413        0.058      342.421       17.815      861.323
04/09/2014  20:15:00      -90.396      -27.071       26.524      182.088      145.636       90.223    33155.900    21209.978     8140.232        3.604        3.125       94.362      112.255        1.415      342.391       17.766      861.329
04/09/2014  20:16:00     -327.459      -71.711      -11.223      165.392      179.160       80.474    27354.495    32098.480     6476.107        8.920        3.296      335.219       90.413        0.073      342.438       17.845      861.360
04/09/2014  20:17:00     -421.213      -62.382      -15.733      220.658      201.841       86.412    48689.833    40739.832     7467.092       13.921        4.845      425.807       91.464        0.046      342.400       17.780      861.358
04/09/2014  20:18:00     -418.617      -40.663      -17.838      185.716      131.540       71.995    34490.573    17302.751     5183.215       11.708        2.849      420.587       72.572        0.030      342.406       17.789      861.361
04/09/2014  20:19:00     -298.239       -4.139       -9.820      161.571      137.332       72.301    26105.131    18860.056     5227.472        6.962        2.510      298.268       70.270        0.056      342.386       17.755      861.396
04/09/2014  20:20:00     -423.924      -29.169      -16.014      183.544      151.460       77.637    33688.230    22940.119     6027.505       12.172        3.133      424.926       80.369        0.036      342.409       17.795      861.450
04/09/2014  20:21:00     -325.379     -103.408      -10.952      229.488      125.458       69.984    52664.658    15739.617     4897.752        9.498        3.665      341.416       82.486        0.058      342.426       17.825      861.433
04/09/2014  20:22:00     -510.022      -33.414      -14.250      212.771      152.701       89.363    45271.369    23317.580     7985.662       16.899        3.829      511.115      102.617        0.040      342.366       17.722      861.467
04/09/2014  20:23:00     -179.955      -50.205        6.680      147.566      121.105       54.612    21775.743    14666.340     2982.421        3.718        1.971      186.827       50.367        0.073      342.320       17.644      861.489
04/09/2014  20:24:00     -366.358      -82.119       -3.787      177.327      147.418       88.698    31444.896    21732.188     7867.337       10.100        3.052      375.449       86.055        0.053      342.357       17.707      861.523
04/09/2014  20:25:00     -402.021      -15.968       -5.221      211.729      147.573       79.114    44829.302    21777.678     6259.070       11.737        3.643      402.338       96.452        0.057      342.366       17.721      861.534
04/09/2014  20:26:00     -279.156        1.954        1.378      169.561      118.182       82.616    28750.770    13966.924     6825.385        6.373        2.477      279.163       95.585        0.117      342.339       17.676      861.536
04/09/2014  20:27:00     -151.703     -110.245        5.770      114.006      105.652       52.855    12997.378    11162.302     2793.653        3.107        1.348      187.530       58.634        0.098      342.361       17.715      861.559
04/09/2014  20:28:00     -332.131     -124.550       -1.942      124.354      123.774       74.393    15463.793    15319.904     5534.369        8.107        1.816      354.716       59.556        0.028      342.367       17.725      861.565
04/09/2014  20:29:00     -248.694      -55.803        7.842      216.902      126.054       78.302    47046.423    15889.685     6131.229        6.703        3.453      254.878       92.206        0.131      342.346       17.687      861.589
04/09/2014  20:30:00     -247.036      -61.118       -4.378      159.305      136.832       58.981    25378.031    18722.910     3478.800        5.617        2.379      254.484       67.210        0.070      342.345       17.687      861.586
04/09/2014  20:31:00     -474.231      -92.433      -31.075      187.089      173.720       82.901    35002.366    30178.594     6872.497       15.321        3.603      483.155       88.187        0.033      342.347       17.689      861.606
04/09/2014  20:32:00     -400.847       -3.308      -29.251      221.961      163.995       86.006    49266.669    26894.522     7397.100       12.253        4.178      400.860       97.815        0.060      342.381       17.747      861.595
04/09/2014  20:33:00     -277.538      -41.792       -4.695      139.814      101.611       55.235    19547.845    10324.697     3050.915        5.585        1.646      280.667       52.506        0.035      342.349       17.692      861.614
04/09/2014  20:34:00     -212.529      -43.312        9.949      167.374      142.482       76.026    28013.939    20301.116     5779.906        5.061        2.705      216.898       86.077        0.157      342.326       17.654      861.633
04/09/2014  20:35:00     -422.389      -94.303      -10.526      155.066      120.648       69.707    24045.405    14556.024     4859.112       11.543        2.173      432.788       86.851        0.040      342.341       17.679      861.652
04/09/2014  20:36:00     -203.351      -82.442      -11.923      165.566      129.804       78.699    27412.225    16848.977     6193.472        4.936        2.523      219.427       80.673        0.135      342.348       17.693      861.642
04/09/2014  20:37:00     -386.898      -80.603       -5.973      198.525      192.838       90.227    39412.014    37186.306     8140.960       12.046        4.237      395.205       95.551        0.058      342.347       17.689      861.660
04/09/2014  20:38:00     -414.864     -104.295      -25.888      193.793      127.282       79.086    37555.670    16200.733     6254.661       12.182        3.001      427.772       93.527        0.048      342.346       17.688      861.684
04/09/2014  20:39:00     -247.357     -192.362      -10.530      227.545      140.599       96.578    51776.576    19767.998     9327.281        8.957        4.044      313.351      119.256        0.145      342.333       17.666      861.694
04/09/2014  20:40:00     -219.720      -14.938      -10.176      143.769       84.562       59.856    20669.571     7150.795     3582.722        4.000        1.570      220.227       67.266        0.093      342.330       17.661      861.707
04/09/2014  20:41:00     -295.423       19.338      -11.027      204.945      133.845       83.553    42002.377    17914.453     6981.146        7.732        3.345      296.055       95.919        0.105      342.284       17.584      861.708
04/09/2014  20:42:00     -333.145     -190.515      -18.492      146.176      151.729       87.862    21367.482    23021.671     7719.796        9.986        2.605      383.773       80.991        0.045      342.353       17.701      861.732
04/09/2014  20:43:00     -237.970      -95.491        2.591      123.660       86.595       48.520    15291.763     7498.707     2354.181        4.544        1.257      256.414       48.182        0.035      342.353       17.701      861.747
04/09/2014  20:44:00     -253.195      -69.773        0.468       88.300       89.176       49.519     7796.888     7952.431     2452.158        4.359        0.910      262.633       47.068        0.032      342.311       17.630      861.772
04/09/2014  20:45:00     -279.271      -45.240       -3.933      147.942       82.341       58.279    21886.884     6780.049     3396.405        5.605        1.603      282.912       70.083        0.061      342.258       17.537      861.791
04/09/2014  20:46:00     -208.407      -83.925        0.699      104.532      117.270       57.507    10926.886    13752.354     3307.084        3.923        1.399      224.671       50.684        0.051      342.278       17.574      861.810
04/09/2014  20:47:00     -199.170      -43.060       -9.543      100.836      112.128       58.575    10167.878    12572.585     3431.017        3.389        1.309      203.772       57.649        0.080      342.277       17.572      861.824
04/09/2014  20:48:00     -180.044      -97.125      -11.280       98.941       83.882       50.772     9789.284     7036.106     2577.799        3.069        0.970      204.571       52.529        0.066      342.281       17.580      861.826
04/09/2014  20:49:00     -299.387      -99.504      -10.629      157.572      143.107       73.625    24829.012    20479.678     5420.648        7.518        2.536      315.490       76.857        0.059      342.303       17.615      861.829
04/09/2014  20:50:00     -302.894     -114.053       -4.133       83.711      110.269       49.994     7007.527    12159.168     2499.412        6.321        1.083      323.655       38.373        0.014      342.242       17.511      861.829
04/09/2014  20:51:00     -312.611      -69.645        0.875      180.651      142.333       68.629    32634.785    20258.797     4709.973        8.008        2.880      320.275       65.561        0.042      342.222       17.478      861.828
04/09/2014  20:52:00     -304.929      -44.116      -17.815      126.096      119.795       68.587    15900.158    14350.911     4704.199        6.509        1.748      308.104       71.323        0.054      342.212       17.460      861.850
04/09/2014  20:53:00     -340.471      -19.473      -11.781      151.753      124.105       75.589    23029.084    15402.144     5713.714        8.028        2.207      341.027       70.454        0.043      342.235       17.500      861.845
04/09/2014  20:54:00     -342.007     -150.505        1.201      134.951      114.302       66.896    18211.845    13065.003     4475.032        8.768        1.788      373.659       69.624        0.035      342.234       17.498      861.820
04/09/2014  20:55:00     -376.731      -63.646      -18.368      125.265       81.580       56.413    15691.275     6655.306     3182.395        8.592        1.276      382.070       55.803        0.021      342.228       17.489      861.834
04/09/2014  20:56:00     -284.993      -15.160      -13.782      120.466       85.199       48.159    14512.086     7258.867     2319.282        5.286        1.205      285.396       56.407        0.039      342.187       17.420      861.842
04/09/2014  20:57:00     -181.335      -62.031        6.853       87.195       84.397       41.134     7602.950     7122.921     1692.037        2.659        0.821      191.651       47.783        0.062      342.199       17.439      861.828
04/09/2014  20:58:00      -92.648      -40.238       16.345      113.678      135.590       68.270    12922.797    18384.568     4660.833        2.321        1.798      101.008       69.255        0.470      342.108       17.287      861.831
04/09/2014  20:59:00     -127.774      -49.176       17.502      165.941       93.537       69.548    27536.317     8749.088     4836.993        3.008        2.056      136.911       75.500        0.304      342.146       17.350      861.838
04/09/2014  21:00:00     -231.774     -102.054       -8.331      143.247      112.538       65.881    20519.719    12664.744     4340.336        5.086        1.876      253.247       69.196        0.075      342.138       17.335      861.854
04/09/2014  21:01:00     -276.612      -15.283       -8.350      171.216      113.917       70.885    29314.814    12977.074     5024.641        6.206        2.366      277.034       78.844        0.081      342.147       17.351      861.878
04/09/2014  21:02:00     -246.384      -36.472        1.066      175.613      113.367       66.745    30839.911    12852.116     4454.927        5.508        2.407      249.068       84.305        0.115      342.188       17.420      861.897
04/09/2014  21:03:00     -283.337      -38.762       -5.662      172.402      115.720       57.325    29722.374    13391.094     3286.153        6.410        2.320      285.976       70.904        0.061      342.142       17.341      861.910
04/09/2014  21:04:00     -396.343      -58.252      -18.292      120.313      119.313       61.819    14475.185    14235.703     3821.624        9.667        1.627      400.601       48.625        0.015      342.129       17.320      861.914
04/09/2014  21:05:00     -249.223      -19.310       -0.089      112.712       84.066       52.773    12703.928     7067.113     2784.958        4.252        1.128      249.970       50.729        0.041      342.047       17.181      861.930
04/09/2014  21:06:00     -277.751      -32.790       -4.443      102.089       74.422       50.521    10422.214     5538.618     2552.360        4.837        0.926      279.680       50.803        0.033      342.094       17.261      861.938
04/09/2014  21:07:00     -288.653      -85.115      -18.116       98.533      103.706       55.131     9708.669    10754.984     3039.398        5.719        1.175      300.941       50.514        0.028      342.110       17.287      861.939
04/09/2014  21:08:00     -316.158      -32.136      -19.707      171.150       87.311       56.428    29292.296     7623.212     3184.143        7.073        2.005      317.787       57.543        0.033      342.051       17.189      861.956
04/09/2014  21:09:00     -310.150      -30.652      -19.978      118.978       99.703       44.170    14155.883     9940.680     1951.021        6.178        1.302      311.661       52.869        0.029      342.047       17.180      861.969
04/09/2014  21:10:00     -331.778      -84.991      -38.823      105.804      105.224       54.228    11194.589    11072.143     2940.648        7.200        1.260      342.491       40.831        0.014      342.061       17.204      861.983
04/09/2014  21:11:00     -313.336      -76.415      -18.411      103.932      107.449       52.579    10801.780    11545.309     2764.505        6.473        1.256      322.519       51.212        0.025      342.063       17.207      861.993
04/09/2014  21:12:00     -188.646      -61.130      -12.224      142.383       86.097       53.781    20273.057     7412.678     2892.413        3.502        1.529      198.304       58.693        0.088      342.032       17.155      862.001
04/09/2014  21:13:00     -251.394      -73.678      -16.233       80.536       61.258       37.417     6486.020     3752.537     1400.034        4.026        0.582      261.968       31.169        0.014      342.055       17.194      862.016
04/09/2014  21:14:00     -254.557      -68.680      -17.063      119.595       67.827       44.714    14302.984     4600.473     1999.323        4.535        1.045      263.659       57.063        0.047      342.008       17.114      862.022
04/09/2014  21:15:00     -275.378      -78.516      -23.034       93.768       71.923       48.554     8792.484     5172.933     2357.525        4.942        0.816      286.352       38.670        0.018      342.004       17.107      862.025
04/09/2014  21:16:00     -263.958      -53.334      -23.505      156.311      105.694       59.098    24433.060    11171.211     3492.545        5.608        1.955      269.293       74.938        0.077      342.035       17.161      862.041
04/09/2014  21:17:00     -392.769       44.993      -29.783      105.925       90.123       51.160    11220.183     8122.211     2617.320        8.956        1.098      395.338       50.620        0.016      342.086       17.247      862.047
04/09/2014  21:18:00     -229.456     -102.915       -2.095      111.487       82.257       51.801    12429.353     6766.278     2683.312        4.256        1.094      251.478       45.299        0.032      342.006       17.111      862.038
04/09/2014  21:19:00     -261.410      -64.289       -4.199      112.675      102.606       63.630    12695.594    10527.963     4048.736        4.987        1.364      269.199       62.053        0.053      341.986       17.078      862.035
04/09/2014  21:20:00     -274.908      -52.211      -17.499      139.326      144.279       62.295    19411.770    20816.352     3880.695        6.135        2.205      279.822       45.347        0.026      341.994       17.090      862.028
04/09/2014  21:21:00     -393.374     -114.379       -6.279      149.257      127.315       68.265    22277.653    16209.117     4660.156       10.550        2.157      409.665       70.357        0.029      342.047       17.181      862.036
04/09/2014  21:22:00     -323.298      -51.903      -10.886      125.737      148.050       60.181    15809.789    21918.904     3621.774        7.433        2.068      327.438       52.065        0.025      342.031       17.154      862.027
04/09/2014  21:23:00     -295.291      -70.039      -17.427      133.987      122.392       54.833    17952.582    14979.695     3006.709        6.417        1.797      303.483       54.741        0.033      341.993       17.088      862.025
04/09/2014  21:24:00     -298.930      -59.176      -16.086      125.668       84.036       55.920    15792.474     7061.991     3127.080        5.955        1.299      304.731       55.051        0.033      342.011       17.118      862.011
04/09/2014  21:25:00     -288.000      -39.551       -5.771      154.012      117.361       63.801    23719.700    13773.529     4070.542        6.304        2.078      290.703       60.593        0.043      341.995       17.093      862.005
04/09/2014  21:26:00     -312.516      -62.431       -2.864      115.568      130.365       66.214    13356.024    16995.131     4384.267        6.815        1.737      318.691       58.533        0.034      341.987       17.078      862.005
04/09/2014  21:27:00     -311.888      -68.767      -14.551      122.794      112.908       65.197    15078.296    12748.269     4250.586        6.714        1.604      319.379       66.694        0.044      341.976       17.058      861.994
04/09/2014  21:28:00     -403.691      -16.929      -36.307      117.708      107.224       66.244    13855.109    11496.999     4388.331        9.715        1.487      404.045       66.259        0.027      341.990       17.082      861.997
04/09/2014  21:29:00     -256.943      -99.398       11.230      195.850      141.253       77.468    38357.050    19952.411     6001.303        7.016        3.216      275.499      103.045        0.140      341.872       16.885      862.012
04/09/2014  21:30:00     -227.667      -20.131       -3.184      147.891       81.419       57.261    21871.715     6629.121     3278.843        4.201        1.589      228.556       73.156        0.102      341.876       16.890      862.029
04/09/2014  21:31:00     -267.357      -47.040      -14.317      129.570      106.265       63.028    16788.487    11292.161     3972.551        5.297        1.603      271.464       63.954        0.056      341.892       16.915      862.056
04/09/2014  21:32:00     -262.398      -33.855      -12.943      115.104       81.057       49.315    13248.864     6570.210     2432.005        4.620        1.113      264.574       55.070        0.043      341.887       16.908      862.068
04/09/2014  21:33:00     -259.906       -9.455       -3.155       88.173       96.316       57.168     7774.397     9276.729     3268.149        4.398        1.016      260.078       47.990        0.034      341.872       16.883      862.101
04/09/2014  21:34:00     -185.076      -97.914       -7.827      163.703       90.250       60.674    26798.552     8145.027     3681.365        4.126        1.931      209.381       69.226        0.109      341.859       16.860      862.109
04/09/2014  21:35:00     -162.714      -43.448       -3.837      117.426       79.760       47.312    13788.836     6361.694     2238.397        2.538        1.119      168.415       53.670        0.102      341.863       16.869      862.115
04/09/2014  21:36:00     -204.870      -29.986        1.780      124.510       87.002       51.468    15502.789     7569.392     2649.000        3.429        1.286      207.053       60.195        0.085      341.836       16.822      862.138
04/09/2014  21:37:00     -201.963      -23.879       -7.682      117.040       58.009       45.596    13698.301     3365.078     2079.032        3.028        0.957      203.370       58.341        0.082      341.914       16.956      862.159
04/09/2014  21:38:00     -195.871      -19.895      -11.284      100.498       54.023       36.177    10099.881     2918.436     1308.744        2.660        0.716      196.879       43.442        0.049      341.862       16.868      862.141
04/09/2014  21:39:00     -329.318      -12.013      -17.620      103.334       93.758       52.432    10677.950     8790.618     2749.150        6.556        1.111      329.537       46.077        0.020      341.909       16.945      862.152
04/09/2014  21:40:00     -284.393      -16.463      -12.087      179.696       94.673       61.290    32290.578     8962.962     3756.449        6.314        2.250      284.869       71.705        0.063      341.847       16.840      862.175
04/09/2014  21:41:00     -164.879      -66.716       -5.907      102.685       79.401       53.292    10544.232     6304.525     2840.068        2.568        0.984      177.866       52.796        0.088      341.870       16.881      862.208
04/09/2014  21:42:00     -210.169      -99.723      -18.870       89.868      106.577       48.463     8076.312    11358.649     2348.644        3.812        1.089      232.627       49.451        0.045      341.912       16.951      862.227
04/09/2014  21:43:00     -225.725      -66.230       -5.333      114.299       92.935       54.716    13064.228     8636.951     2993.863        4.003        1.235      235.240       58.552        0.062      341.886       16.908      862.247
04/09/2014  21:44:00     -150.034      -77.524       -0.655       98.507       82.357       38.709     9703.676     6782.613     1498.368        2.325        0.899      168.879       49.137        0.085      341.875       16.889      862.266
04/09/2014  21:45:00     -141.562      -66.861       16.124      145.053       94.434       68.193    21040.432     8917.875     4650.334        2.968        1.730      156.557       86.960        0.309      341.826       16.806      862.268
04/09/2014  21:46:00     -158.268      -41.554       -7.595       73.066       55.810       43.178     5338.667     3114.736     1864.303        1.857        0.516      163.632       36.074        0.049      341.905       16.942      862.286
04/09/2014  21:47:00     -122.288      -68.508       -9.496       49.703       61.740       29.555     2470.356     3811.774      873.522        1.345        0.358      140.170       22.946        0.027      341.927       16.978      862.300
04/09/2014  21:48:00     -106.773      -92.349        8.190       66.830       47.256       36.863     4466.294     2233.091     1358.844        1.403        0.403      141.170       38.672        0.075      341.879       16.896      862.313
04/09/2014  21:49:00     -142.811     -145.773       16.707      117.814       93.864       46.823    13880.110     8810.485     2192.426        3.340        1.244      204.071       58.918        0.083      341.946       17.010      862.318
04/09/2014  21:50:00     -148.510      -30.537       -3.675       76.752       70.618       40.770     5890.837     4986.835     1662.210        1.777        0.627      151.617       38.638        0.065      341.897       16.929      862.327
04/09/2014  21:51:00     -184.462      -25.529       -0.517       85.166       57.062       40.536     7253.241     3256.035     1643.182        2.341        0.608      186.220       42.800        0.053      341.793       16.750      862.357
04/09/2014  21:52:00     -171.925      -18.888       -6.972       69.803       57.000       32.788     4872.413     3249.044     1075.053        1.958        0.460      172.959       36.949        0.046      341.802       16.765      862.361
04/09/2014  21:53:00     -163.395      -41.370      -15.312       83.618       60.887       40.969     6991.904     3707.228     1678.426        2.051        0.619      168.551       38.993        0.054      341.825       16.806      862.373
04/09/2014  21:54:00      -90.072      -36.163        1.498       82.760       49.384       40.531     6849.279     2438.812     1642.739        1.017        0.547       97.061       33.593        0.120      341.830       16.814      862.390
04/09/2014  21:55:00     -138.633      -25.086        0.969      101.787       89.011       48.494    10360.594     7922.915     2351.678        2.024        1.032      140.885       45.250        0.103      341.811       16.779      862.399
04/09/2014  21:56:00     -115.452      -28.286       13.009       72.457       57.441       42.512     5249.999     3299.519     1807.241        1.233        0.518      118.867       37.417        0.099      341.799       16.762      862.410
04/09/2014  21:57:00     -137.742      -13.339        8.101       90.306       70.074       48.278     8155.096     4910.419     2330.741        1.730        0.770      138.387       50.989        0.136      341.801       16.766      862.409
04/09/2014  21:58:00     -127.327       -2.502       11.466       71.903       68.509       38.408     5170.048     4693.444     1475.194        1.384        0.567      127.352       42.484        0.111      341.832       16.817      862.416
04/09/2014  21:59:00     -182.548      -64.022        2.946      120.530       95.140       51.491    14527.563     9051.552     2651.299        3.183        1.312      193.449       66.916        0.120      341.793       16.750      862.414
04/09/2014  22:00:00     -218.242      -11.105      -15.256       65.484       66.172       36.942     4288.122     4378.799     1364.720        2.901        0.502      218.524       31.391        0.021      341.803       16.766      862.421
04/09/2014  22:01:00     -128.178      -91.442       13.184      149.610       99.097       65.795    22383.200     9820.117     4328.988        3.074        1.827      157.453       73.643        0.219      341.814       16.785      862.421
04/09/2014  22:02:00     -223.844      -72.026      -19.822       98.727      105.150       43.917     9746.987    11056.568     1928.663        3.920        1.137      235.147       46.684        0.039      341.877       16.890      862.448
04/09/2014  22:03:00     -125.365      -72.508        9.197       91.503       82.981       49.669     8372.798     6885.903     2466.979        1.939        0.886      144.823       51.463        0.126      341.774       16.717      862.445
04/09/2014  22:04:00     -136.306      -69.409       -5.155       74.470       83.590       43.267     5545.795     6987.336     1872.015        1.891        0.720      152.960       28.909        0.036      341.864       16.871      862.424
04/09/2014  22:05:00     -125.930      -46.148        9.157       99.847       62.057       43.615     9969.385     3851.113     1902.226        1.689        0.786      134.120       47.670        0.126      341.731       16.645      862.448
04/09/2014  22:06:00     -236.557     -111.926       -6.561       74.889      106.655       47.451     5608.403    11375.216     2251.550        4.388        0.962      261.699       36.469        0.019      341.871       16.880      862.443
04/09/2014  22:07:00     -229.514      -49.497      -11.854      112.487       83.448       53.322    12653.375     6963.543     2843.205        3.886        1.123      234.790       49.057        0.044      341.885       16.904      862.442
04/09/2014  22:08:00     -207.924      -42.063       -8.368       93.858      117.596       50.903     8809.265    13828.862     2591.087        3.515        1.261      212.136       43.523        0.042      341.862       16.866      862.436
04/09/2014  22:09:00     -143.985      -48.850       -5.752       84.158       75.376       42.950     7082.537     5681.530     1844.687        1.888        0.730      152.046       35.935        0.056      341.783       16.733      862.441
04/09/2014  22:10:00     -123.600      -87.548      -12.933      118.803       89.450       47.840    14114.035     8001.379     2288.637        2.375        1.220      151.465       50.101        0.109      341.851       16.850      862.426
04/09/2014  22:11:00      -83.296      -40.451       11.851      105.335       67.890       47.306    11095.419     4608.992     2237.893        1.333        0.897       92.598       48.206        0.271      341.889       16.914      862.417
04/09/2014  22:12:00     -115.990      -64.045        2.471       99.954       71.674       46.644     9990.752     5137.202     2175.690        1.743        0.865      132.497       58.232        0.193      341.870       16.883      862.396
04/09/2014  22:13:00     -146.702      -28.509       -8.429       66.957       56.239       35.384     4483.211     3162.862     1252.034        1.565        0.445      149.447       31.602        0.045      341.848       16.844      862.388
04/09/2014  22:14:00      -84.160        6.569        9.666       97.987       59.269       33.640     9601.497     3512.781     1131.622        1.073        0.712       84.416       30.369        0.129      341.738       16.658      862.373
04/09/2014  22:15:00     -140.610      -31.610        3.455      125.852       67.058       34.023    15838.644     4496.799     1157.565        2.113        1.075      144.119       51.247        0.126      341.705       16.601      862.371
04/09/2014  22:16:00     -104.662      -17.931       17.060      132.060       74.804       54.047    17439.733     5595.610     2921.052        1.876        1.298      106.187       68.544        0.417      341.738       16.658      862.350
04/09/2014  22:17:00     -121.573      -79.529       -5.611       66.264       81.999       31.760     4390.897     6723.785     1008.725        1.663        0.606      145.275       29.818        0.042      341.795       16.755      862.371
04/09/2014  22:18:00      -60.095      -13.741        0.464       57.135       46.682       23.130     3264.374     2179.219      535.005        0.489        0.299       61.646       13.939        0.051      341.756       16.691      862.372
04/09/2014  22:19:00      -41.170       -2.289       -4.319       41.725       23.821       23.929     1740.938      567.424      572.577        0.230        0.144       41.234       17.392        0.178      341.768       16.709      862.364
04/09/2014  22:20:00        8.161      -51.345       -2.080       46.696       38.350       26.317     2180.492     1470.727      692.597        0.352        0.217       51.989       22.663        0.190      341.510       16.272      862.373
04/09/2014  22:21:00      -54.648      -89.395        6.662       44.336       52.704       31.846     1965.661     2777.706     1014.156        0.839        0.288      104.776       26.100        0.062      341.842       16.833      862.386
04/09/2014  22:22:00       -1.354       17.676        3.253       34.158       45.119       28.249     1166.740     2035.703      797.983        0.216        0.200       17.727       12.373        0.487      341.607       16.438      862.424
04/09/2014  22:23:00       41.482       38.318       25.461       33.101       33.797       16.083     1095.681     1142.234      258.658        0.317        0.125       56.471       11.586        0.042      341.199       15.746      862.426
04/09/2014  22:24:00       20.023       26.148       24.216       73.222       53.098       44.898     5361.455     2819.436     2015.870        0.593        0.510       32.934       47.452        2.076      341.194       15.738      862.418
04/09/2014  22:25:00      -62.981        3.023        0.572       44.975       27.308       38.751     2022.783      745.703     1501.639        0.412        0.214       63.054       35.737        0.321      341.302       15.920      862.443
04/09/2014  22:26:00       45.643      -15.486       11.996       42.459       27.411       24.514     1802.800      751.338      600.929        0.281        0.158       48.199       20.076        0.173      341.083       15.551      862.458
04/09/2014  22:27:00       48.916      -58.276        1.531       52.463       34.602       31.333     2752.349     1197.268      981.754        0.536        0.247       76.085       13.915        0.033      341.307       15.929      862.482
04/09/2014  22:28:00      -27.112      -33.455        5.717       68.954       62.295       30.677     4754.681     3880.606      941.084        0.573        0.479       43.062       38.506        0.800      341.616       16.453      862.472
04/09/2014  22:29:00      -49.640       59.392       -3.133       49.852       46.878       29.462     2485.180     2197.578      868.020        0.577        0.278       77.405       24.815        0.103      341.540       16.325      862.478
04/09/2014  22:30:00       -7.407      -21.249       13.930       49.632       57.263       27.050     2463.333     3279.002      731.683        0.359        0.324       22.503       22.846        1.031      341.488       16.235      862.477
04/09/2014  22:31:00      -70.155      -61.675        0.609       55.255       33.560       23.114     3053.074     1126.294      534.246        0.672        0.236       93.410       20.635        0.049      341.576       16.384      862.463
04/09/2014  22:32:00        2.259      -28.896      -17.347       37.604       39.231       19.987     1414.079     1539.042      399.487        0.225        0.168       28.984       21.398        0.545      341.676       16.553      862.443
04/09/2014  22:33:00      -39.909       25.289       -2.436       39.444       19.765       10.555     1555.793      390.636      111.417        0.215        0.103       47.247       13.025        0.076      341.647       16.504      862.429
04/09/2014  22:34:00     -105.466        4.719       -2.901       17.396       28.513       10.393      302.628      813.008      108.005        0.619        0.061      105.571        7.316        0.005      341.619       16.457      862.434
04/09/2014  22:35:00      -83.168      -51.332        3.476       28.798       33.875       17.171      829.313     1147.544      294.849        0.592        0.114       97.733       15.598        0.025      341.434       16.143      862.445
04/09/2014  22:36:00     -131.457      -58.600       -6.670       36.690       29.354       14.809     1346.158      861.645      219.309        1.159        0.121      143.926       11.891        0.007      341.527       16.301      862.452
04/09/2014  22:37:00      -76.876      -20.658        3.794       51.737       50.313       20.538     2676.721     2531.354      421.818        0.599        0.281       79.603       25.450        0.102      341.434       16.144      862.446
04/09/2014  22:38:00     -206.112      -41.528      -15.226       72.829       50.810       40.424     5304.032     2581.660     1634.084        2.698        0.476      210.254       32.748        0.024      341.708       16.605      862.440
04/09/2014  22:39:00     -183.590      -64.801       -9.344       86.801       81.516       36.395     7534.466     6644.796     1324.610        2.674        0.775      194.691       32.082        0.027      341.595       16.415      862.442
04/09/2014  22:40:00     -131.285      -44.292        7.413       88.215       87.212       40.179     7781.815     7605.982     1614.359        1.812        0.850      138.556       43.314        0.098      341.582       16.393      862.445
04/09/2014  22:41:00     -161.844      -80.568        8.527      109.419       74.288       51.033    11972.578     5518.722     2604.379        2.642        1.005      180.789       52.207        0.083      341.622       16.460      862.436
04/09/2014  22:42:00     -112.024      -54.463       16.468      132.881      104.032       55.028    17657.482    10822.614     3028.136        2.364        1.575      124.561       63.230        0.258      341.673       16.547      862.430
04/09/2014  22:43:00      -77.776      -39.195       -6.697      103.343       61.598       40.596    10679.850     3794.271     1648.028        1.187        0.806       87.094       44.528        0.261      341.645       16.500      862.434
04/09/2014  22:44:00      -74.980       -3.993        1.095       33.100       33.424       20.851     1095.622     1117.159      434.752        0.414        0.132       75.086       13.669        0.033      341.606       16.434      862.442
04/09/2014  22:45:00     -116.580      -90.007        1.840       65.364       61.142       40.253     4272.487     3738.307     1620.289        1.566        0.482      147.283       40.393        0.075      341.623       16.463      862.450
04/09/2014  22:46:00      -66.970      -59.818       13.761       56.336       40.777       30.596     3173.705     1662.804      936.093        0.701        0.289       89.795       29.786        0.110      341.564       16.364      862.475
04/09/2014  22:47:00     -146.435      -74.397       -5.837       74.928       50.826       33.008     5614.172     2583.326     1089.506        1.815        0.464      164.250       27.598        0.028      341.636       16.487      862.511
04/09/2014  22:48:00     -131.276      -81.954        4.324       66.689       50.573       35.798     4447.466     2557.627     1281.476        1.613        0.414      154.758       34.724        0.050      341.607       16.437      862.543
04/09/2014  22:49:00     -118.016      -34.871        1.144       67.632       70.092       32.492     4574.102     4912.856     1055.700        1.284        0.527      123.060       36.273        0.087      341.585       16.398      862.572
04/09/2014  22:50:00      -96.579      -10.208       12.531       78.555       46.943       36.749     6170.939     2203.624     1350.473        0.965        0.486       97.117       39.745        0.167      341.581       16.391      862.595
04/09/2014  22:51:00     -106.027      -24.586        1.251       60.792       53.388       32.262     3695.698     2850.275     1040.828        0.972        0.379      108.841       24.494        0.051      341.576       16.384      862.618
04/09/2014  22:52:00      -41.928      -92.536       -4.244       73.972       50.851       32.784     5471.908     2585.842     1074.790        0.973        0.457      101.592       24.811        0.060      341.672       16.548      862.643
04/09/2014  22:53:00      -35.811      -43.114        2.625       36.359       25.985       21.342     1321.994      675.215      455.481        0.280        0.123       56.047       19.683        0.123      341.680       16.561      862.662
04/09/2014  22:54:00       -8.447       -7.582       16.163       48.585       45.632       31.003     2360.470     2082.235      961.192        0.290        0.270       11.351       18.587        2.682      341.339       15.983      862.672
04/09/2014  22:55:00       15.719       -5.675        7.746       37.054       55.125       24.378     1372.991     3038.818      594.263        0.267        0.250       16.712       17.535        1.101      340.742       14.973      862.670
04/09/2014  22:56:00       32.732      -13.105        5.326       37.677       38.129       29.348     1419.550     1453.792      861.283        0.250        0.187       35.258       16.759        0.226      340.779       15.035      862.690
04/09/2014  22:57:00       -0.438      -48.604        8.583       27.329       30.046       26.857      746.873      902.750      721.314        0.240        0.119       48.606       19.516        0.161      341.439       16.152      862.701
04/09/2014  22:58:00        9.613       -5.255       35.069       31.354       37.830       26.771      983.062     1431.129      716.679        0.224        0.157       10.955        6.710        0.375      341.093       15.566      862.686
04/09/2014  22:59:00       24.763     -108.810       -9.039       43.667       67.766       39.528     1906.839     4592.283     1562.489        1.030        0.403      111.592       25.336        0.052      341.361       16.020      862.693
04/09/2014  23:00:00       34.179       28.124       39.764       50.058       76.930       53.719     2505.827     5918.277     2885.756        0.742        0.565       44.262       55.632        1.580      340.923       15.280      862.705
04/09/2014  23:01:00       10.843        3.618       67.751       29.837       43.621       23.169      890.275     1902.822      536.802        0.402        0.166       11.431       14.545        1.619      340.724       14.942      862.717
04/09/2014  23:02:00       32.668       -0.909       25.810       39.094       38.956       32.020     1528.378     1517.597     1025.271        0.290        0.204       32.680       27.927        0.730      340.600       14.731      862.743
04/09/2014  23:03:00        7.507       -5.440       17.233       38.919       30.214       19.251     1514.675      912.861      370.591        0.159        0.140        9.271        5.690        0.377      340.516       14.590      862.766
04/09/2014  23:04:00       20.257       29.944       20.912       34.923       40.729       39.122     1219.650     1658.843     1530.507        0.308        0.220       36.152       27.424        0.575      340.577       14.693      862.783
04/09/2014  23:05:00       87.139       73.894        8.327       26.272       22.596       18.183      690.225      510.581      330.638        0.733        0.077      114.252       13.472        0.014      340.777       15.032      862.785
04/09/2014  23:06:00      145.529       68.507       17.419       43.900       50.134       38.649     1927.227     2513.412     1493.742        1.605        0.297      160.848       11.678        0.005      340.935       15.298      862.783
04/09/2014  23:07:00      188.380       90.748       22.757       50.242       42.611       48.167     2524.249     1815.675     2320.050        2.545        0.333      209.099       28.876        0.019      340.875       15.194      862.798
04/09/2014  23:08:00      111.813       50.110       12.131       59.086       43.841       34.231     3491.120     1922.047     1171.770        1.087        0.329      122.528       24.790        0.041      340.673       14.857      862.818
04/09/2014  23:09:00      105.963       55.689       14.224       43.488       45.631       38.183     1891.191     2082.202     1457.976        0.998        0.272      119.705       12.594        0.011      340.492       14.550      862.849
04/09/2014  23:10:00       96.203       39.529       32.760       63.102       46.843       36.213     3981.869     2194.250     1311.382        0.969        0.374      104.008       28.710        0.076      340.433       14.450      862.882
04/09/2014  23:11:00      167.957      117.172       33.596       50.661       35.728       33.829     2566.498     1276.466     1144.425        2.403        0.249      204.790       25.150        0.015      340.692       14.886      862.903
04/09/2014  23:12:00      134.820       98.030       39.977       28.482       36.147       26.969      811.219     1306.615      727.332        1.611        0.142      166.692       17.737        0.011      340.686       14.877      862.928
04/09/2014  23:13:00      111.611       86.427       24.190       28.029       25.980       25.655      785.620      674.982      658.179        1.131        0.106      141.162       14.771        0.011      340.623       14.772      862.937
04/09/2014  23:14:00      113.645       84.717       30.529       29.237       26.951       31.546      854.801      726.355      995.141        1.180        0.129      141.747       18.133        0.016      340.464       14.501      862.933
04/09/2014  23:15:00       55.382       49.652       45.230       54.659       37.155       27.041     2987.618     1380.462      731.221        0.634        0.255       74.381       17.514        0.055      340.436       14.455      862.941
04/09/2014  23:16:00        0.077       -8.663       17.263       17.856       27.173       21.835      318.847      738.352      476.787        0.095        0.077        8.663       16.618        3.679      340.173       14.012      862.956
04/09/2014  23:17:00       -8.519      -34.178      -12.465       24.747       30.204       15.093      612.436      912.274      227.802        0.157        0.088       35.223       13.266        0.142      340.125       13.928      862.977
04/09/2014  23:18:00       24.553      -50.598        6.844       29.402       27.567       24.760      864.460      759.958      613.036        0.272        0.112       56.241       14.943        0.071      340.078       13.850      862.977
04/09/2014  23:19:00       27.665      -28.989        0.078       29.207       23.279       11.946      853.048      541.926      142.705        0.157        0.077       40.071        8.159        0.041      340.035       13.777      862.991
04/09/2014  23:20:00       48.165      -26.075        9.590       27.610       36.143       22.164      762.336     1306.326      491.240        0.283        0.128       54.770       18.414        0.113      340.145       13.962      862.991
04/09/2014  23:21:00       27.455       13.598        4.424       30.424       32.800       28.830      925.598     1075.808      831.171        0.189        0.142       30.637       18.584        0.368      339.948       13.632      862.985
04/09/2014  23:22:00        2.334      -23.103       -6.637       26.313       32.734       21.834      692.370     1071.486      476.712        0.141        0.112       23.220       12.802        0.304      339.912       13.571      862.997
04/09/2014  23:23:00      -39.349       12.946      -13.492       21.260       35.956       10.544      451.975     1292.866      111.173        0.188        0.093       41.424       11.566        0.078      340.355       14.318      862.996
04/09/2014  23:24:00       56.835       83.681        0.739       68.049       22.154       22.743     4630.646      490.783      517.247        0.793        0.282      101.157       27.680        0.075      340.683       14.872      862.989
04/09/2014  23:25:00       56.787       52.103       43.274       68.199       47.068       44.331     4651.104     2215.434     1965.236        0.832        0.442       77.068       44.884        0.339      340.531       14.616      862.947
04/09/2014  23:26:00      -37.185        9.911        6.236       66.905       61.034       33.489     4476.241     3725.099     1121.539        0.542        0.466       38.483       33.745        0.769      340.560       14.665      862.959
04/09/2014  23:27:00       19.460      -28.920       16.896       31.600       33.191       20.080      998.589     1101.632      403.215        0.200        0.125       34.857       23.117        0.440      340.504       14.571      862.966
04/09/2014  23:28:00       12.086       -3.512       26.977       35.775       32.922       24.610     1279.853     1083.845      605.637        0.193        0.148       12.586       15.652        1.547      340.429       14.443      862.965
04/09/2014  23:29:00       21.034       -2.018       10.253       36.990       32.582       30.248     1368.237     1061.566      914.945        0.195        0.167       21.131       24.983        1.398      340.145       13.962      862.968
04/09/2014  23:30:00      -66.603       28.217      -10.602       66.062       41.023       22.799     4364.138     1682.893      519.792        0.595        0.328       72.333       31.742        0.193      340.516       14.590      862.982
04/09/2014  23:31:00     -168.408      -51.190       -4.128       69.525       50.904       40.121     4833.774     2591.255     1609.700        2.001        0.452      176.016       25.765        0.021      340.992       15.394      863.007
04/09/2014  23:32:00      -40.761       42.740       34.933       89.478       53.357       32.940     8006.383     2846.919     1085.029        0.832        0.597       59.060       43.390        0.540      341.120       15.611      863.012
04/09/2014  23:33:00      144.016      105.894        5.402       50.356       52.547       42.209     2535.741     2761.198     1781.580        1.953        0.354      178.758       18.812        0.011      341.151       15.664      862.933
04/09/2014  23:34:00       59.897       11.197        6.206       67.471       59.050       27.715     4552.304     3486.874      768.116        0.628        0.440       60.935       19.639        0.104      341.507       16.267      862.929
04/09/2014  23:35:00       13.519      -51.158        6.022       30.359       31.331       28.120      921.673      981.646      790.709        0.276        0.135       52.914       19.702        0.139      341.022       15.446      862.970
04/09/2014  23:36:00      -67.900      -90.180       -1.223       48.357       50.830       29.676     2338.444     2583.643      880.647        0.927        0.290      112.884       17.239        0.023      341.271       15.868      862.985
04/09/2014  23:37:00      -43.469      -10.641        6.387       32.305       16.211       11.006     1043.632      262.784      121.121        0.174        0.071       44.753       11.178        0.062      341.253       15.838      862.992
04/09/2014  23:38:00       -1.868       35.477        9.361       18.883       29.760       13.616      356.584      885.632      185.383        0.139        0.071       35.526       13.468        0.144      340.927       15.285      862.995
04/09/2014  23:39:00      -22.113       85.334       -2.802       23.121       26.559       19.909      534.561      705.382      396.357        0.471        0.082       88.152       11.890        0.018      341.194       15.736      863.003
04/09/2014  23:40:00        2.677       51.140       -7.892       29.802       16.246       10.522      888.154      263.926      110.719        0.197        0.063       51.210       11.136        0.047      341.329       15.968      863.007
04/09/2014  23:41:00       36.642      -10.098       17.533       17.789       23.937       15.810      316.450      572.994      249.941        0.145        0.057       38.008        9.879        0.068      340.607       14.744      863.003
04/09/2014  23:42:00       19.211       -6.356       19.459       31.990       17.005       16.044     1023.360      289.160      257.423        0.118        0.078       20.235        7.962        0.155      340.308       14.238      863.015
04/09/2014  23:43:00       70.379      -14.817        5.748       24.493       20.508       23.047      599.901      420.587      531.153        0.338        0.078       71.922        7.691        0.011      340.239       14.122      863.016
04/09/2014  23:44:00       47.136       27.739        4.399       26.734       32.327       22.839      714.721     1045.043      521.612        0.265        0.114       54.692        8.579        0.025      340.400       14.395      863.012
04/09/2014  23:45:00       45.334       67.794       -9.881       27.028       12.605       12.905      730.487      158.874      166.529        0.390        0.053       81.555        9.026        0.012      340.885       15.216      863.008
04/09/2014  23:46:00        1.744       48.686       -6.458       11.325       16.355       12.012      128.264      267.497      144.279        0.148        0.027       48.717        5.398        0.012      341.003       15.415      863.007
04/09/2014  23:47:00       10.118       89.864      -13.853       20.385       21.385       16.216      415.542      457.309      262.953        0.475        0.057       90.432       10.068        0.012      340.866       15.182      862.995
04/09/2014  23:48:00       10.082       82.687      -14.758       33.116       24.827       18.651     1096.645      616.358      347.857        0.461        0.103       83.299       15.928        0.037      341.030       15.460      862.998
04/09/2014  23:49:00      -42.306       43.261      -11.885       21.965       20.238       13.838      482.453      409.577      191.498        0.244        0.054       60.509        8.955        0.022      341.099       15.577      863.003
04/09/2014  23:50:00      -29.865       21.976      -13.603       19.290       18.771        9.055      372.118      352.338       81.988        0.118        0.040       37.079        7.552        0.041      340.964       15.348      862.999
04/09/2014  23:51:00      -26.051        0.374       -0.469       19.008       24.429       13.255      361.313      596.752      175.684        0.091        0.057       26.053        4.359        0.028      340.816       15.097      862.991
04/09/2014  23:52:00     -113.464      -55.642       -9.576       22.894       19.015       11.019      524.140      361.589      121.419        0.853        0.050      126.373        4.298        0.001      340.747       14.981      862.980
04/09/2014  23:53:00     -149.710      -50.296        1.661       36.438       35.900       23.539     1327.760     1288.807      554.099        1.406        0.159      157.932       12.986        0.007      340.726       14.946      862.972
04/09/2014  23:54:00      -75.181      -45.001       -0.020       57.281       48.554       25.967     3281.117     2357.451      674.261        0.699        0.316       87.620       29.039        0.110      340.636       14.795      862.959
04/09/2014  23:55:00     -114.815      -66.510       10.492       63.920       44.330       31.716     4085.781     1965.127     1005.928        1.239        0.353      132.687       32.084        0.058      340.656       14.827      862.943
04/09/2014  23:56:00     -110.107      -79.323        2.314       50.980       43.600       25.497     2598.929     1900.972      650.102        1.178        0.258      135.705       23.481        0.030      340.617       14.761      862.926
04/09/2014  23:57:00      -59.648      -53.710       11.010       49.773       37.912       21.225     2477.305     1437.286      450.517        0.546        0.218       80.266       21.394        0.071      340.519       14.596      862.901
04/09/2014  23:58:00      -48.772     -122.043        6.284       34.323       41.434       20.905     1178.102     1716.782      437.029        1.032        0.167      131.428       22.857        0.030      340.688       14.881      862.881
04/09/2014  23:59:00      -66.826      -65.472        5.795       63.495       50.676       22.492     4031.659     2568.047      505.869        0.794        0.355       93.554       23.817        0.065      340.663       14.839      862.877
